<?xml version="1.0" encoding="UTF-8" standalone="no" ?>
<gpx xmlns="http://www.topografix.com/GPX/1/1" xmlns:xsi="http://www.w3.org/2001/XMLSchema-instance" xsi:schemaLocation="http://www.topografix.com/GPX/1/1 http://www.topografix.com/GPX/1/1/gpx.xsd" version="1.1" creator="VisuGPX - https://www.visugpx.com">
  <metadata>
    <name>170531HR3ROBJeunes</name>
    <desc><![CDATA[Excellente sortie avec quelques crevaisons]]></desc>
  </metadata>
  <trk>
    <name><![CDATA[170531HR3ROBJeunes]]></name>
    <trkseg>
      <trkpt lat="43.41577" lon="6.07039">
        <ele>265.39999389648</ele>
        <time>2017-05-31T12:03:13Z</time>
      </trkpt>
      <trkpt lat="43.41578" lon="6.07041">
        <ele>265.60000610352</ele>
        <time>2017-05-31T12:03:19Z</time>
      </trkpt>
      <trkpt lat="43.41578" lon="6.0704">
        <ele>265.79998779297</ele>
        <time>2017-05-31T12:03:29Z</time>
      </trkpt>
      <trkpt lat="43.41577" lon="6.0704">
        <ele>265.79998779297</ele>
        <time>2017-05-31T12:03:39Z</time>
      </trkpt>
      <trkpt lat="43.41577" lon="6.0704">
        <ele>265.79998779297</ele>
        <time>2017-05-31T12:03:50Z</time>
      </trkpt>
      <trkpt lat="43.41577" lon="6.0704">
        <ele>265.79998779297</ele>
        <time>2017-05-31T12:03:59Z</time>
      </trkpt>
      <trkpt lat="43.41576" lon="6.07039">
        <ele>265.20001220703</ele>
        <time>2017-05-31T12:04:09Z</time>
      </trkpt>
      <trkpt lat="43.41576" lon="6.07039">
        <ele>265.20001220703</ele>
        <time>2017-05-31T12:04:20Z</time>
      </trkpt>
      <trkpt lat="43.41576" lon="6.07039">
        <ele>265.20001220703</ele>
        <time>2017-05-31T12:04:30Z</time>
      </trkpt>
      <trkpt lat="43.41576" lon="6.07039">
        <ele>265.20001220703</ele>
        <time>2017-05-31T12:04:40Z</time>
      </trkpt>
      <trkpt lat="43.41574" lon="6.07042">
        <ele>265.79998779297</ele>
        <time>2017-05-31T12:05:00Z</time>
      </trkpt>
      <trkpt lat="43.41575" lon="6.07042">
        <ele>265.20001220703</ele>
        <time>2017-05-31T12:05:09Z</time>
      </trkpt>
      <trkpt lat="43.41575" lon="6.07041">
        <ele>264.79998779297</ele>
        <time>2017-05-31T12:05:20Z</time>
      </trkpt>
      <trkpt lat="43.41576" lon="6.07041">
        <ele>264.79998779297</ele>
        <time>2017-05-31T12:05:30Z</time>
      </trkpt>
      <trkpt lat="43.41576" lon="6.07042">
        <ele>264.79998779297</ele>
        <time>2017-05-31T12:05:40Z</time>
      </trkpt>
      <trkpt lat="43.41577" lon="6.07043">
        <ele>264.79998779297</ele>
        <time>2017-05-31T12:05:43Z</time>
      </trkpt>
      <trkpt lat="43.41577" lon="6.0705">
        <ele>264.79998779297</ele>
        <time>2017-05-31T12:05:46Z</time>
      </trkpt>
      <trkpt lat="43.41578" lon="6.07064">
        <ele>264.60000610352</ele>
        <time>2017-05-31T12:05:50Z</time>
      </trkpt>
      <trkpt lat="43.4158" lon="6.07083">
        <ele>264.79998779297</ele>
        <time>2017-05-31T12:05:55Z</time>
      </trkpt>
      <trkpt lat="43.41581" lon="6.07102">
        <ele>264.60000610352</ele>
        <time>2017-05-31T12:06:00Z</time>
      </trkpt>
      <trkpt lat="43.4157" lon="6.07112">
        <ele>264.60000610352</ele>
        <time>2017-05-31T12:06:05Z</time>
      </trkpt>
      <trkpt lat="43.41563" lon="6.07115">
        <ele>264.39999389648</ele>
        <time>2017-05-31T12:06:07Z</time>
      </trkpt>
      <trkpt lat="43.41553" lon="6.07117">
        <ele>264.20001220703</ele>
        <time>2017-05-31T12:06:10Z</time>
      </trkpt>
      <trkpt lat="43.41543" lon="6.07085">
        <ele>264.39999389648</ele>
        <time>2017-05-31T12:06:19Z</time>
      </trkpt>
      <trkpt lat="43.41536" lon="6.07077">
        <ele>264.60000610352</ele>
        <time>2017-05-31T12:06:22Z</time>
      </trkpt>
      <trkpt lat="43.41507" lon="6.07082">
        <ele>264</ele>
        <time>2017-05-31T12:06:29Z</time>
      </trkpt>
      <trkpt lat="43.41473" lon="6.07075">
        <ele>263.60000610352</ele>
        <time>2017-05-31T12:06:39Z</time>
      </trkpt>
      <trkpt lat="43.41471" lon="6.07074">
        <ele>263.60000610352</ele>
        <time>2017-05-31T12:06:40Z</time>
      </trkpt>
      <trkpt lat="43.4147" lon="6.07073">
        <ele>263.39999389648</ele>
        <time>2017-05-31T12:06:42Z</time>
      </trkpt>
      <trkpt lat="43.4147" lon="6.07073">
        <ele>264</ele>
        <time>2017-05-31T12:06:49Z</time>
      </trkpt>
      <trkpt lat="43.41468" lon="6.07071">
        <ele>263.79998779297</ele>
        <time>2017-05-31T12:06:52Z</time>
      </trkpt>
      <trkpt lat="43.41473" lon="6.07051">
        <ele>262.60000610352</ele>
        <time>2017-05-31T12:06:57Z</time>
      </trkpt>
      <trkpt lat="43.41478" lon="6.0704">
        <ele>262.60000610352</ele>
        <time>2017-05-31T12:06:59Z</time>
      </trkpt>
      <trkpt lat="43.41483" lon="6.0703">
        <ele>263</ele>
        <time>2017-05-31T12:07:01Z</time>
      </trkpt>
      <trkpt lat="43.41492" lon="6.07006">
        <ele>263.20001220703</ele>
        <time>2017-05-31T12:07:05Z</time>
      </trkpt>
      <trkpt lat="43.41493" lon="6.06999">
        <ele>263.20001220703</ele>
        <time>2017-05-31T12:07:06Z</time>
      </trkpt>
      <trkpt lat="43.41494" lon="6.06992">
        <ele>263.39999389648</ele>
        <time>2017-05-31T12:07:07Z</time>
      </trkpt>
      <trkpt lat="43.41493" lon="6.06977">
        <ele>263.39999389648</ele>
        <time>2017-05-31T12:07:09Z</time>
      </trkpt>
      <trkpt lat="43.41493" lon="6.0697">
        <ele>263.39999389648</ele>
        <time>2017-05-31T12:07:10Z</time>
      </trkpt>
      <trkpt lat="43.41492" lon="6.06963">
        <ele>263.60000610352</ele>
        <time>2017-05-31T12:07:11Z</time>
      </trkpt>
      <trkpt lat="43.41482" lon="6.06932">
        <ele>264.39999389648</ele>
        <time>2017-05-31T12:07:16Z</time>
      </trkpt>
      <trkpt lat="43.41484" lon="6.06913">
        <ele>264.60000610352</ele>
        <time>2017-05-31T12:07:19Z</time>
      </trkpt>
      <trkpt lat="43.41481" lon="6.06904">
        <ele>264.60000610352</ele>
        <time>2017-05-31T12:07:21Z</time>
      </trkpt>
      <trkpt lat="43.41477" lon="6.06902">
        <ele>264.79998779297</ele>
        <time>2017-05-31T12:07:24Z</time>
      </trkpt>
      <trkpt lat="43.41475" lon="6.06891">
        <ele>265.20001220703</ele>
        <time>2017-05-31T12:07:32Z</time>
      </trkpt>
      <trkpt lat="43.41476" lon="6.06887">
        <ele>265.20001220703</ele>
        <time>2017-05-31T12:07:34Z</time>
      </trkpt>
      <trkpt lat="43.41477" lon="6.06882">
        <ele>265.20001220703</ele>
        <time>2017-05-31T12:07:37Z</time>
      </trkpt>
      <trkpt lat="43.41476" lon="6.06867">
        <ele>265.39999389648</ele>
        <time>2017-05-31T12:07:41Z</time>
      </trkpt>
      <trkpt lat="43.41475" lon="6.06863">
        <ele>265.39999389648</ele>
        <time>2017-05-31T12:07:42Z</time>
      </trkpt>
      <trkpt lat="43.41479" lon="6.0683">
        <ele>265.20001220703</ele>
        <time>2017-05-31T12:07:49Z</time>
      </trkpt>
      <trkpt lat="43.41483" lon="6.06821">
        <ele>265</ele>
        <time>2017-05-31T12:07:51Z</time>
      </trkpt>
      <trkpt lat="43.41485" lon="6.06816">
        <ele>265</ele>
        <time>2017-05-31T12:07:52Z</time>
      </trkpt>
      <trkpt lat="43.41496" lon="6.06767">
        <ele>265.60000610352</ele>
        <time>2017-05-31T12:08:01Z</time>
      </trkpt>
      <trkpt lat="43.41499" lon="6.06723">
        <ele>266.39999389648</ele>
        <time>2017-05-31T12:08:09Z</time>
      </trkpt>
      <trkpt lat="43.415" lon="6.06712">
        <ele>266.60000610352</ele>
        <time>2017-05-31T12:08:11Z</time>
      </trkpt>
      <trkpt lat="43.41501" lon="6.06678">
        <ele>267.60000610352</ele>
        <time>2017-05-31T12:08:17Z</time>
      </trkpt>
      <trkpt lat="43.41504" lon="6.06656">
        <ele>267.60000610352</ele>
        <time>2017-05-31T12:08:21Z</time>
      </trkpt>
      <trkpt lat="43.41514" lon="6.06598">
        <ele>268.39999389648</ele>
        <time>2017-05-31T12:08:31Z</time>
      </trkpt>
      <trkpt lat="43.41517" lon="6.0658">
        <ele>268.60000610352</ele>
        <time>2017-05-31T12:08:34Z</time>
      </trkpt>
      <trkpt lat="43.41524" lon="6.0654">
        <ele>268.60000610352</ele>
        <time>2017-05-31T12:08:41Z</time>
      </trkpt>
      <trkpt lat="43.41529" lon="6.06512">
        <ele>268.79998779297</ele>
        <time>2017-05-31T12:08:46Z</time>
      </trkpt>
      <trkpt lat="43.41544" lon="6.06482">
        <ele>269.60000610352</ele>
        <time>2017-05-31T12:08:53Z</time>
      </trkpt>
      <trkpt lat="43.41547" lon="6.06467">
        <ele>270</ele>
        <time>2017-05-31T12:08:56Z</time>
      </trkpt>
      <trkpt lat="43.41548" lon="6.06434">
        <ele>270.39999389648</ele>
        <time>2017-05-31T12:09:02Z</time>
      </trkpt>
      <trkpt lat="43.41553" lon="6.06406">
        <ele>271.60000610352</ele>
        <time>2017-05-31T12:09:08Z</time>
      </trkpt>
      <trkpt lat="43.41555" lon="6.06398">
        <ele>271.79998779297</ele>
        <time>2017-05-31T12:09:10Z</time>
      </trkpt>
      <trkpt lat="43.41557" lon="6.06389">
        <ele>272.39999389648</ele>
        <time>2017-05-31T12:09:12Z</time>
      </trkpt>
      <trkpt lat="43.4156" lon="6.06375">
        <ele>273</ele>
        <time>2017-05-31T12:09:15Z</time>
      </trkpt>
      <trkpt lat="43.41564" lon="6.06358">
        <ele>274</ele>
        <time>2017-05-31T12:09:19Z</time>
      </trkpt>
      <trkpt lat="43.41568" lon="6.06347">
        <ele>274.60000610352</ele>
        <time>2017-05-31T12:09:22Z</time>
      </trkpt>
      <trkpt lat="43.41574" lon="6.06338">
        <ele>275</ele>
        <time>2017-05-31T12:09:25Z</time>
      </trkpt>
      <trkpt lat="43.41587" lon="6.06316">
        <ele>276.60000610352</ele>
        <time>2017-05-31T12:09:32Z</time>
      </trkpt>
      <trkpt lat="43.4159" lon="6.06293">
        <ele>277.39999389648</ele>
        <time>2017-05-31T12:09:38Z</time>
      </trkpt>
      <trkpt lat="43.41587" lon="6.06278">
        <ele>277.79998779297</ele>
        <time>2017-05-31T12:09:42Z</time>
      </trkpt>
      <trkpt lat="43.41589" lon="6.06272">
        <ele>277.79998779297</ele>
        <time>2017-05-31T12:09:44Z</time>
      </trkpt>
      <trkpt lat="43.41596" lon="6.06263">
        <ele>278.39999389648</ele>
        <time>2017-05-31T12:09:49Z</time>
      </trkpt>
      <trkpt lat="43.41598" lon="6.06262">
        <ele>278.79998779297</ele>
        <time>2017-05-31T12:09:53Z</time>
      </trkpt>
      <trkpt lat="43.41598" lon="6.06261">
        <ele>278.79998779297</ele>
        <time>2017-05-31T12:09:54Z</time>
      </trkpt>
      <trkpt lat="43.41603" lon="6.06258">
        <ele>278.79998779297</ele>
        <time>2017-05-31T12:09:57Z</time>
      </trkpt>
      <trkpt lat="43.41607" lon="6.06241">
        <ele>279</ele>
        <time>2017-05-31T12:10:02Z</time>
      </trkpt>
      <trkpt lat="43.4161" lon="6.06222">
        <ele>279</ele>
        <time>2017-05-31T12:10:07Z</time>
      </trkpt>
      <trkpt lat="43.4161" lon="6.06209">
        <ele>279</ele>
        <time>2017-05-31T12:10:10Z</time>
      </trkpt>
      <trkpt lat="43.41607" lon="6.06201">
        <ele>279</ele>
        <time>2017-05-31T12:10:12Z</time>
      </trkpt>
      <trkpt lat="43.41603" lon="6.06187">
        <ele>278.79998779297</ele>
        <time>2017-05-31T12:10:15Z</time>
      </trkpt>
      <trkpt lat="43.41606" lon="6.06169">
        <ele>278.39999389648</ele>
        <time>2017-05-31T12:10:18Z</time>
      </trkpt>
      <trkpt lat="43.4162" lon="6.06148">
        <ele>277.60000610352</ele>
        <time>2017-05-31T12:10:22Z</time>
      </trkpt>
      <trkpt lat="43.41629" lon="6.06134">
        <ele>277.60000610352</ele>
        <time>2017-05-31T12:10:25Z</time>
      </trkpt>
      <trkpt lat="43.41629" lon="6.06122">
        <ele>277.79998779297</ele>
        <time>2017-05-31T12:10:27Z</time>
      </trkpt>
      <trkpt lat="43.4162" lon="6.06088">
        <ele>277.39999389648</ele>
        <time>2017-05-31T12:10:32Z</time>
      </trkpt>
      <trkpt lat="43.41619" lon="6.06081">
        <ele>277.39999389648</ele>
        <time>2017-05-31T12:10:33Z</time>
      </trkpt>
      <trkpt lat="43.41623" lon="6.06037">
        <ele>278.20001220703</ele>
        <time>2017-05-31T12:10:39Z</time>
      </trkpt>
      <trkpt lat="43.41623" lon="6.0603">
        <ele>278.60000610352</ele>
        <time>2017-05-31T12:10:40Z</time>
      </trkpt>
      <trkpt lat="43.41626" lon="6.06016">
        <ele>278.79998779297</ele>
        <time>2017-05-31T12:10:42Z</time>
      </trkpt>
      <trkpt lat="43.4163" lon="6.05991">
        <ele>279.60000610352</ele>
        <time>2017-05-31T12:10:46Z</time>
      </trkpt>
      <trkpt lat="43.41634" lon="6.05966">
        <ele>280.39999389648</ele>
        <time>2017-05-31T12:10:50Z</time>
      </trkpt>
      <trkpt lat="43.41635" lon="6.05953">
        <ele>280.79998779297</ele>
        <time>2017-05-31T12:10:52Z</time>
      </trkpt>
      <trkpt lat="43.41638" lon="6.05921">
        <ele>281.60000610352</ele>
        <time>2017-05-31T12:10:57Z</time>
      </trkpt>
      <trkpt lat="43.41643" lon="6.0589">
        <ele>282</ele>
        <time>2017-05-31T12:11:02Z</time>
      </trkpt>
      <trkpt lat="43.41646" lon="6.05871">
        <ele>282.60000610352</ele>
        <time>2017-05-31T12:11:05Z</time>
      </trkpt>
      <trkpt lat="43.41647" lon="6.05845">
        <ele>282.79998779297</ele>
        <time>2017-05-31T12:11:09Z</time>
      </trkpt>
      <trkpt lat="43.41648" lon="6.05826">
        <ele>282.79998779297</ele>
        <time>2017-05-31T12:11:12Z</time>
      </trkpt>
      <trkpt lat="43.4165" lon="6.05757">
        <ele>283.39999389648</ele>
        <time>2017-05-31T12:11:22Z</time>
      </trkpt>
      <trkpt lat="43.41648" lon="6.05714">
        <ele>283.60000610352</ele>
        <time>2017-05-31T12:11:28Z</time>
      </trkpt>
      <trkpt lat="43.41646" lon="6.05678">
        <ele>283.39999389648</ele>
        <time>2017-05-31T12:11:33Z</time>
      </trkpt>
      <trkpt lat="43.41638" lon="6.05603">
        <ele>282.79998779297</ele>
        <time>2017-05-31T12:11:42Z</time>
      </trkpt>
      <trkpt lat="43.41636" lon="6.05595">
        <ele>282.79998779297</ele>
        <time>2017-05-31T12:11:43Z</time>
      </trkpt>
      <trkpt lat="43.41632" lon="6.0557">
        <ele>282.39999389648</ele>
        <time>2017-05-31T12:11:46Z</time>
      </trkpt>
      <trkpt lat="43.41623" lon="6.05529">
        <ele>282.20001220703</ele>
        <time>2017-05-31T12:11:51Z</time>
      </trkpt>
      <trkpt lat="43.41618" lon="6.05513">
        <ele>282.20001220703</ele>
        <time>2017-05-31T12:11:53Z</time>
      </trkpt>
      <trkpt lat="43.41605" lon="6.05466">
        <ele>281.79998779297</ele>
        <time>2017-05-31T12:11:59Z</time>
      </trkpt>
      <trkpt lat="43.41598" lon="6.05444">
        <ele>281.60000610352</ele>
        <time>2017-05-31T12:12:02Z</time>
      </trkpt>
      <trkpt lat="43.41596" lon="6.05437">
        <ele>281.60000610352</ele>
        <time>2017-05-31T12:12:03Z</time>
      </trkpt>
      <trkpt lat="43.41573" lon="6.05367">
        <ele>281.39999389648</ele>
        <time>2017-05-31T12:12:12Z</time>
      </trkpt>
      <trkpt lat="43.4157" lon="6.05359">
        <ele>281.39999389648</ele>
        <time>2017-05-31T12:12:13Z</time>
      </trkpt>
      <trkpt lat="43.41552" lon="6.0531">
        <ele>280.79998779297</ele>
        <time>2017-05-31T12:12:19Z</time>
      </trkpt>
      <trkpt lat="43.41543" lon="6.05276">
        <ele>280.39999389648</ele>
        <time>2017-05-31T12:12:23Z</time>
      </trkpt>
      <trkpt lat="43.41526" lon="6.05236">
        <ele>279.60000610352</ele>
        <time>2017-05-31T12:12:28Z</time>
      </trkpt>
      <trkpt lat="43.41513" lon="6.05208">
        <ele>279</ele>
        <time>2017-05-31T12:12:32Z</time>
      </trkpt>
      <trkpt lat="43.41503" lon="6.05188">
        <ele>278.60000610352</ele>
        <time>2017-05-31T12:12:35Z</time>
      </trkpt>
      <trkpt lat="43.41499" lon="6.05176">
        <ele>278.20001220703</ele>
        <time>2017-05-31T12:12:37Z</time>
      </trkpt>
      <trkpt lat="43.41502" lon="6.05162">
        <ele>277.79998779297</ele>
        <time>2017-05-31T12:12:40Z</time>
      </trkpt>
      <trkpt lat="43.41512" lon="6.05157">
        <ele>277.79998779297</ele>
        <time>2017-05-31T12:12:43Z</time>
      </trkpt>
      <trkpt lat="43.41536" lon="6.05154">
        <ele>278.39999389648</ele>
        <time>2017-05-31T12:12:49Z</time>
      </trkpt>
      <trkpt lat="43.41548" lon="6.05153">
        <ele>278.79998779297</ele>
        <time>2017-05-31T12:12:52Z</time>
      </trkpt>
      <trkpt lat="43.4156" lon="6.05155">
        <ele>279.79998779297</ele>
        <time>2017-05-31T12:12:55Z</time>
      </trkpt>
      <trkpt lat="43.41574" lon="6.05157">
        <ele>281</ele>
        <time>2017-05-31T12:12:59Z</time>
      </trkpt>
      <trkpt lat="43.41584" lon="6.05159">
        <ele>282</ele>
        <time>2017-05-31T12:13:02Z</time>
      </trkpt>
      <trkpt lat="43.41587" lon="6.05159">
        <ele>282.20001220703</ele>
        <time>2017-05-31T12:13:03Z</time>
      </trkpt>
      <trkpt lat="43.41599" lon="6.05161">
        <ele>282.79998779297</ele>
        <time>2017-05-31T12:13:07Z</time>
      </trkpt>
      <trkpt lat="43.41609" lon="6.05163">
        <ele>283.39999389648</ele>
        <time>2017-05-31T12:13:10Z</time>
      </trkpt>
      <trkpt lat="43.41618" lon="6.05163">
        <ele>283.79998779297</ele>
        <time>2017-05-31T12:13:13Z</time>
      </trkpt>
      <trkpt lat="43.41631" lon="6.05165">
        <ele>284.39999389648</ele>
        <time>2017-05-31T12:13:17Z</time>
      </trkpt>
      <trkpt lat="43.41645" lon="6.05167">
        <ele>285.39999389648</ele>
        <time>2017-05-31T12:13:22Z</time>
      </trkpt>
      <trkpt lat="43.4166" lon="6.05167">
        <ele>286.79998779297</ele>
        <time>2017-05-31T12:13:27Z</time>
      </trkpt>
      <trkpt lat="43.41673" lon="6.05161">
        <ele>287.79998779297</ele>
        <time>2017-05-31T12:13:32Z</time>
      </trkpt>
      <trkpt lat="43.41685" lon="6.05145">
        <ele>288.79998779297</ele>
        <time>2017-05-31T12:13:38Z</time>
      </trkpt>
      <trkpt lat="43.41696" lon="6.05134">
        <ele>289.39999389648</ele>
        <time>2017-05-31T12:13:43Z</time>
      </trkpt>
      <trkpt lat="43.41705" lon="6.05125">
        <ele>289.79998779297</ele>
        <time>2017-05-31T12:13:47Z</time>
      </trkpt>
      <trkpt lat="43.4172" lon="6.05115">
        <ele>290.60000610352</ele>
        <time>2017-05-31T12:13:53Z</time>
      </trkpt>
      <trkpt lat="43.41727" lon="6.0511">
        <ele>291</ele>
        <time>2017-05-31T12:13:56Z</time>
      </trkpt>
      <trkpt lat="43.41734" lon="6.05109">
        <ele>291.60000610352</ele>
        <time>2017-05-31T12:13:59Z</time>
      </trkpt>
      <trkpt lat="43.41738" lon="6.05116">
        <ele>292</ele>
        <time>2017-05-31T12:14:02Z</time>
      </trkpt>
      <trkpt lat="43.41738" lon="6.05119">
        <ele>292.39999389648</ele>
        <time>2017-05-31T12:14:03Z</time>
      </trkpt>
      <trkpt lat="43.41738" lon="6.05129">
        <ele>293.20001220703</ele>
        <time>2017-05-31T12:14:06Z</time>
      </trkpt>
      <trkpt lat="43.41737" lon="6.05159">
        <ele>293.60000610352</ele>
        <time>2017-05-31T12:14:13Z</time>
      </trkpt>
      <trkpt lat="43.41753" lon="6.0518">
        <ele>294</ele>
        <time>2017-05-31T12:14:21Z</time>
      </trkpt>
      <trkpt lat="43.41758" lon="6.05181">
        <ele>294</ele>
        <time>2017-05-31T12:14:23Z</time>
      </trkpt>
      <trkpt lat="43.41761" lon="6.05181">
        <ele>294.20001220703</ele>
        <time>2017-05-31T12:14:24Z</time>
      </trkpt>
      <trkpt lat="43.41779" lon="6.05181">
        <ele>295.20001220703</ele>
        <time>2017-05-31T12:14:30Z</time>
      </trkpt>
      <trkpt lat="43.41787" lon="6.05182">
        <ele>295.60000610352</ele>
        <time>2017-05-31T12:14:33Z</time>
      </trkpt>
      <trkpt lat="43.41815" lon="6.05184">
        <ele>296.79998779297</ele>
        <time>2017-05-31T12:14:43Z</time>
      </trkpt>
      <trkpt lat="43.41831" lon="6.05185">
        <ele>297.39999389648</ele>
        <time>2017-05-31T12:14:49Z</time>
      </trkpt>
      <trkpt lat="43.41843" lon="6.05185">
        <ele>298.20001220703</ele>
        <time>2017-05-31T12:14:53Z</time>
      </trkpt>
      <trkpt lat="43.41851" lon="6.05185">
        <ele>298.39999389648</ele>
        <time>2017-05-31T12:14:56Z</time>
      </trkpt>
      <trkpt lat="43.4187" lon="6.0518">
        <ele>299.60000610352</ele>
        <time>2017-05-31T12:15:03Z</time>
      </trkpt>
      <trkpt lat="43.41885" lon="6.05176">
        <ele>300.79998779297</ele>
        <time>2017-05-31T12:15:09Z</time>
      </trkpt>
      <trkpt lat="43.41894" lon="6.05177">
        <ele>301.20001220703</ele>
        <time>2017-05-31T12:15:13Z</time>
      </trkpt>
      <trkpt lat="43.41894" lon="6.05178">
        <ele>301.39999389648</ele>
        <time>2017-05-31T12:15:14Z</time>
      </trkpt>
      <trkpt lat="43.41896" lon="6.0518">
        <ele>301.79998779297</ele>
        <time>2017-05-31T12:15:17Z</time>
      </trkpt>
      <trkpt lat="43.419" lon="6.05184">
        <ele>301.79998779297</ele>
        <time>2017-05-31T12:15:18Z</time>
      </trkpt>
      <trkpt lat="43.41901" lon="6.05179">
        <ele>302.20001220703</ele>
        <time>2017-05-31T12:15:21Z</time>
      </trkpt>
      <trkpt lat="43.41898" lon="6.05161">
        <ele>302.39999389648</ele>
        <time>2017-05-31T12:15:24Z</time>
      </trkpt>
      <trkpt lat="43.41911" lon="6.05155">
        <ele>302.79998779297</ele>
        <time>2017-05-31T12:15:27Z</time>
      </trkpt>
      <trkpt lat="43.41933" lon="6.05151">
        <ele>303.79998779297</ele>
        <time>2017-05-31T12:15:32Z</time>
      </trkpt>
      <trkpt lat="43.4194" lon="6.05147">
        <ele>304.20001220703</ele>
        <time>2017-05-31T12:15:34Z</time>
      </trkpt>
      <trkpt lat="43.41956" lon="6.05141">
        <ele>305</ele>
        <time>2017-05-31T12:15:39Z</time>
      </trkpt>
      <trkpt lat="43.41973" lon="6.05134">
        <ele>306</ele>
        <time>2017-05-31T12:15:45Z</time>
      </trkpt>
      <trkpt lat="43.41995" lon="6.05131">
        <ele>307</ele>
        <time>2017-05-31T12:15:52Z</time>
      </trkpt>
      <trkpt lat="43.42001" lon="6.0513">
        <ele>307.20001220703</ele>
        <time>2017-05-31T12:15:54Z</time>
      </trkpt>
      <trkpt lat="43.4203" lon="6.05121">
        <ele>307.60000610352</ele>
        <time>2017-05-31T12:16:03Z</time>
      </trkpt>
      <trkpt lat="43.42033" lon="6.05121">
        <ele>307.60000610352</ele>
        <time>2017-05-31T12:16:04Z</time>
      </trkpt>
      <trkpt lat="43.4205" lon="6.05117">
        <ele>308.20001220703</ele>
        <time>2017-05-31T12:16:10Z</time>
      </trkpt>
      <trkpt lat="43.4206" lon="6.05115">
        <ele>308.60000610352</ele>
        <time>2017-05-31T12:16:14Z</time>
      </trkpt>
      <trkpt lat="43.42074" lon="6.05114">
        <ele>309.20001220703</ele>
        <time>2017-05-31T12:16:19Z</time>
      </trkpt>
      <trkpt lat="43.42088" lon="6.05115">
        <ele>309.79998779297</ele>
        <time>2017-05-31T12:16:24Z</time>
      </trkpt>
      <trkpt lat="43.42096" lon="6.05117">
        <ele>310.39999389648</ele>
        <time>2017-05-31T12:16:27Z</time>
      </trkpt>
      <trkpt lat="43.42117" lon="6.05116">
        <ele>311.20001220703</ele>
        <time>2017-05-31T12:16:34Z</time>
      </trkpt>
      <trkpt lat="43.42121" lon="6.05117">
        <ele>311.60000610352</ele>
        <time>2017-05-31T12:16:36Z</time>
      </trkpt>
      <trkpt lat="43.42128" lon="6.0512">
        <ele>312.39999389648</ele>
        <time>2017-05-31T12:16:42Z</time>
      </trkpt>
      <trkpt lat="43.4213" lon="6.05122">
        <ele>312.39999389648</ele>
        <time>2017-05-31T12:16:44Z</time>
      </trkpt>
      <trkpt lat="43.42131" lon="6.05122">
        <ele>312.60000610352</ele>
        <time>2017-05-31T12:16:48Z</time>
      </trkpt>
      <trkpt lat="43.42131" lon="6.05122">
        <ele>312.79998779297</ele>
        <time>2017-05-31T12:16:52Z</time>
      </trkpt>
      <trkpt lat="43.42131" lon="6.05122">
        <ele>312.79998779297</ele>
        <time>2017-05-31T12:16:57Z</time>
      </trkpt>
      <trkpt lat="43.42131" lon="6.05122">
        <ele>312.60000610352</ele>
        <time>2017-05-31T12:17:03Z</time>
      </trkpt>
      <trkpt lat="43.42131" lon="6.05122">
        <ele>312.60000610352</ele>
        <time>2017-05-31T12:17:10Z</time>
      </trkpt>
      <trkpt lat="43.42131" lon="6.05123">
        <ele>312.20001220703</ele>
        <time>2017-05-31T12:17:20Z</time>
      </trkpt>
      <trkpt lat="43.42131" lon="6.05124">
        <ele>312</ele>
        <time>2017-05-31T12:17:34Z</time>
      </trkpt>
      <trkpt lat="43.42131" lon="6.05124">
        <ele>312</ele>
        <time>2017-05-31T12:17:36Z</time>
      </trkpt>
      <trkpt lat="43.42135" lon="6.05131">
        <ele>312.20001220703</ele>
        <time>2017-05-31T12:17:43Z</time>
      </trkpt>
      <trkpt lat="43.42136" lon="6.05133">
        <ele>312.20001220703</ele>
        <time>2017-05-31T12:17:44Z</time>
      </trkpt>
      <trkpt lat="43.42149" lon="6.05148">
        <ele>312.79998779297</ele>
        <time>2017-05-31T12:17:51Z</time>
      </trkpt>
      <trkpt lat="43.42155" lon="6.05154">
        <ele>313</ele>
        <time>2017-05-31T12:17:54Z</time>
      </trkpt>
      <trkpt lat="43.42158" lon="6.05156">
        <ele>313</ele>
        <time>2017-05-31T12:17:55Z</time>
      </trkpt>
      <trkpt lat="43.42179" lon="6.0517">
        <ele>313.39999389648</ele>
        <time>2017-05-31T12:18:05Z</time>
      </trkpt>
      <trkpt lat="43.42194" lon="6.05178">
        <ele>313.79998779297</ele>
        <time>2017-05-31T12:18:11Z</time>
      </trkpt>
      <trkpt lat="43.42203" lon="6.05183">
        <ele>314.39999389648</ele>
        <time>2017-05-31T12:18:15Z</time>
      </trkpt>
      <trkpt lat="43.42213" lon="6.05188">
        <ele>314.79998779297</ele>
        <time>2017-05-31T12:18:19Z</time>
      </trkpt>
      <trkpt lat="43.42223" lon="6.05194">
        <ele>315.39999389648</ele>
        <time>2017-05-31T12:18:23Z</time>
      </trkpt>
      <trkpt lat="43.42229" lon="6.05203">
        <ele>315.79998779297</ele>
        <time>2017-05-31T12:18:26Z</time>
      </trkpt>
      <trkpt lat="43.42231" lon="6.05206">
        <ele>315.79998779297</ele>
        <time>2017-05-31T12:18:27Z</time>
      </trkpt>
      <trkpt lat="43.42243" lon="6.05214">
        <ele>316.79998779297</ele>
        <time>2017-05-31T12:18:32Z</time>
      </trkpt>
      <trkpt lat="43.42252" lon="6.05214">
        <ele>317.20001220703</ele>
        <time>2017-05-31T12:18:35Z</time>
      </trkpt>
      <trkpt lat="43.42282" lon="6.05215">
        <ele>318.60000610352</ele>
        <time>2017-05-31T12:18:46Z</time>
      </trkpt>
      <trkpt lat="43.42301" lon="6.05221">
        <ele>319.20001220703</ele>
        <time>2017-05-31T12:18:54Z</time>
      </trkpt>
      <trkpt lat="43.42305" lon="6.05223">
        <ele>319.20001220703</ele>
        <time>2017-05-31T12:18:56Z</time>
      </trkpt>
      <trkpt lat="43.42316" lon="6.05225">
        <ele>320.20001220703</ele>
        <time>2017-05-31T12:19:01Z</time>
      </trkpt>
      <trkpt lat="43.42327" lon="6.05228">
        <ele>321.20001220703</ele>
        <time>2017-05-31T12:19:06Z</time>
      </trkpt>
      <trkpt lat="43.42332" lon="6.0523">
        <ele>321.79998779297</ele>
        <time>2017-05-31T12:19:09Z</time>
      </trkpt>
      <trkpt lat="43.42338" lon="6.05231">
        <ele>322.39999389648</ele>
        <time>2017-05-31T12:19:12Z</time>
      </trkpt>
      <trkpt lat="43.42346" lon="6.05233">
        <ele>323</ele>
        <time>2017-05-31T12:19:16Z</time>
      </trkpt>
      <trkpt lat="43.42351" lon="6.05233">
        <ele>323.60000610352</ele>
        <time>2017-05-31T12:19:18Z</time>
      </trkpt>
      <trkpt lat="43.42371" lon="6.05229">
        <ele>324.39999389648</ele>
        <time>2017-05-31T12:19:27Z</time>
      </trkpt>
      <trkpt lat="43.42386" lon="6.05228">
        <ele>325.60000610352</ele>
        <time>2017-05-31T12:19:35Z</time>
      </trkpt>
      <trkpt lat="43.4239" lon="6.05226">
        <ele>326</ele>
        <time>2017-05-31T12:19:37Z</time>
      </trkpt>
      <trkpt lat="43.42411" lon="6.05222">
        <ele>326.60000610352</ele>
        <time>2017-05-31T12:19:47Z</time>
      </trkpt>
      <trkpt lat="43.42413" lon="6.05222">
        <ele>326.79998779297</ele>
        <time>2017-05-31T12:19:48Z</time>
      </trkpt>
      <trkpt lat="43.42427" lon="6.05222">
        <ele>327</ele>
        <time>2017-05-31T12:19:54Z</time>
      </trkpt>
      <trkpt lat="43.42434" lon="6.05221">
        <ele>327.20001220703</ele>
        <time>2017-05-31T12:19:57Z</time>
      </trkpt>
      <trkpt lat="43.42455" lon="6.05218">
        <ele>327.79998779297</ele>
        <time>2017-05-31T12:20:07Z</time>
      </trkpt>
      <trkpt lat="43.42456" lon="6.05218">
        <ele>328</ele>
        <time>2017-05-31T12:20:08Z</time>
      </trkpt>
      <trkpt lat="43.4246" lon="6.05215">
        <ele>328.79998779297</ele>
        <time>2017-05-31T12:20:11Z</time>
      </trkpt>
      <trkpt lat="43.42461" lon="6.05215">
        <ele>329.39999389648</ele>
        <time>2017-05-31T12:20:13Z</time>
      </trkpt>
      <trkpt lat="43.42463" lon="6.05215">
        <ele>330</ele>
        <time>2017-05-31T12:20:15Z</time>
      </trkpt>
      <trkpt lat="43.42467" lon="6.05215">
        <ele>330.79998779297</ele>
        <time>2017-05-31T12:20:18Z</time>
      </trkpt>
      <trkpt lat="43.42469" lon="6.05215">
        <ele>331</ele>
        <time>2017-05-31T12:20:20Z</time>
      </trkpt>
      <trkpt lat="43.4248" lon="6.05216">
        <ele>331.39999389648</ele>
        <time>2017-05-31T12:20:28Z</time>
      </trkpt>
      <trkpt lat="43.42482" lon="6.05216">
        <ele>331.39999389648</ele>
        <time>2017-05-31T12:20:29Z</time>
      </trkpt>
      <trkpt lat="43.42488" lon="6.05218">
        <ele>331.20001220703</ele>
        <time>2017-05-31T12:20:32Z</time>
      </trkpt>
      <trkpt lat="43.42495" lon="6.05222">
        <ele>331</ele>
        <time>2017-05-31T12:20:35Z</time>
      </trkpt>
      <trkpt lat="43.42506" lon="6.05224">
        <ele>330.60000610352</ele>
        <time>2017-05-31T12:20:40Z</time>
      </trkpt>
      <trkpt lat="43.42528" lon="6.05224">
        <ele>331</ele>
        <time>2017-05-31T12:20:51Z</time>
      </trkpt>
      <trkpt lat="43.42543" lon="6.05221">
        <ele>332.39999389648</ele>
        <time>2017-05-31T12:20:58Z</time>
      </trkpt>
      <trkpt lat="43.42548" lon="6.05218">
        <ele>333.60000610352</ele>
        <time>2017-05-31T12:21:01Z</time>
      </trkpt>
      <trkpt lat="43.42556" lon="6.05217">
        <ele>334</ele>
        <time>2017-05-31T12:21:05Z</time>
      </trkpt>
      <trkpt lat="43.42569" lon="6.0522">
        <ele>333.79998779297</ele>
        <time>2017-05-31T12:21:11Z</time>
      </trkpt>
      <trkpt lat="43.42585" lon="6.05228">
        <ele>334</ele>
        <time>2017-05-31T12:21:19Z</time>
      </trkpt>
      <trkpt lat="43.42589" lon="6.05232">
        <ele>334</ele>
        <time>2017-05-31T12:21:21Z</time>
      </trkpt>
      <trkpt lat="43.42597" lon="6.05239">
        <ele>334.20001220703</ele>
        <time>2017-05-31T12:21:25Z</time>
      </trkpt>
      <trkpt lat="43.42606" lon="6.05248">
        <ele>334.39999389648</ele>
        <time>2017-05-31T12:21:31Z</time>
      </trkpt>
      <trkpt lat="43.42614" lon="6.05254">
        <ele>334.60000610352</ele>
        <time>2017-05-31T12:21:35Z</time>
      </trkpt>
      <trkpt lat="43.42622" lon="6.05258">
        <ele>335.60000610352</ele>
        <time>2017-05-31T12:21:40Z</time>
      </trkpt>
      <trkpt lat="43.42623" lon="6.05259">
        <ele>335.60000610352</ele>
        <time>2017-05-31T12:21:41Z</time>
      </trkpt>
      <trkpt lat="43.4263" lon="6.05264">
        <ele>336.39999389648</ele>
        <time>2017-05-31T12:21:50Z</time>
      </trkpt>
      <trkpt lat="43.4263" lon="6.05264">
        <ele>336.39999389648</ele>
        <time>2017-05-31T12:21:51Z</time>
      </trkpt>
      <trkpt lat="43.4263" lon="6.05265">
        <ele>336.39999389648</ele>
        <time>2017-05-31T12:21:54Z</time>
      </trkpt>
      <trkpt lat="43.4263" lon="6.05265">
        <ele>336.39999389648</ele>
        <time>2017-05-31T12:22:01Z</time>
      </trkpt>
      <trkpt lat="43.4263" lon="6.05265">
        <ele>336.20001220703</ele>
        <time>2017-05-31T12:22:12Z</time>
      </trkpt>
      <trkpt lat="43.4263" lon="6.05266">
        <ele>336</ele>
        <time>2017-05-31T12:22:32Z</time>
      </trkpt>
      <trkpt lat="43.42631" lon="6.05266">
        <ele>335.79998779297</ele>
        <time>2017-05-31T12:22:42Z</time>
      </trkpt>
      <trkpt lat="43.42632" lon="6.05266">
        <ele>336</ele>
        <time>2017-05-31T12:22:44Z</time>
      </trkpt>
      <trkpt lat="43.42635" lon="6.05264">
        <ele>336.20001220703</ele>
        <time>2017-05-31T12:22:47Z</time>
      </trkpt>
      <trkpt lat="43.42645" lon="6.05256">
        <ele>336.39999389648</ele>
        <time>2017-05-31T12:22:52Z</time>
      </trkpt>
      <trkpt lat="43.42663" lon="6.05241">
        <ele>337.20001220703</ele>
        <time>2017-05-31T12:23:03Z</time>
      </trkpt>
      <trkpt lat="43.42669" lon="6.05237">
        <ele>337.79998779297</ele>
        <time>2017-05-31T12:23:06Z</time>
      </trkpt>
      <trkpt lat="43.42675" lon="6.05233">
        <ele>339</ele>
        <time>2017-05-31T12:23:09Z</time>
      </trkpt>
      <trkpt lat="43.42681" lon="6.05229">
        <ele>339.60000610352</ele>
        <time>2017-05-31T12:23:12Z</time>
      </trkpt>
      <trkpt lat="43.42686" lon="6.05225">
        <ele>340</ele>
        <time>2017-05-31T12:23:15Z</time>
      </trkpt>
      <trkpt lat="43.42689" lon="6.05223">
        <ele>340</ele>
        <time>2017-05-31T12:23:17Z</time>
      </trkpt>
      <trkpt lat="43.42695" lon="6.05224">
        <ele>340.39999389648</ele>
        <time>2017-05-31T12:23:20Z</time>
      </trkpt>
      <trkpt lat="43.42698" lon="6.05223">
        <ele>341.20001220703</ele>
        <time>2017-05-31T12:23:22Z</time>
      </trkpt>
      <trkpt lat="43.42701" lon="6.05221">
        <ele>341.79998779297</ele>
        <time>2017-05-31T12:23:24Z</time>
      </trkpt>
      <trkpt lat="43.42703" lon="6.05219">
        <ele>342.20001220703</ele>
        <time>2017-05-31T12:23:26Z</time>
      </trkpt>
      <trkpt lat="43.42714" lon="6.05206">
        <ele>342.79998779297</ele>
        <time>2017-05-31T12:23:34Z</time>
      </trkpt>
      <trkpt lat="43.42718" lon="6.05199">
        <ele>343.39999389648</ele>
        <time>2017-05-31T12:23:38Z</time>
      </trkpt>
      <trkpt lat="43.42723" lon="6.05189">
        <ele>344.39999389648</ele>
        <time>2017-05-31T12:23:44Z</time>
      </trkpt>
      <trkpt lat="43.42729" lon="6.05173">
        <ele>345.79998779297</ele>
        <time>2017-05-31T12:23:53Z</time>
      </trkpt>
      <trkpt lat="43.42731" lon="6.05162">
        <ele>346.79998779297</ele>
        <time>2017-05-31T12:23:59Z</time>
      </trkpt>
      <trkpt lat="43.42735" lon="6.05158">
        <ele>347.39999389648</ele>
        <time>2017-05-31T12:24:03Z</time>
      </trkpt>
      <trkpt lat="43.42736" lon="6.05156">
        <ele>347.79998779297</ele>
        <time>2017-05-31T12:24:05Z</time>
      </trkpt>
      <trkpt lat="43.42746" lon="6.05141">
        <ele>348.79998779297</ele>
        <time>2017-05-31T12:24:14Z</time>
      </trkpt>
      <trkpt lat="43.42747" lon="6.05139">
        <ele>349</ele>
        <time>2017-05-31T12:24:15Z</time>
      </trkpt>
      <trkpt lat="43.42754" lon="6.05126">
        <ele>349.20001220703</ele>
        <time>2017-05-31T12:24:22Z</time>
      </trkpt>
      <trkpt lat="43.42755" lon="6.05122">
        <ele>349.20001220703</ele>
        <time>2017-05-31T12:24:24Z</time>
      </trkpt>
      <trkpt lat="43.42756" lon="6.05111">
        <ele>350</ele>
        <time>2017-05-31T12:24:29Z</time>
      </trkpt>
      <trkpt lat="43.42753" lon="6.05097">
        <ele>350.39999389648</ele>
        <time>2017-05-31T12:24:35Z</time>
      </trkpt>
      <trkpt lat="43.42751" lon="6.05081">
        <ele>351</ele>
        <time>2017-05-31T12:24:41Z</time>
      </trkpt>
      <trkpt lat="43.42752" lon="6.05072">
        <ele>351.60000610352</ele>
        <time>2017-05-31T12:24:45Z</time>
      </trkpt>
      <trkpt lat="43.42753" lon="6.05062">
        <ele>352.20001220703</ele>
        <time>2017-05-31T12:24:49Z</time>
      </trkpt>
      <trkpt lat="43.42759" lon="6.05046">
        <ele>353.20001220703</ele>
        <time>2017-05-31T12:24:56Z</time>
      </trkpt>
      <trkpt lat="43.42767" lon="6.05025">
        <ele>353.60000610352</ele>
        <time>2017-05-31T12:25:05Z</time>
      </trkpt>
      <trkpt lat="43.42768" lon="6.05004">
        <ele>354.20001220703</ele>
        <time>2017-05-31T12:25:13Z</time>
      </trkpt>
      <trkpt lat="43.42767" lon="6.04996">
        <ele>354.60000610352</ele>
        <time>2017-05-31T12:25:16Z</time>
      </trkpt>
      <trkpt lat="43.42764" lon="6.04971">
        <ele>355.20001220703</ele>
        <time>2017-05-31T12:25:26Z</time>
      </trkpt>
      <trkpt lat="43.42764" lon="6.04967">
        <ele>355.39999389648</ele>
        <time>2017-05-31T12:25:28Z</time>
      </trkpt>
      <trkpt lat="43.42762" lon="6.04947">
        <ele>356.20001220703</ele>
        <time>2017-05-31T12:25:36Z</time>
      </trkpt>
      <trkpt lat="43.42763" lon="6.04942">
        <ele>356.60000610352</ele>
        <time>2017-05-31T12:25:38Z</time>
      </trkpt>
      <trkpt lat="43.4276" lon="6.04925">
        <ele>357.60000610352</ele>
        <time>2017-05-31T12:25:45Z</time>
      </trkpt>
      <trkpt lat="43.4276" lon="6.04923">
        <ele>357.79998779297</ele>
        <time>2017-05-31T12:25:46Z</time>
      </trkpt>
      <trkpt lat="43.42757" lon="6.04909">
        <ele>358.60000610352</ele>
        <time>2017-05-31T12:25:52Z</time>
      </trkpt>
      <trkpt lat="43.42761" lon="6.04896">
        <ele>358.79998779297</ele>
        <time>2017-05-31T12:25:57Z</time>
      </trkpt>
      <trkpt lat="43.42772" lon="6.04877">
        <ele>360.20001220703</ele>
        <time>2017-05-31T12:26:06Z</time>
      </trkpt>
      <trkpt lat="43.42775" lon="6.04868">
        <ele>360.79998779297</ele>
        <time>2017-05-31T12:26:10Z</time>
      </trkpt>
      <trkpt lat="43.4278" lon="6.04852">
        <ele>361.60000610352</ele>
        <time>2017-05-31T12:26:16Z</time>
      </trkpt>
      <trkpt lat="43.42781" lon="6.04845">
        <ele>362</ele>
        <time>2017-05-31T12:26:19Z</time>
      </trkpt>
      <trkpt lat="43.42782" lon="6.04833">
        <ele>362.79998779297</ele>
        <time>2017-05-31T12:26:25Z</time>
      </trkpt>
      <trkpt lat="43.42783" lon="6.04832">
        <ele>363</ele>
        <time>2017-05-31T12:26:26Z</time>
      </trkpt>
      <trkpt lat="43.42783" lon="6.04831">
        <ele>363</ele>
        <time>2017-05-31T12:26:27Z</time>
      </trkpt>
      <trkpt lat="43.42783" lon="6.04831">
        <ele>363.39999389648</ele>
        <time>2017-05-31T12:26:32Z</time>
      </trkpt>
      <trkpt lat="43.42783" lon="6.0483">
        <ele>363.39999389648</ele>
        <time>2017-05-31T12:26:36Z</time>
      </trkpt>
      <trkpt lat="43.42783" lon="6.04831">
        <ele>363.39999389648</ele>
        <time>2017-05-31T12:26:40Z</time>
      </trkpt>
      <trkpt lat="43.42783" lon="6.0483">
        <ele>363.20001220703</ele>
        <time>2017-05-31T12:26:46Z</time>
      </trkpt>
      <trkpt lat="43.42783" lon="6.0483">
        <ele>363.20001220703</ele>
        <time>2017-05-31T12:26:48Z</time>
      </trkpt>
      <trkpt lat="43.42783" lon="6.0483">
        <ele>363</ele>
        <time>2017-05-31T12:26:52Z</time>
      </trkpt>
      <trkpt lat="43.42783" lon="6.0483">
        <ele>363</ele>
        <time>2017-05-31T12:26:55Z</time>
      </trkpt>
      <trkpt lat="43.42783" lon="6.0483">
        <ele>363</ele>
        <time>2017-05-31T12:27:03Z</time>
      </trkpt>
      <trkpt lat="43.42783" lon="6.0483">
        <ele>362.79998779297</ele>
        <time>2017-05-31T12:27:06Z</time>
      </trkpt>
      <trkpt lat="43.42783" lon="6.0483">
        <ele>363.39999389648</ele>
        <time>2017-05-31T12:27:10Z</time>
      </trkpt>
      <trkpt lat="43.42782" lon="6.0483">
        <ele>363.60000610352</ele>
        <time>2017-05-31T12:27:17Z</time>
      </trkpt>
      <trkpt lat="43.42781" lon="6.0483">
        <ele>362.60000610352</ele>
        <time>2017-05-31T12:27:37Z</time>
      </trkpt>
      <trkpt lat="43.42781" lon="6.0483">
        <ele>362.60000610352</ele>
        <time>2017-05-31T12:27:41Z</time>
      </trkpt>
      <trkpt lat="43.42781" lon="6.0483">
        <ele>362.60000610352</ele>
        <time>2017-05-31T12:27:48Z</time>
      </trkpt>
      <trkpt lat="43.42782" lon="6.04829">
        <ele>362.79998779297</ele>
        <time>2017-05-31T12:27:57Z</time>
      </trkpt>
      <trkpt lat="43.42782" lon="6.04828">
        <ele>362.60000610352</ele>
        <time>2017-05-31T12:28:07Z</time>
      </trkpt>
      <trkpt lat="43.42785" lon="6.04827">
        <ele>362.60000610352</ele>
        <time>2017-05-31T12:28:10Z</time>
      </trkpt>
      <trkpt lat="43.42788" lon="6.04827">
        <ele>362.39999389648</ele>
        <time>2017-05-31T12:28:12Z</time>
      </trkpt>
      <trkpt lat="43.42798" lon="6.04833">
        <ele>362.79998779297</ele>
        <time>2017-05-31T12:28:17Z</time>
      </trkpt>
      <trkpt lat="43.4281" lon="6.04844">
        <ele>363</ele>
        <time>2017-05-31T12:28:22Z</time>
      </trkpt>
      <trkpt lat="43.42818" lon="6.04849">
        <ele>363.20001220703</ele>
        <time>2017-05-31T12:28:25Z</time>
      </trkpt>
      <trkpt lat="43.42824" lon="6.0485">
        <ele>364.39999389648</ele>
        <time>2017-05-31T12:28:28Z</time>
      </trkpt>
      <trkpt lat="43.42828" lon="6.0485">
        <ele>365.39999389648</ele>
        <time>2017-05-31T12:28:30Z</time>
      </trkpt>
      <trkpt lat="43.42832" lon="6.0485">
        <ele>366.20001220703</ele>
        <time>2017-05-31T12:28:32Z</time>
      </trkpt>
      <trkpt lat="43.42836" lon="6.04852">
        <ele>367</ele>
        <time>2017-05-31T12:28:35Z</time>
      </trkpt>
      <trkpt lat="43.4284" lon="6.04853">
        <ele>367.20001220703</ele>
        <time>2017-05-31T12:28:37Z</time>
      </trkpt>
      <trkpt lat="43.42846" lon="6.04859">
        <ele>368.20001220703</ele>
        <time>2017-05-31T12:28:41Z</time>
      </trkpt>
      <trkpt lat="43.42851" lon="6.04865">
        <ele>368.60000610352</ele>
        <time>2017-05-31T12:28:44Z</time>
      </trkpt>
      <trkpt lat="43.42857" lon="6.04875">
        <ele>368.79998779297</ele>
        <time>2017-05-31T12:28:48Z</time>
      </trkpt>
      <trkpt lat="43.42874" lon="6.04905">
        <ele>369</ele>
        <time>2017-05-31T12:28:58Z</time>
      </trkpt>
      <trkpt lat="43.42896" lon="6.04923">
        <ele>368.79998779297</ele>
        <time>2017-05-31T12:29:08Z</time>
      </trkpt>
      <trkpt lat="43.42923" lon="6.04915">
        <ele>369.39999389648</ele>
        <time>2017-05-31T12:29:18Z</time>
      </trkpt>
      <trkpt lat="43.42928" lon="6.04913">
        <ele>369.60000610352</ele>
        <time>2017-05-31T12:29:20Z</time>
      </trkpt>
      <trkpt lat="43.42934" lon="6.04906">
        <ele>369.79998779297</ele>
        <time>2017-05-31T12:29:24Z</time>
      </trkpt>
      <trkpt lat="43.42935" lon="6.04901">
        <ele>369.60000610352</ele>
        <time>2017-05-31T12:29:27Z</time>
      </trkpt>
      <trkpt lat="43.42935" lon="6.04899">
        <ele>369.39999389648</ele>
        <time>2017-05-31T12:29:28Z</time>
      </trkpt>
      <trkpt lat="43.42935" lon="6.04899">
        <ele>369.20001220703</ele>
        <time>2017-05-31T12:29:33Z</time>
      </trkpt>
      <trkpt lat="43.42935" lon="6.04899">
        <ele>369</ele>
        <time>2017-05-31T12:29:37Z</time>
      </trkpt>
      <trkpt lat="43.42935" lon="6.04899">
        <ele>369</ele>
        <time>2017-05-31T12:29:38Z</time>
      </trkpt>
      <trkpt lat="43.42935" lon="6.04894">
        <ele>368.79998779297</ele>
        <time>2017-05-31T12:29:43Z</time>
      </trkpt>
      <trkpt lat="43.42937" lon="6.04886">
        <ele>368.60000610352</ele>
        <time>2017-05-31T12:29:45Z</time>
      </trkpt>
      <trkpt lat="43.42944" lon="6.04875">
        <ele>367.60000610352</ele>
        <time>2017-05-31T12:29:48Z</time>
      </trkpt>
      <trkpt lat="43.42947" lon="6.04873">
        <ele>367</ele>
        <time>2017-05-31T12:29:49Z</time>
      </trkpt>
      <trkpt lat="43.42957" lon="6.04866">
        <ele>365.79998779297</ele>
        <time>2017-05-31T12:29:52Z</time>
      </trkpt>
      <trkpt lat="43.42965" lon="6.04858">
        <ele>364.60000610352</ele>
        <time>2017-05-31T12:29:55Z</time>
      </trkpt>
      <trkpt lat="43.42973" lon="6.04848">
        <ele>363</ele>
        <time>2017-05-31T12:29:58Z</time>
      </trkpt>
      <trkpt lat="43.42979" lon="6.04842">
        <ele>361.60000610352</ele>
        <time>2017-05-31T12:30:00Z</time>
      </trkpt>
      <trkpt lat="43.42985" lon="6.04834">
        <ele>359.79998779297</ele>
        <time>2017-05-31T12:30:02Z</time>
      </trkpt>
      <trkpt lat="43.42987" lon="6.0483">
        <ele>359</ele>
        <time>2017-05-31T12:30:03Z</time>
      </trkpt>
      <trkpt lat="43.4299" lon="6.04825">
        <ele>358</ele>
        <time>2017-05-31T12:30:04Z</time>
      </trkpt>
      <trkpt lat="43.42994" lon="6.04812">
        <ele>357</ele>
        <time>2017-05-31T12:30:06Z</time>
      </trkpt>
      <trkpt lat="43.42997" lon="6.04803">
        <ele>356.79998779297</ele>
        <time>2017-05-31T12:30:08Z</time>
      </trkpt>
      <trkpt lat="43.43007" lon="6.04789">
        <ele>355.79998779297</ele>
        <time>2017-05-31T12:30:12Z</time>
      </trkpt>
      <trkpt lat="43.43011" lon="6.04785">
        <ele>354.60000610352</ele>
        <time>2017-05-31T12:30:14Z</time>
      </trkpt>
      <trkpt lat="43.43017" lon="6.04781">
        <ele>353.20001220703</ele>
        <time>2017-05-31T12:30:16Z</time>
      </trkpt>
      <trkpt lat="43.43023" lon="6.04777">
        <ele>351.60000610352</ele>
        <time>2017-05-31T12:30:18Z</time>
      </trkpt>
      <trkpt lat="43.43027" lon="6.04776">
        <ele>350</ele>
        <time>2017-05-31T12:30:20Z</time>
      </trkpt>
      <trkpt lat="43.43028" lon="6.04777">
        <ele>348.60000610352</ele>
        <time>2017-05-31T12:30:23Z</time>
      </trkpt>
      <trkpt lat="43.43028" lon="6.04777">
        <ele>348</ele>
        <time>2017-05-31T12:30:28Z</time>
      </trkpt>
      <trkpt lat="43.43027" lon="6.04777">
        <ele>347.60000610352</ele>
        <time>2017-05-31T12:30:36Z</time>
      </trkpt>
      <trkpt lat="43.43027" lon="6.04777">
        <ele>347.60000610352</ele>
        <time>2017-05-31T12:30:38Z</time>
      </trkpt>
      <trkpt lat="43.43026" lon="6.04778">
        <ele>348.60000610352</ele>
        <time>2017-05-31T12:30:45Z</time>
      </trkpt>
      <trkpt lat="43.43026" lon="6.04778">
        <ele>348.60000610352</ele>
        <time>2017-05-31T12:30:48Z</time>
      </trkpt>
      <trkpt lat="43.43024" lon="6.04779">
        <ele>347.60000610352</ele>
        <time>2017-05-31T12:30:56Z</time>
      </trkpt>
      <trkpt lat="43.43024" lon="6.0478">
        <ele>347.60000610352</ele>
        <time>2017-05-31T12:30:58Z</time>
      </trkpt>
      <trkpt lat="43.43024" lon="6.04781">
        <ele>347.60000610352</ele>
        <time>2017-05-31T12:31:07Z</time>
      </trkpt>
      <trkpt lat="43.43024" lon="6.04781">
        <ele>347.60000610352</ele>
        <time>2017-05-31T12:31:08Z</time>
      </trkpt>
      <trkpt lat="43.43024" lon="6.04784">
        <ele>347.39999389648</ele>
        <time>2017-05-31T12:31:11Z</time>
      </trkpt>
      <trkpt lat="43.43024" lon="6.04788">
        <ele>347.39999389648</ele>
        <time>2017-05-31T12:31:13Z</time>
      </trkpt>
      <trkpt lat="43.43023" lon="6.04807">
        <ele>347</ele>
        <time>2017-05-31T12:31:18Z</time>
      </trkpt>
      <trkpt lat="43.43023" lon="6.04822">
        <ele>346.60000610352</ele>
        <time>2017-05-31T12:31:21Z</time>
      </trkpt>
      <trkpt lat="43.43023" lon="6.04829">
        <ele>346.39999389648</ele>
        <time>2017-05-31T12:31:22Z</time>
      </trkpt>
      <trkpt lat="43.43023" lon="6.04841">
        <ele>345.79998779297</ele>
        <time>2017-05-31T12:31:24Z</time>
      </trkpt>
      <trkpt lat="43.43026" lon="6.04852">
        <ele>345.20001220703</ele>
        <time>2017-05-31T12:31:26Z</time>
      </trkpt>
      <trkpt lat="43.43031" lon="6.04863">
        <ele>344.39999389648</ele>
        <time>2017-05-31T12:31:28Z</time>
      </trkpt>
      <trkpt lat="43.43038" lon="6.04874">
        <ele>344</ele>
        <time>2017-05-31T12:31:30Z</time>
      </trkpt>
      <trkpt lat="43.43051" lon="6.04899">
        <ele>342.79998779297</ele>
        <time>2017-05-31T12:31:34Z</time>
      </trkpt>
      <trkpt lat="43.43058" lon="6.04914">
        <ele>342</ele>
        <time>2017-05-31T12:31:36Z</time>
      </trkpt>
      <trkpt lat="43.43061" lon="6.04921">
        <ele>341.39999389648</ele>
        <time>2017-05-31T12:31:37Z</time>
      </trkpt>
      <trkpt lat="43.43074" lon="6.04945">
        <ele>340</ele>
        <time>2017-05-31T12:31:40Z</time>
      </trkpt>
      <trkpt lat="43.4308" lon="6.04953">
        <ele>339.60000610352</ele>
        <time>2017-05-31T12:31:41Z</time>
      </trkpt>
      <trkpt lat="43.4309" lon="6.04968">
        <ele>338.79998779297</ele>
        <time>2017-05-31T12:31:43Z</time>
      </trkpt>
      <trkpt lat="43.43102" lon="6.04983">
        <ele>337.79998779297</ele>
        <time>2017-05-31T12:31:45Z</time>
      </trkpt>
      <trkpt lat="43.43106" lon="6.04991">
        <ele>337</ele>
        <time>2017-05-31T12:31:46Z</time>
      </trkpt>
      <trkpt lat="43.43109" lon="6.04998">
        <ele>336.39999389648</ele>
        <time>2017-05-31T12:31:47Z</time>
      </trkpt>
      <trkpt lat="43.43112" lon="6.05005">
        <ele>335.60000610352</ele>
        <time>2017-05-31T12:31:48Z</time>
      </trkpt>
      <trkpt lat="43.43124" lon="6.05024">
        <ele>334.39999389648</ele>
        <time>2017-05-31T12:31:51Z</time>
      </trkpt>
      <trkpt lat="43.43132" lon="6.05037">
        <ele>333.39999389648</ele>
        <time>2017-05-31T12:31:53Z</time>
      </trkpt>
      <trkpt lat="43.4314" lon="6.05047">
        <ele>332</ele>
        <time>2017-05-31T12:31:55Z</time>
      </trkpt>
      <trkpt lat="43.43149" lon="6.05055">
        <ele>331.39999389648</ele>
        <time>2017-05-31T12:31:57Z</time>
      </trkpt>
      <trkpt lat="43.43154" lon="6.05058">
        <ele>331</ele>
        <time>2017-05-31T12:31:58Z</time>
      </trkpt>
      <trkpt lat="43.43167" lon="6.05066">
        <ele>330.20001220703</ele>
        <time>2017-05-31T12:32:01Z</time>
      </trkpt>
      <trkpt lat="43.43172" lon="6.05068">
        <ele>329.79998779297</ele>
        <time>2017-05-31T12:32:02Z</time>
      </trkpt>
      <trkpt lat="43.43188" lon="6.05072">
        <ele>328.60000610352</ele>
        <time>2017-05-31T12:32:05Z</time>
      </trkpt>
      <trkpt lat="43.43194" lon="6.05073">
        <ele>328</ele>
        <time>2017-05-31T12:32:06Z</time>
      </trkpt>
      <trkpt lat="43.43199" lon="6.05075">
        <ele>327.39999389648</ele>
        <time>2017-05-31T12:32:07Z</time>
      </trkpt>
      <trkpt lat="43.43204" lon="6.05076">
        <ele>326.79998779297</ele>
        <time>2017-05-31T12:32:08Z</time>
      </trkpt>
      <trkpt lat="43.43209" lon="6.05076">
        <ele>326.20001220703</ele>
        <time>2017-05-31T12:32:09Z</time>
      </trkpt>
      <trkpt lat="43.4322" lon="6.05075">
        <ele>325.79998779297</ele>
        <time>2017-05-31T12:32:11Z</time>
      </trkpt>
      <trkpt lat="43.4323" lon="6.05072">
        <ele>325</ele>
        <time>2017-05-31T12:32:13Z</time>
      </trkpt>
      <trkpt lat="43.43255" lon="6.05072">
        <ele>323.79998779297</ele>
        <time>2017-05-31T12:32:17Z</time>
      </trkpt>
      <trkpt lat="43.43268" lon="6.05072">
        <ele>323.20001220703</ele>
        <time>2017-05-31T12:32:19Z</time>
      </trkpt>
      <trkpt lat="43.43274" lon="6.05073">
        <ele>322.60000610352</ele>
        <time>2017-05-31T12:32:20Z</time>
      </trkpt>
      <trkpt lat="43.4328" lon="6.05076">
        <ele>322.20001220703</ele>
        <time>2017-05-31T12:32:21Z</time>
      </trkpt>
      <trkpt lat="43.43292" lon="6.05085">
        <ele>321.39999389648</ele>
        <time>2017-05-31T12:32:23Z</time>
      </trkpt>
      <trkpt lat="43.43305" lon="6.05097">
        <ele>320.79998779297</ele>
        <time>2017-05-31T12:32:25Z</time>
      </trkpt>
      <trkpt lat="43.43311" lon="6.05104">
        <ele>320.20001220703</ele>
        <time>2017-05-31T12:32:26Z</time>
      </trkpt>
      <trkpt lat="43.43317" lon="6.0511">
        <ele>319.60000610352</ele>
        <time>2017-05-31T12:32:27Z</time>
      </trkpt>
      <trkpt lat="43.43322" lon="6.05117">
        <ele>319.20001220703</ele>
        <time>2017-05-31T12:32:28Z</time>
      </trkpt>
      <trkpt lat="43.43333" lon="6.05127">
        <ele>318.39999389648</ele>
        <time>2017-05-31T12:32:30Z</time>
      </trkpt>
      <trkpt lat="43.4334" lon="6.05131">
        <ele>318</ele>
        <time>2017-05-31T12:32:31Z</time>
      </trkpt>
      <trkpt lat="43.43346" lon="6.05134">
        <ele>317.39999389648</ele>
        <time>2017-05-31T12:32:32Z</time>
      </trkpt>
      <trkpt lat="43.43352" lon="6.05136">
        <ele>316.79998779297</ele>
        <time>2017-05-31T12:32:33Z</time>
      </trkpt>
      <trkpt lat="43.43358" lon="6.05138">
        <ele>316.20001220703</ele>
        <time>2017-05-31T12:32:34Z</time>
      </trkpt>
      <trkpt lat="43.43371" lon="6.05139">
        <ele>315.60000610352</ele>
        <time>2017-05-31T12:32:36Z</time>
      </trkpt>
      <trkpt lat="43.4338" lon="6.05138">
        <ele>315.39999389648</ele>
        <time>2017-05-31T12:32:38Z</time>
      </trkpt>
      <trkpt lat="43.43386" lon="6.05133">
        <ele>316.60000610352</ele>
        <time>2017-05-31T12:32:43Z</time>
      </trkpt>
      <trkpt lat="43.43388" lon="6.05131">
        <ele>317</ele>
        <time>2017-05-31T12:32:45Z</time>
      </trkpt>
      <trkpt lat="43.4339" lon="6.05128">
        <ele>317.20001220703</ele>
        <time>2017-05-31T12:32:48Z</time>
      </trkpt>
      <trkpt lat="43.43394" lon="6.05122">
        <ele>317.20001220703</ele>
        <time>2017-05-31T12:32:54Z</time>
      </trkpt>
      <trkpt lat="43.43396" lon="6.05118">
        <ele>317.20001220703</ele>
        <time>2017-05-31T12:32:58Z</time>
      </trkpt>
      <trkpt lat="43.43404" lon="6.051">
        <ele>317.20001220703</ele>
        <time>2017-05-31T12:33:08Z</time>
      </trkpt>
      <trkpt lat="43.43413" lon="6.05062">
        <ele>316.60000610352</ele>
        <time>2017-05-31T12:33:18Z</time>
      </trkpt>
      <trkpt lat="43.4342" lon="6.05014">
        <ele>315.20001220703</ele>
        <time>2017-05-31T12:33:25Z</time>
      </trkpt>
      <trkpt lat="43.43425" lon="6.04991">
        <ele>314</ele>
        <time>2017-05-31T12:33:28Z</time>
      </trkpt>
      <trkpt lat="43.43429" lon="6.04969">
        <ele>313</ele>
        <time>2017-05-31T12:33:31Z</time>
      </trkpt>
      <trkpt lat="43.43433" lon="6.04926">
        <ele>312.39999389648</ele>
        <time>2017-05-31T12:33:37Z</time>
      </trkpt>
      <trkpt lat="43.43436" lon="6.0488">
        <ele>313</ele>
        <time>2017-05-31T12:33:45Z</time>
      </trkpt>
      <trkpt lat="43.43436" lon="6.04863">
        <ele>313.20001220703</ele>
        <time>2017-05-31T12:33:48Z</time>
      </trkpt>
      <trkpt lat="43.43437" lon="6.04835">
        <ele>314.20001220703</ele>
        <time>2017-05-31T12:33:53Z</time>
      </trkpt>
      <trkpt lat="43.43437" lon="6.04806">
        <ele>314.20001220703</ele>
        <time>2017-05-31T12:33:58Z</time>
      </trkpt>
      <trkpt lat="43.43442" lon="6.04751">
        <ele>315</ele>
        <time>2017-05-31T12:34:08Z</time>
      </trkpt>
      <trkpt lat="43.43443" lon="6.04735">
        <ele>315.20001220703</ele>
        <time>2017-05-31T12:34:11Z</time>
      </trkpt>
      <trkpt lat="43.43445" lon="6.04699">
        <ele>316</ele>
        <time>2017-05-31T12:34:18Z</time>
      </trkpt>
      <trkpt lat="43.43453" lon="6.0465">
        <ele>316.20001220703</ele>
        <time>2017-05-31T12:34:27Z</time>
      </trkpt>
      <trkpt lat="43.43459" lon="6.04608">
        <ele>316.79998779297</ele>
        <time>2017-05-31T12:34:35Z</time>
      </trkpt>
      <trkpt lat="43.43462" lon="6.04592">
        <ele>317.39999389648</ele>
        <time>2017-05-31T12:34:38Z</time>
      </trkpt>
      <trkpt lat="43.4347" lon="6.04544">
        <ele>317.60000610352</ele>
        <time>2017-05-31T12:34:47Z</time>
      </trkpt>
      <trkpt lat="43.43473" lon="6.04539">
        <ele>317.39999389648</ele>
        <time>2017-05-31T12:34:48Z</time>
      </trkpt>
      <trkpt lat="43.43486" lon="6.04509">
        <ele>317.79998779297</ele>
        <time>2017-05-31T12:34:54Z</time>
      </trkpt>
      <trkpt lat="43.43491" lon="6.04484">
        <ele>317.60000610352</ele>
        <time>2017-05-31T12:34:58Z</time>
      </trkpt>
      <trkpt lat="43.43492" lon="6.04459">
        <ele>317.20001220703</ele>
        <time>2017-05-31T12:35:02Z</time>
      </trkpt>
      <trkpt lat="43.43491" lon="6.04447">
        <ele>317</ele>
        <time>2017-05-31T12:35:04Z</time>
      </trkpt>
      <trkpt lat="43.43493" lon="6.04436">
        <ele>316.79998779297</ele>
        <time>2017-05-31T12:35:06Z</time>
      </trkpt>
      <trkpt lat="43.43491" lon="6.04418">
        <ele>316.79998779297</ele>
        <time>2017-05-31T12:35:09Z</time>
      </trkpt>
      <trkpt lat="43.43489" lon="6.04395">
        <ele>317.60000610352</ele>
        <time>2017-05-31T12:35:13Z</time>
      </trkpt>
      <trkpt lat="43.43491" lon="6.04368">
        <ele>318.20001220703</ele>
        <time>2017-05-31T12:35:18Z</time>
      </trkpt>
      <trkpt lat="43.43491" lon="6.04362">
        <ele>318.20001220703</ele>
        <time>2017-05-31T12:35:19Z</time>
      </trkpt>
      <trkpt lat="43.43497" lon="6.04303">
        <ele>318.20001220703</ele>
        <time>2017-05-31T12:35:29Z</time>
      </trkpt>
      <trkpt lat="43.43505" lon="6.04266">
        <ele>317.20001220703</ele>
        <time>2017-05-31T12:35:35Z</time>
      </trkpt>
      <trkpt lat="43.43513" lon="6.04249">
        <ele>317</ele>
        <time>2017-05-31T12:35:38Z</time>
      </trkpt>
      <trkpt lat="43.43521" lon="6.0424">
        <ele>317</ele>
        <time>2017-05-31T12:35:40Z</time>
      </trkpt>
      <trkpt lat="43.4353" lon="6.04233">
        <ele>316.79998779297</ele>
        <time>2017-05-31T12:35:42Z</time>
      </trkpt>
      <trkpt lat="43.43542" lon="6.04213">
        <ele>316.39999389648</ele>
        <time>2017-05-31T12:35:46Z</time>
      </trkpt>
      <trkpt lat="43.43545" lon="6.042">
        <ele>316.39999389648</ele>
        <time>2017-05-31T12:35:48Z</time>
      </trkpt>
      <trkpt lat="43.43545" lon="6.04193">
        <ele>316.60000610352</ele>
        <time>2017-05-31T12:35:49Z</time>
      </trkpt>
      <trkpt lat="43.43543" lon="6.04187">
        <ele>316.60000610352</ele>
        <time>2017-05-31T12:35:50Z</time>
      </trkpt>
      <trkpt lat="43.43539" lon="6.04171">
        <ele>317.20001220703</ele>
        <time>2017-05-31T12:35:53Z</time>
      </trkpt>
      <trkpt lat="43.43539" lon="6.0416">
        <ele>317.60000610352</ele>
        <time>2017-05-31T12:35:55Z</time>
      </trkpt>
      <trkpt lat="43.43541" lon="6.04149">
        <ele>318</ele>
        <time>2017-05-31T12:35:57Z</time>
      </trkpt>
      <trkpt lat="43.43555" lon="6.04119">
        <ele>319.20001220703</ele>
        <time>2017-05-31T12:36:03Z</time>
      </trkpt>
      <trkpt lat="43.43559" lon="6.04107">
        <ele>319.20001220703</ele>
        <time>2017-05-31T12:36:05Z</time>
      </trkpt>
      <trkpt lat="43.43567" lon="6.0408">
        <ele>319</ele>
        <time>2017-05-31T12:36:10Z</time>
      </trkpt>
      <trkpt lat="43.43585" lon="6.04042">
        <ele>319.39999389648</ele>
        <time>2017-05-31T12:36:19Z</time>
      </trkpt>
      <trkpt lat="43.4359" lon="6.04033">
        <ele>320.60000610352</ele>
        <time>2017-05-31T12:36:22Z</time>
      </trkpt>
      <trkpt lat="43.43597" lon="6.04019">
        <ele>321.60000610352</ele>
        <time>2017-05-31T12:36:27Z</time>
      </trkpt>
      <trkpt lat="43.43603" lon="6.04008">
        <ele>322.20001220703</ele>
        <time>2017-05-31T12:36:31Z</time>
      </trkpt>
      <trkpt lat="43.43607" lon="6.03999">
        <ele>322.60000610352</ele>
        <time>2017-05-31T12:36:35Z</time>
      </trkpt>
      <trkpt lat="43.43611" lon="6.03984">
        <ele>323.20001220703</ele>
        <time>2017-05-31T12:36:41Z</time>
      </trkpt>
      <trkpt lat="43.43611" lon="6.03952">
        <ele>322</ele>
        <time>2017-05-31T12:36:46Z</time>
      </trkpt>
      <trkpt lat="43.43609" lon="6.03944">
        <ele>321.20001220703</ele>
        <time>2017-05-31T12:36:47Z</time>
      </trkpt>
      <trkpt lat="43.43607" lon="6.03936">
        <ele>320.39999389648</ele>
        <time>2017-05-31T12:36:48Z</time>
      </trkpt>
      <trkpt lat="43.43604" lon="6.03928">
        <ele>320</ele>
        <time>2017-05-31T12:36:49Z</time>
      </trkpt>
      <trkpt lat="43.43599" lon="6.03916">
        <ele>319.60000610352</ele>
        <time>2017-05-31T12:36:51Z</time>
      </trkpt>
      <trkpt lat="43.43593" lon="6.03873">
        <ele>321</ele>
        <time>2017-05-31T12:36:59Z</time>
      </trkpt>
      <trkpt lat="43.43592" lon="6.0387">
        <ele>321.20001220703</ele>
        <time>2017-05-31T12:37:00Z</time>
      </trkpt>
      <trkpt lat="43.43592" lon="6.03866">
        <ele>321.39999389648</ele>
        <time>2017-05-31T12:37:01Z</time>
      </trkpt>
      <trkpt lat="43.43592" lon="6.03854">
        <ele>321.60000610352</ele>
        <time>2017-05-31T12:37:04Z</time>
      </trkpt>
      <trkpt lat="43.43591" lon="6.03843">
        <ele>322.60000610352</ele>
        <time>2017-05-31T12:37:07Z</time>
      </trkpt>
      <trkpt lat="43.43589" lon="6.03831">
        <ele>323</ele>
        <time>2017-05-31T12:37:10Z</time>
      </trkpt>
      <trkpt lat="43.43584" lon="6.03812">
        <ele>323.60000610352</ele>
        <time>2017-05-31T12:37:15Z</time>
      </trkpt>
      <trkpt lat="43.43576" lon="6.03795">
        <ele>324.39999389648</ele>
        <time>2017-05-31T12:37:21Z</time>
      </trkpt>
      <trkpt lat="43.43574" lon="6.03774">
        <ele>324.20001220703</ele>
        <time>2017-05-31T12:37:27Z</time>
      </trkpt>
      <trkpt lat="43.43574" lon="6.03768">
        <ele>324</ele>
        <time>2017-05-31T12:37:29Z</time>
      </trkpt>
      <trkpt lat="43.43573" lon="6.03756">
        <ele>323.79998779297</ele>
        <time>2017-05-31T12:37:32Z</time>
      </trkpt>
      <trkpt lat="43.43575" lon="6.03708">
        <ele>322.60000610352</ele>
        <time>2017-05-31T12:37:40Z</time>
      </trkpt>
      <trkpt lat="43.43576" lon="6.03695">
        <ele>322.60000610352</ele>
        <time>2017-05-31T12:37:42Z</time>
      </trkpt>
      <trkpt lat="43.43578" lon="6.03682">
        <ele>322.60000610352</ele>
        <time>2017-05-31T12:37:44Z</time>
      </trkpt>
      <trkpt lat="43.43581" lon="6.03656">
        <ele>322.60000610352</ele>
        <time>2017-05-31T12:37:49Z</time>
      </trkpt>
      <trkpt lat="43.43584" lon="6.03642">
        <ele>322.39999389648</ele>
        <time>2017-05-31T12:37:52Z</time>
      </trkpt>
      <trkpt lat="43.43586" lon="6.03631">
        <ele>322.20001220703</ele>
        <time>2017-05-31T12:37:54Z</time>
      </trkpt>
      <trkpt lat="43.43586" lon="6.03599">
        <ele>322.39999389648</ele>
        <time>2017-05-31T12:38:00Z</time>
      </trkpt>
      <trkpt lat="43.43586" lon="6.03587">
        <ele>322.39999389648</ele>
        <time>2017-05-31T12:38:02Z</time>
      </trkpt>
      <trkpt lat="43.43605" lon="6.03543">
        <ele>322.39999389648</ele>
        <time>2017-05-31T12:38:12Z</time>
      </trkpt>
      <trkpt lat="43.43615" lon="6.03495">
        <ele>322.39999389648</ele>
        <time>2017-05-31T12:38:21Z</time>
      </trkpt>
      <trkpt lat="43.43623" lon="6.03467">
        <ele>323.60000610352</ele>
        <time>2017-05-31T12:38:27Z</time>
      </trkpt>
      <trkpt lat="43.43629" lon="6.0345">
        <ele>324.20001220703</ele>
        <time>2017-05-31T12:38:31Z</time>
      </trkpt>
      <trkpt lat="43.43629" lon="6.03434">
        <ele>324.60000610352</ele>
        <time>2017-05-31T12:38:34Z</time>
      </trkpt>
      <trkpt lat="43.43629" lon="6.03416">
        <ele>325.60000610352</ele>
        <time>2017-05-31T12:38:38Z</time>
      </trkpt>
      <trkpt lat="43.43629" lon="6.03411">
        <ele>325.60000610352</ele>
        <time>2017-05-31T12:38:39Z</time>
      </trkpt>
      <trkpt lat="43.43629" lon="6.03394">
        <ele>325.60000610352</ele>
        <time>2017-05-31T12:38:42Z</time>
      </trkpt>
      <trkpt lat="43.43633" lon="6.03383">
        <ele>325.20001220703</ele>
        <time>2017-05-31T12:38:44Z</time>
      </trkpt>
      <trkpt lat="43.43644" lon="6.03362">
        <ele>324.60000610352</ele>
        <time>2017-05-31T12:38:49Z</time>
      </trkpt>
      <trkpt lat="43.43648" lon="6.03353">
        <ele>324.60000610352</ele>
        <time>2017-05-31T12:38:51Z</time>
      </trkpt>
      <trkpt lat="43.43658" lon="6.03331">
        <ele>324.39999389648</ele>
        <time>2017-05-31T12:38:56Z</time>
      </trkpt>
      <trkpt lat="43.43667" lon="6.03318">
        <ele>323.79998779297</ele>
        <time>2017-05-31T12:38:59Z</time>
      </trkpt>
      <trkpt lat="43.4367" lon="6.03309">
        <ele>323.60000610352</ele>
        <time>2017-05-31T12:39:01Z</time>
      </trkpt>
      <trkpt lat="43.43671" lon="6.03302">
        <ele>324</ele>
        <time>2017-05-31T12:39:03Z</time>
      </trkpt>
      <trkpt lat="43.43687" lon="6.03283">
        <ele>324</ele>
        <time>2017-05-31T12:39:11Z</time>
      </trkpt>
      <trkpt lat="43.43694" lon="6.03252">
        <ele>324.79998779297</ele>
        <time>2017-05-31T12:39:19Z</time>
      </trkpt>
      <trkpt lat="43.43693" lon="6.03237">
        <ele>325.20001220703</ele>
        <time>2017-05-31T12:39:22Z</time>
      </trkpt>
      <trkpt lat="43.43695" lon="6.03193">
        <ele>326</ele>
        <time>2017-05-31T12:39:32Z</time>
      </trkpt>
      <trkpt lat="43.43697" lon="6.0319">
        <ele>326</ele>
        <time>2017-05-31T12:39:33Z</time>
      </trkpt>
      <trkpt lat="43.43696" lon="6.03146">
        <ele>326.20001220703</ele>
        <time>2017-05-31T12:39:42Z</time>
      </trkpt>
      <trkpt lat="43.43696" lon="6.03103">
        <ele>326</ele>
        <time>2017-05-31T12:39:51Z</time>
      </trkpt>
      <trkpt lat="43.43705" lon="6.03073">
        <ele>325.79998779297</ele>
        <time>2017-05-31T12:39:57Z</time>
      </trkpt>
      <trkpt lat="43.43711" lon="6.03065">
        <ele>325.79998779297</ele>
        <time>2017-05-31T12:39:59Z</time>
      </trkpt>
      <trkpt lat="43.43721" lon="6.03056">
        <ele>325.79998779297</ele>
        <time>2017-05-31T12:40:02Z</time>
      </trkpt>
      <trkpt lat="43.43732" lon="6.03047">
        <ele>325.60000610352</ele>
        <time>2017-05-31T12:40:05Z</time>
      </trkpt>
      <trkpt lat="43.43745" lon="6.0304">
        <ele>324.60000610352</ele>
        <time>2017-05-31T12:40:08Z</time>
      </trkpt>
      <trkpt lat="43.43756" lon="6.03035">
        <ele>324</ele>
        <time>2017-05-31T12:40:10Z</time>
      </trkpt>
      <trkpt lat="43.43763" lon="6.03027">
        <ele>323.39999389648</ele>
        <time>2017-05-31T12:40:12Z</time>
      </trkpt>
      <trkpt lat="43.43769" lon="6.03015">
        <ele>323</ele>
        <time>2017-05-31T12:40:14Z</time>
      </trkpt>
      <trkpt lat="43.43787" lon="6.02974">
        <ele>323</ele>
        <time>2017-05-31T12:40:23Z</time>
      </trkpt>
      <trkpt lat="43.43787" lon="6.0296">
        <ele>323.20001220703</ele>
        <time>2017-05-31T12:40:27Z</time>
      </trkpt>
      <trkpt lat="43.43794" lon="6.02937">
        <ele>323.60000610352</ele>
        <time>2017-05-31T12:40:33Z</time>
      </trkpt>
      <trkpt lat="43.43797" lon="6.02913">
        <ele>324</ele>
        <time>2017-05-31T12:40:39Z</time>
      </trkpt>
      <trkpt lat="43.43795" lon="6.02896">
        <ele>324.20001220703</ele>
        <time>2017-05-31T12:40:43Z</time>
      </trkpt>
      <trkpt lat="43.43795" lon="6.02887">
        <ele>324.60000610352</ele>
        <time>2017-05-31T12:40:45Z</time>
      </trkpt>
      <trkpt lat="43.43801" lon="6.0286">
        <ele>325.20001220703</ele>
        <time>2017-05-31T12:40:51Z</time>
      </trkpt>
      <trkpt lat="43.43805" lon="6.02846">
        <ele>325.20001220703</ele>
        <time>2017-05-31T12:40:54Z</time>
      </trkpt>
      <trkpt lat="43.43811" lon="6.02827">
        <ele>324.79998779297</ele>
        <time>2017-05-31T12:40:58Z</time>
      </trkpt>
      <trkpt lat="43.43805" lon="6.02808">
        <ele>325.60000610352</ele>
        <time>2017-05-31T12:41:03Z</time>
      </trkpt>
      <trkpt lat="43.43795" lon="6.02795">
        <ele>326.60000610352</ele>
        <time>2017-05-31T12:41:08Z</time>
      </trkpt>
      <trkpt lat="43.43789" lon="6.02783">
        <ele>327.39999389648</ele>
        <time>2017-05-31T12:41:12Z</time>
      </trkpt>
      <trkpt lat="43.43788" lon="6.02777">
        <ele>327.39999389648</ele>
        <time>2017-05-31T12:41:14Z</time>
      </trkpt>
      <trkpt lat="43.4379" lon="6.02747">
        <ele>327.79998779297</ele>
        <time>2017-05-31T12:41:22Z</time>
      </trkpt>
      <trkpt lat="43.43787" lon="6.02734">
        <ele>327.79998779297</ele>
        <time>2017-05-31T12:41:25Z</time>
      </trkpt>
      <trkpt lat="43.43782" lon="6.02721">
        <ele>328.20001220703</ele>
        <time>2017-05-31T12:41:29Z</time>
      </trkpt>
      <trkpt lat="43.43768" lon="6.02713">
        <ele>328.79998779297</ele>
        <time>2017-05-31T12:41:35Z</time>
      </trkpt>
      <trkpt lat="43.43766" lon="6.0271">
        <ele>329</ele>
        <time>2017-05-31T12:41:36Z</time>
      </trkpt>
      <trkpt lat="43.43764" lon="6.02706">
        <ele>329.39999389648</ele>
        <time>2017-05-31T12:41:39Z</time>
      </trkpt>
      <trkpt lat="43.43775" lon="6.02698">
        <ele>329.79998779297</ele>
        <time>2017-05-31T12:41:46Z</time>
      </trkpt>
      <trkpt lat="43.43777" lon="6.02697">
        <ele>329.79998779297</ele>
        <time>2017-05-31T12:41:47Z</time>
      </trkpt>
      <trkpt lat="43.43781" lon="6.02692">
        <ele>329.79998779297</ele>
        <time>2017-05-31T12:41:49Z</time>
      </trkpt>
      <trkpt lat="43.43789" lon="6.02683">
        <ele>329.60000610352</ele>
        <time>2017-05-31T12:41:53Z</time>
      </trkpt>
      <trkpt lat="43.43787" lon="6.02676">
        <ele>329.60000610352</ele>
        <time>2017-05-31T12:41:56Z</time>
      </trkpt>
      <trkpt lat="43.43787" lon="6.02673">
        <ele>329.60000610352</ele>
        <time>2017-05-31T12:41:58Z</time>
      </trkpt>
      <trkpt lat="43.43785" lon="6.02651">
        <ele>330.20001220703</ele>
        <time>2017-05-31T12:42:07Z</time>
      </trkpt>
      <trkpt lat="43.43788" lon="6.02626">
        <ele>330.60000610352</ele>
        <time>2017-05-31T12:42:16Z</time>
      </trkpt>
      <trkpt lat="43.43789" lon="6.0262">
        <ele>330.60000610352</ele>
        <time>2017-05-31T12:42:18Z</time>
      </trkpt>
      <trkpt lat="43.43791" lon="6.0261">
        <ele>330.60000610352</ele>
        <time>2017-05-31T12:42:22Z</time>
      </trkpt>
      <trkpt lat="43.43795" lon="6.02592">
        <ele>330.39999389648</ele>
        <time>2017-05-31T12:42:28Z</time>
      </trkpt>
      <trkpt lat="43.43795" lon="6.02573">
        <ele>330.60000610352</ele>
        <time>2017-05-31T12:42:34Z</time>
      </trkpt>
      <trkpt lat="43.43792" lon="6.02561">
        <ele>330.60000610352</ele>
        <time>2017-05-31T12:42:38Z</time>
      </trkpt>
      <trkpt lat="43.43792" lon="6.02541">
        <ele>330.60000610352</ele>
        <time>2017-05-31T12:42:44Z</time>
      </trkpt>
      <trkpt lat="43.43794" lon="6.02528">
        <ele>330.79998779297</ele>
        <time>2017-05-31T12:42:48Z</time>
      </trkpt>
      <trkpt lat="43.438" lon="6.02511">
        <ele>330.60000610352</ele>
        <time>2017-05-31T12:42:52Z</time>
      </trkpt>
      <trkpt lat="43.438" lon="6.02486">
        <ele>329.60000610352</ele>
        <time>2017-05-31T12:42:58Z</time>
      </trkpt>
      <trkpt lat="43.43798" lon="6.02477">
        <ele>329.39999389648</ele>
        <time>2017-05-31T12:43:03Z</time>
      </trkpt>
      <trkpt lat="43.43795" lon="6.02473">
        <ele>329.79998779297</ele>
        <time>2017-05-31T12:43:06Z</time>
      </trkpt>
      <trkpt lat="43.43795" lon="6.02473">
        <ele>330.20001220703</ele>
        <time>2017-05-31T12:43:08Z</time>
      </trkpt>
      <trkpt lat="43.43795" lon="6.02473">
        <ele>330.39999389648</ele>
        <time>2017-05-31T12:43:13Z</time>
      </trkpt>
      <trkpt lat="43.43796" lon="6.02475">
        <ele>330.39999389648</ele>
        <time>2017-05-31T12:43:18Z</time>
      </trkpt>
      <trkpt lat="43.43793" lon="6.02478">
        <ele>330</ele>
        <time>2017-05-31T12:43:23Z</time>
      </trkpt>
      <trkpt lat="43.43794" lon="6.0248">
        <ele>329</ele>
        <time>2017-05-31T12:43:28Z</time>
      </trkpt>
      <trkpt lat="43.43792" lon="6.0248">
        <ele>329</ele>
        <time>2017-05-31T12:43:38Z</time>
      </trkpt>
      <trkpt lat="43.43794" lon="6.02481">
        <ele>329</ele>
        <time>2017-05-31T12:43:48Z</time>
      </trkpt>
      <trkpt lat="43.43795" lon="6.02482">
        <ele>329</ele>
        <time>2017-05-31T12:43:58Z</time>
      </trkpt>
      <trkpt lat="43.43798" lon="6.02478">
        <ele>329</ele>
        <time>2017-05-31T12:44:05Z</time>
      </trkpt>
      <trkpt lat="43.43797" lon="6.02473">
        <ele>329.39999389648</ele>
        <time>2017-05-31T12:44:09Z</time>
      </trkpt>
      <trkpt lat="43.43795" lon="6.02473">
        <ele>330</ele>
        <time>2017-05-31T12:44:11Z</time>
      </trkpt>
      <trkpt lat="43.43791" lon="6.02473">
        <ele>331.39999389648</ele>
        <time>2017-05-31T12:44:19Z</time>
      </trkpt>
      <trkpt lat="43.43789" lon="6.02473">
        <ele>331.79998779297</ele>
        <time>2017-05-31T12:44:24Z</time>
      </trkpt>
      <trkpt lat="43.43789" lon="6.02473">
        <ele>331.79998779297</ele>
        <time>2017-05-31T12:44:29Z</time>
      </trkpt>
      <trkpt lat="43.43789" lon="6.02473">
        <ele>331.60000610352</ele>
        <time>2017-05-31T12:44:39Z</time>
      </trkpt>
      <trkpt lat="43.43789" lon="6.0247">
        <ele>331.20001220703</ele>
        <time>2017-05-31T12:44:48Z</time>
      </trkpt>
      <trkpt lat="43.43786" lon="6.02466">
        <ele>331.20001220703</ele>
        <time>2017-05-31T12:44:57Z</time>
      </trkpt>
      <trkpt lat="43.43786" lon="6.02466">
        <ele>331.20001220703</ele>
        <time>2017-05-31T12:44:59Z</time>
      </trkpt>
      <trkpt lat="43.43786" lon="6.02467">
        <ele>331.20001220703</ele>
        <time>2017-05-31T12:45:08Z</time>
      </trkpt>
      <trkpt lat="43.43786" lon="6.02467">
        <ele>331</ele>
        <time>2017-05-31T12:45:18Z</time>
      </trkpt>
      <trkpt lat="43.43787" lon="6.02469">
        <ele>331</ele>
        <time>2017-05-31T12:45:32Z</time>
      </trkpt>
      <trkpt lat="43.43786" lon="6.0247">
        <ele>331</ele>
        <time>2017-05-31T12:45:38Z</time>
      </trkpt>
      <trkpt lat="43.43785" lon="6.02469">
        <ele>331</ele>
        <time>2017-05-31T12:45:48Z</time>
      </trkpt>
      <trkpt lat="43.43785" lon="6.02469">
        <ele>331</ele>
        <time>2017-05-31T12:45:52Z</time>
      </trkpt>
      <trkpt lat="43.43785" lon="6.02469">
        <ele>331</ele>
        <time>2017-05-31T12:45:58Z</time>
      </trkpt>
      <trkpt lat="43.43785" lon="6.02468">
        <ele>331</ele>
        <time>2017-05-31T12:46:08Z</time>
      </trkpt>
      <trkpt lat="43.43782" lon="6.02467">
        <ele>331</ele>
        <time>2017-05-31T12:46:11Z</time>
      </trkpt>
      <trkpt lat="43.43781" lon="6.02467">
        <ele>330.79998779297</ele>
        <time>2017-05-31T12:46:13Z</time>
      </trkpt>
      <trkpt lat="43.43779" lon="6.02464">
        <ele>330.60000610352</ele>
        <time>2017-05-31T12:46:15Z</time>
      </trkpt>
      <trkpt lat="43.43779" lon="6.02462">
        <ele>330</ele>
        <time>2017-05-31T12:46:16Z</time>
      </trkpt>
      <trkpt lat="43.43778" lon="6.02457">
        <ele>330.39999389648</ele>
        <time>2017-05-31T12:46:18Z</time>
      </trkpt>
      <trkpt lat="43.43777" lon="6.02456">
        <ele>330.60000610352</ele>
        <time>2017-05-31T12:46:19Z</time>
      </trkpt>
      <trkpt lat="43.43775" lon="6.02453">
        <ele>331</ele>
        <time>2017-05-31T12:46:23Z</time>
      </trkpt>
      <trkpt lat="43.43775" lon="6.02452">
        <ele>331.20001220703</ele>
        <time>2017-05-31T12:46:24Z</time>
      </trkpt>
      <trkpt lat="43.43774" lon="6.02446">
        <ele>332.39999389648</ele>
        <time>2017-05-31T12:46:27Z</time>
      </trkpt>
      <trkpt lat="43.43775" lon="6.02444">
        <ele>332.79998779297</ele>
        <time>2017-05-31T12:46:28Z</time>
      </trkpt>
      <trkpt lat="43.43776" lon="6.02441">
        <ele>333.20001220703</ele>
        <time>2017-05-31T12:46:30Z</time>
      </trkpt>
      <trkpt lat="43.43773" lon="6.02427">
        <ele>333.39999389648</ele>
        <time>2017-05-31T12:46:38Z</time>
      </trkpt>
      <trkpt lat="43.43772" lon="6.02425">
        <ele>333.60000610352</ele>
        <time>2017-05-31T12:46:40Z</time>
      </trkpt>
      <trkpt lat="43.43768" lon="6.0242">
        <ele>333.20001220703</ele>
        <time>2017-05-31T12:46:44Z</time>
      </trkpt>
      <trkpt lat="43.43764" lon="6.02408">
        <ele>333.79998779297</ele>
        <time>2017-05-31T12:46:48Z</time>
      </trkpt>
      <trkpt lat="43.43762" lon="6.02406">
        <ele>333.79998779297</ele>
        <time>2017-05-31T12:46:49Z</time>
      </trkpt>
      <trkpt lat="43.43758" lon="6.02404">
        <ele>334.20001220703</ele>
        <time>2017-05-31T12:46:52Z</time>
      </trkpt>
      <trkpt lat="43.43757" lon="6.02403">
        <ele>334.60000610352</ele>
        <time>2017-05-31T12:46:53Z</time>
      </trkpt>
      <trkpt lat="43.43755" lon="6.02401">
        <ele>335.20001220703</ele>
        <time>2017-05-31T12:46:55Z</time>
      </trkpt>
      <trkpt lat="43.43752" lon="6.02396">
        <ele>335.60000610352</ele>
        <time>2017-05-31T12:46:57Z</time>
      </trkpt>
      <trkpt lat="43.4375" lon="6.02395">
        <ele>336</ele>
        <time>2017-05-31T12:46:58Z</time>
      </trkpt>
      <trkpt lat="43.43749" lon="6.02392">
        <ele>336.20001220703</ele>
        <time>2017-05-31T12:46:59Z</time>
      </trkpt>
      <trkpt lat="43.43746" lon="6.02383">
        <ele>336.79998779297</ele>
        <time>2017-05-31T12:47:03Z</time>
      </trkpt>
      <trkpt lat="43.43742" lon="6.02371">
        <ele>337.20001220703</ele>
        <time>2017-05-31T12:47:08Z</time>
      </trkpt>
      <trkpt lat="43.43737" lon="6.02363">
        <ele>337.60000610352</ele>
        <time>2017-05-31T12:47:13Z</time>
      </trkpt>
      <trkpt lat="43.43729" lon="6.02365">
        <ele>337.79998779297</ele>
        <time>2017-05-31T12:47:18Z</time>
      </trkpt>
      <trkpt lat="43.43726" lon="6.02363">
        <ele>338.39999389648</ele>
        <time>2017-05-31T12:47:21Z</time>
      </trkpt>
      <trkpt lat="43.43723" lon="6.0236">
        <ele>338.79998779297</ele>
        <time>2017-05-31T12:47:23Z</time>
      </trkpt>
      <trkpt lat="43.43721" lon="6.02354">
        <ele>338.79998779297</ele>
        <time>2017-05-31T12:47:26Z</time>
      </trkpt>
      <trkpt lat="43.43719" lon="6.02349">
        <ele>338.79998779297</ele>
        <time>2017-05-31T12:47:28Z</time>
      </trkpt>
      <trkpt lat="43.43718" lon="6.02346">
        <ele>338.79998779297</ele>
        <time>2017-05-31T12:47:29Z</time>
      </trkpt>
      <trkpt lat="43.4372" lon="6.02333">
        <ele>338.39999389648</ele>
        <time>2017-05-31T12:47:33Z</time>
      </trkpt>
      <trkpt lat="43.43725" lon="6.02326">
        <ele>337.39999389648</ele>
        <time>2017-05-31T12:47:36Z</time>
      </trkpt>
      <trkpt lat="43.43726" lon="6.02323">
        <ele>337.20001220703</ele>
        <time>2017-05-31T12:47:37Z</time>
      </trkpt>
      <trkpt lat="43.43727" lon="6.02319">
        <ele>337</ele>
        <time>2017-05-31T12:47:38Z</time>
      </trkpt>
      <trkpt lat="43.43731" lon="6.0231">
        <ele>336.60000610352</ele>
        <time>2017-05-31T12:47:40Z</time>
      </trkpt>
      <trkpt lat="43.43734" lon="6.02305">
        <ele>336.20001220703</ele>
        <time>2017-05-31T12:47:41Z</time>
      </trkpt>
      <trkpt lat="43.4374" lon="6.02294">
        <ele>335.20001220703</ele>
        <time>2017-05-31T12:47:43Z</time>
      </trkpt>
      <trkpt lat="43.43743" lon="6.02288">
        <ele>334.60000610352</ele>
        <time>2017-05-31T12:47:44Z</time>
      </trkpt>
      <trkpt lat="43.43748" lon="6.0228">
        <ele>333.39999389648</ele>
        <time>2017-05-31T12:47:46Z</time>
      </trkpt>
      <trkpt lat="43.43753" lon="6.0227">
        <ele>332.39999389648</ele>
        <time>2017-05-31T12:47:48Z</time>
      </trkpt>
      <trkpt lat="43.43756" lon="6.02265">
        <ele>332</ele>
        <time>2017-05-31T12:47:49Z</time>
      </trkpt>
      <trkpt lat="43.43764" lon="6.02248">
        <ele>330.60000610352</ele>
        <time>2017-05-31T12:47:52Z</time>
      </trkpt>
      <trkpt lat="43.43766" lon="6.02237">
        <ele>330</ele>
        <time>2017-05-31T12:47:54Z</time>
      </trkpt>
      <trkpt lat="43.43768" lon="6.02212">
        <ele>330.20001220703</ele>
        <time>2017-05-31T12:47:58Z</time>
      </trkpt>
      <trkpt lat="43.43779" lon="6.0217">
        <ele>331.39999389648</ele>
        <time>2017-05-31T12:48:07Z</time>
      </trkpt>
      <trkpt lat="43.43783" lon="6.02158">
        <ele>331.60000610352</ele>
        <time>2017-05-31T12:48:09Z</time>
      </trkpt>
      <trkpt lat="43.4379" lon="6.02148">
        <ele>331.39999389648</ele>
        <time>2017-05-31T12:48:11Z</time>
      </trkpt>
      <trkpt lat="43.43815" lon="6.02123">
        <ele>331.20001220703</ele>
        <time>2017-05-31T12:48:18Z</time>
      </trkpt>
      <trkpt lat="43.43818" lon="6.02118">
        <ele>331.20001220703</ele>
        <time>2017-05-31T12:48:19Z</time>
      </trkpt>
      <trkpt lat="43.43825" lon="6.02088">
        <ele>332.39999389648</ele>
        <time>2017-05-31T12:48:26Z</time>
      </trkpt>
      <trkpt lat="43.43827" lon="6.02082">
        <ele>332.39999389648</ele>
        <time>2017-05-31T12:48:27Z</time>
      </trkpt>
      <trkpt lat="43.43831" lon="6.02071">
        <ele>332.39999389648</ele>
        <time>2017-05-31T12:48:29Z</time>
      </trkpt>
      <trkpt lat="43.43834" lon="6.02066">
        <ele>332.39999389648</ele>
        <time>2017-05-31T12:48:30Z</time>
      </trkpt>
      <trkpt lat="43.43842" lon="6.02052">
        <ele>332.39999389648</ele>
        <time>2017-05-31T12:48:33Z</time>
      </trkpt>
      <trkpt lat="43.43845" lon="6.0204">
        <ele>332.20001220703</ele>
        <time>2017-05-31T12:48:35Z</time>
      </trkpt>
      <trkpt lat="43.43846" lon="6.02022">
        <ele>332.20001220703</ele>
        <time>2017-05-31T12:48:38Z</time>
      </trkpt>
      <trkpt lat="43.43848" lon="6.0201">
        <ele>332.39999389648</ele>
        <time>2017-05-31T12:48:40Z</time>
      </trkpt>
      <trkpt lat="43.43848" lon="6.01994">
        <ele>332.79998779297</ele>
        <time>2017-05-31T12:48:43Z</time>
      </trkpt>
      <trkpt lat="43.43849" lon="6.01973">
        <ele>332.79998779297</ele>
        <time>2017-05-31T12:48:47Z</time>
      </trkpt>
      <trkpt lat="43.43856" lon="6.01949">
        <ele>333</ele>
        <time>2017-05-31T12:48:51Z</time>
      </trkpt>
      <trkpt lat="43.43863" lon="6.01932">
        <ele>333</ele>
        <time>2017-05-31T12:48:56Z</time>
      </trkpt>
      <trkpt lat="43.43859" lon="6.01931">
        <ele>333.20001220703</ele>
        <time>2017-05-31T12:49:01Z</time>
      </trkpt>
      <trkpt lat="43.43858" lon="6.0193">
        <ele>333.20001220703</ele>
        <time>2017-05-31T12:49:07Z</time>
      </trkpt>
      <trkpt lat="43.43858" lon="6.0193">
        <ele>333.20001220703</ele>
        <time>2017-05-31T12:49:11Z</time>
      </trkpt>
      <trkpt lat="43.43858" lon="6.0193">
        <ele>333</ele>
        <time>2017-05-31T12:49:21Z</time>
      </trkpt>
      <trkpt lat="43.43858" lon="6.0193">
        <ele>333.20001220703</ele>
        <time>2017-05-31T12:49:24Z</time>
      </trkpt>
      <trkpt lat="43.4386" lon="6.01931">
        <ele>333.39999389648</ele>
        <time>2017-05-31T12:49:31Z</time>
      </trkpt>
      <trkpt lat="43.4386" lon="6.01932">
        <ele>332.79998779297</ele>
        <time>2017-05-31T12:49:36Z</time>
      </trkpt>
      <trkpt lat="43.43859" lon="6.01933">
        <ele>332.60000610352</ele>
        <time>2017-05-31T12:49:41Z</time>
      </trkpt>
      <trkpt lat="43.43858" lon="6.01934">
        <ele>332.39999389648</ele>
        <time>2017-05-31T12:49:51Z</time>
      </trkpt>
      <trkpt lat="43.43856" lon="6.01929">
        <ele>332.60000610352</ele>
        <time>2017-05-31T12:50:01Z</time>
      </trkpt>
      <trkpt lat="43.43856" lon="6.01928">
        <ele>332.60000610352</ele>
        <time>2017-05-31T12:50:09Z</time>
      </trkpt>
      <trkpt lat="43.43859" lon="6.0193">
        <ele>332.60000610352</ele>
        <time>2017-05-31T12:50:21Z</time>
      </trkpt>
      <trkpt lat="43.43859" lon="6.01931">
        <ele>332.79998779297</ele>
        <time>2017-05-31T12:50:31Z</time>
      </trkpt>
      <trkpt lat="43.43861" lon="6.01927">
        <ele>332.39999389648</ele>
        <time>2017-05-31T12:50:41Z</time>
      </trkpt>
      <trkpt lat="43.43861" lon="6.01925">
        <ele>332.39999389648</ele>
        <time>2017-05-31T12:50:42Z</time>
      </trkpt>
      <trkpt lat="43.4387" lon="6.0189">
        <ele>332.79998779297</ele>
        <time>2017-05-31T12:50:51Z</time>
      </trkpt>
      <trkpt lat="43.4388" lon="6.01842">
        <ele>333.39999389648</ele>
        <time>2017-05-31T12:51:01Z</time>
      </trkpt>
      <trkpt lat="43.43883" lon="6.01819">
        <ele>333.79998779297</ele>
        <time>2017-05-31T12:51:06Z</time>
      </trkpt>
      <trkpt lat="43.43884" lon="6.018">
        <ele>334.79998779297</ele>
        <time>2017-05-31T12:51:10Z</time>
      </trkpt>
      <trkpt lat="43.43885" lon="6.01796">
        <ele>335.20001220703</ele>
        <time>2017-05-31T12:51:11Z</time>
      </trkpt>
      <trkpt lat="43.43887" lon="6.01789">
        <ele>335.60000610352</ele>
        <time>2017-05-31T12:51:13Z</time>
      </trkpt>
      <trkpt lat="43.4389" lon="6.01778">
        <ele>336.20001220703</ele>
        <time>2017-05-31T12:51:16Z</time>
      </trkpt>
      <trkpt lat="43.43894" lon="6.01761">
        <ele>337.60000610352</ele>
        <time>2017-05-31T12:51:21Z</time>
      </trkpt>
      <trkpt lat="43.43892" lon="6.01747">
        <ele>338.39999389648</ele>
        <time>2017-05-31T12:51:25Z</time>
      </trkpt>
      <trkpt lat="43.43885" lon="6.01727">
        <ele>339.39999389648</ele>
        <time>2017-05-31T12:51:31Z</time>
      </trkpt>
      <trkpt lat="43.43877" lon="6.0171">
        <ele>340</ele>
        <time>2017-05-31T12:51:37Z</time>
      </trkpt>
      <trkpt lat="43.43874" lon="6.017">
        <ele>340.60000610352</ele>
        <time>2017-05-31T12:51:40Z</time>
      </trkpt>
      <trkpt lat="43.43871" lon="6.01664">
        <ele>341.39999389648</ele>
        <time>2017-05-31T12:51:50Z</time>
      </trkpt>
      <trkpt lat="43.43869" lon="6.01662">
        <ele>341.60000610352</ele>
        <time>2017-05-31T12:51:51Z</time>
      </trkpt>
      <trkpt lat="43.43866" lon="6.0166">
        <ele>341.79998779297</ele>
        <time>2017-05-31T12:51:52Z</time>
      </trkpt>
      <trkpt lat="43.43846" lon="6.01674">
        <ele>342.20001220703</ele>
        <time>2017-05-31T12:52:01Z</time>
      </trkpt>
      <trkpt lat="43.43839" lon="6.01679">
        <ele>342.60000610352</ele>
        <time>2017-05-31T12:52:04Z</time>
      </trkpt>
      <trkpt lat="43.43822" lon="6.01689">
        <ele>343</ele>
        <time>2017-05-31T12:52:11Z</time>
      </trkpt>
      <trkpt lat="43.43803" lon="6.01696">
        <ele>343.39999389648</ele>
        <time>2017-05-31T12:52:18Z</time>
      </trkpt>
      <trkpt lat="43.43796" lon="6.01698">
        <ele>343.79998779297</ele>
        <time>2017-05-31T12:52:21Z</time>
      </trkpt>
      <trkpt lat="43.43772" lon="6.01696">
        <ele>344.60000610352</ele>
        <time>2017-05-31T12:52:31Z</time>
      </trkpt>
      <trkpt lat="43.4377" lon="6.01694">
        <ele>344.79998779297</ele>
        <time>2017-05-31T12:52:32Z</time>
      </trkpt>
      <trkpt lat="43.43759" lon="6.0169">
        <ele>346</ele>
        <time>2017-05-31T12:52:37Z</time>
      </trkpt>
      <trkpt lat="43.43751" lon="6.01686">
        <ele>346.39999389648</ele>
        <time>2017-05-31T12:52:41Z</time>
      </trkpt>
      <trkpt lat="43.43748" lon="6.01683">
        <ele>346.60000610352</ele>
        <time>2017-05-31T12:52:43Z</time>
      </trkpt>
      <trkpt lat="43.43747" lon="6.01678">
        <ele>346.79998779297</ele>
        <time>2017-05-31T12:52:45Z</time>
      </trkpt>
      <trkpt lat="43.43749" lon="6.01662">
        <ele>346.79998779297</ele>
        <time>2017-05-31T12:52:50Z</time>
      </trkpt>
      <trkpt lat="43.4375" lon="6.01658">
        <ele>346.60000610352</ele>
        <time>2017-05-31T12:52:51Z</time>
      </trkpt>
      <trkpt lat="43.43756" lon="6.01636">
        <ele>346.79998779297</ele>
        <time>2017-05-31T12:52:57Z</time>
      </trkpt>
      <trkpt lat="43.43768" lon="6.01594">
        <ele>346.20001220703</ele>
        <time>2017-05-31T12:53:08Z</time>
      </trkpt>
      <trkpt lat="43.43771" lon="6.01583">
        <ele>346.20001220703</ele>
        <time>2017-05-31T12:53:11Z</time>
      </trkpt>
      <trkpt lat="43.43778" lon="6.01555">
        <ele>346.39999389648</ele>
        <time>2017-05-31T12:53:18Z</time>
      </trkpt>
      <trkpt lat="43.43781" lon="6.0154">
        <ele>346.20001220703</ele>
        <time>2017-05-31T12:53:21Z</time>
      </trkpt>
      <trkpt lat="43.43789" lon="6.01493">
        <ele>345.20001220703</ele>
        <time>2017-05-31T12:53:29Z</time>
      </trkpt>
      <trkpt lat="43.4379" lon="6.01487">
        <ele>345.20001220703</ele>
        <time>2017-05-31T12:53:30Z</time>
      </trkpt>
      <trkpt lat="43.4379" lon="6.01458">
        <ele>346.79998779297</ele>
        <time>2017-05-31T12:53:36Z</time>
      </trkpt>
      <trkpt lat="43.4379" lon="6.01454">
        <ele>347.20001220703</ele>
        <time>2017-05-31T12:53:37Z</time>
      </trkpt>
      <trkpt lat="43.43787" lon="6.01416">
        <ele>347</ele>
        <time>2017-05-31T12:53:44Z</time>
      </trkpt>
      <trkpt lat="43.43785" lon="6.01376">
        <ele>346.79998779297</ele>
        <time>2017-05-31T12:53:51Z</time>
      </trkpt>
      <trkpt lat="43.43785" lon="6.01358">
        <ele>347.79998779297</ele>
        <time>2017-05-31T12:53:55Z</time>
      </trkpt>
      <trkpt lat="43.43784" lon="6.0134">
        <ele>348</ele>
        <time>2017-05-31T12:53:59Z</time>
      </trkpt>
      <trkpt lat="43.43783" lon="6.0133">
        <ele>347.79998779297</ele>
        <time>2017-05-31T12:54:01Z</time>
      </trkpt>
      <trkpt lat="43.43776" lon="6.0128">
        <ele>348</ele>
        <time>2017-05-31T12:54:11Z</time>
      </trkpt>
      <trkpt lat="43.43776" lon="6.01277">
        <ele>348.39999389648</ele>
        <time>2017-05-31T12:54:12Z</time>
      </trkpt>
      <trkpt lat="43.43771" lon="6.01262">
        <ele>348.79998779297</ele>
        <time>2017-05-31T12:54:16Z</time>
      </trkpt>
      <trkpt lat="43.43769" lon="6.01251">
        <ele>349.39999389648</ele>
        <time>2017-05-31T12:54:19Z</time>
      </trkpt>
      <trkpt lat="43.43768" lon="6.01243">
        <ele>349.79998779297</ele>
        <time>2017-05-31T12:54:21Z</time>
      </trkpt>
      <trkpt lat="43.43767" lon="6.01223">
        <ele>350.39999389648</ele>
        <time>2017-05-31T12:54:26Z</time>
      </trkpt>
      <trkpt lat="43.43767" lon="6.01205">
        <ele>351.79998779297</ele>
        <time>2017-05-31T12:54:31Z</time>
      </trkpt>
      <trkpt lat="43.43767" lon="6.01192">
        <ele>352.39999389648</ele>
        <time>2017-05-31T12:54:35Z</time>
      </trkpt>
      <trkpt lat="43.43768" lon="6.01187">
        <ele>352.79998779297</ele>
        <time>2017-05-31T12:54:37Z</time>
      </trkpt>
      <trkpt lat="43.43771" lon="6.01174">
        <ele>354</ele>
        <time>2017-05-31T12:54:41Z</time>
      </trkpt>
      <trkpt lat="43.43782" lon="6.01139">
        <ele>353.79998779297</ele>
        <time>2017-05-31T12:54:51Z</time>
      </trkpt>
      <trkpt lat="43.43793" lon="6.01105">
        <ele>354.60000610352</ele>
        <time>2017-05-31T12:55:01Z</time>
      </trkpt>
      <trkpt lat="43.43815" lon="6.01046">
        <ele>354.20001220703</ele>
        <time>2017-05-31T12:55:15Z</time>
      </trkpt>
      <trkpt lat="43.43823" lon="6.01019">
        <ele>354</ele>
        <time>2017-05-31T12:55:20Z</time>
      </trkpt>
      <trkpt lat="43.43825" lon="6.01014">
        <ele>353.79998779297</ele>
        <time>2017-05-31T12:55:21Z</time>
      </trkpt>
      <trkpt lat="43.43829" lon="6.00996">
        <ele>353.39999389648</ele>
        <time>2017-05-31T12:55:24Z</time>
      </trkpt>
      <trkpt lat="43.4383" lon="6.00991">
        <ele>353.39999389648</ele>
        <time>2017-05-31T12:55:25Z</time>
      </trkpt>
      <trkpt lat="43.43829" lon="6.00959">
        <ele>354.20001220703</ele>
        <time>2017-05-31T12:55:31Z</time>
      </trkpt>
      <trkpt lat="43.43826" lon="6.00945">
        <ele>355</ele>
        <time>2017-05-31T12:55:34Z</time>
      </trkpt>
      <trkpt lat="43.43821" lon="6.00927">
        <ele>356</ele>
        <time>2017-05-31T12:55:38Z</time>
      </trkpt>
      <trkpt lat="43.43819" lon="6.00918">
        <ele>356.39999389648</ele>
        <time>2017-05-31T12:55:40Z</time>
      </trkpt>
      <trkpt lat="43.43817" lon="6.00909">
        <ele>357.20001220703</ele>
        <time>2017-05-31T12:55:42Z</time>
      </trkpt>
      <trkpt lat="43.43814" lon="6.00894">
        <ele>357.79998779297</ele>
        <time>2017-05-31T12:55:45Z</time>
      </trkpt>
      <trkpt lat="43.43813" lon="6.00886">
        <ele>358.39999389648</ele>
        <time>2017-05-31T12:55:47Z</time>
      </trkpt>
      <trkpt lat="43.43812" lon="6.00875">
        <ele>359.79998779297</ele>
        <time>2017-05-31T12:55:50Z</time>
      </trkpt>
      <trkpt lat="43.43813" lon="6.00868">
        <ele>360.20001220703</ele>
        <time>2017-05-31T12:55:52Z</time>
      </trkpt>
      <trkpt lat="43.43817" lon="6.0084">
        <ele>360.79998779297</ele>
        <time>2017-05-31T12:56:01Z</time>
      </trkpt>
      <trkpt lat="43.43823" lon="6.00821">
        <ele>360.39999389648</ele>
        <time>2017-05-31T12:56:06Z</time>
      </trkpt>
      <trkpt lat="43.4383" lon="6.00799">
        <ele>360</ele>
        <time>2017-05-31T12:56:11Z</time>
      </trkpt>
      <trkpt lat="43.43832" lon="6.00786">
        <ele>360.20001220703</ele>
        <time>2017-05-31T12:56:14Z</time>
      </trkpt>
      <trkpt lat="43.43832" lon="6.00764">
        <ele>360.79998779297</ele>
        <time>2017-05-31T12:56:21Z</time>
      </trkpt>
      <trkpt lat="43.43832" lon="6.00755">
        <ele>361.39999389648</ele>
        <time>2017-05-31T12:56:24Z</time>
      </trkpt>
      <trkpt lat="43.43832" lon="6.00746">
        <ele>362</ele>
        <time>2017-05-31T12:56:27Z</time>
      </trkpt>
      <trkpt lat="43.43832" lon="6.00723">
        <ele>363</ele>
        <time>2017-05-31T12:56:34Z</time>
      </trkpt>
      <trkpt lat="43.43832" lon="6.00695">
        <ele>364.20001220703</ele>
        <time>2017-05-31T12:56:44Z</time>
      </trkpt>
      <trkpt lat="43.43833" lon="6.00682">
        <ele>365.20001220703</ele>
        <time>2017-05-31T12:56:49Z</time>
      </trkpt>
      <trkpt lat="43.43834" lon="6.00671">
        <ele>365.79998779297</ele>
        <time>2017-05-31T12:56:54Z</time>
      </trkpt>
      <trkpt lat="43.43836" lon="6.0066">
        <ele>366</ele>
        <time>2017-05-31T12:57:00Z</time>
      </trkpt>
      <trkpt lat="43.43839" lon="6.00653">
        <ele>365.79998779297</ele>
        <time>2017-05-31T12:57:03Z</time>
      </trkpt>
      <trkpt lat="43.43839" lon="6.00649">
        <ele>365.79998779297</ele>
        <time>2017-05-31T12:57:05Z</time>
      </trkpt>
      <trkpt lat="43.43839" lon="6.00648">
        <ele>365.60000610352</ele>
        <time>2017-05-31T12:57:06Z</time>
      </trkpt>
      <trkpt lat="43.4384" lon="6.00646">
        <ele>365.20001220703</ele>
        <time>2017-05-31T12:57:13Z</time>
      </trkpt>
      <trkpt lat="43.4384" lon="6.00646">
        <ele>365.20001220703</ele>
        <time>2017-05-31T12:57:20Z</time>
      </trkpt>
      <trkpt lat="43.4384" lon="6.00647">
        <ele>365</ele>
        <time>2017-05-31T12:57:25Z</time>
      </trkpt>
      <trkpt lat="43.4384" lon="6.00648">
        <ele>366</ele>
        <time>2017-05-31T12:57:35Z</time>
      </trkpt>
      <trkpt lat="43.4384" lon="6.00648">
        <ele>364.79998779297</ele>
        <time>2017-05-31T12:57:46Z</time>
      </trkpt>
      <trkpt lat="43.4384" lon="6.00648">
        <ele>364.79998779297</ele>
        <time>2017-05-31T12:57:52Z</time>
      </trkpt>
      <trkpt lat="43.4384" lon="6.00648">
        <ele>364.39999389648</ele>
        <time>2017-05-31T12:58:05Z</time>
      </trkpt>
      <trkpt lat="43.4384" lon="6.00649">
        <ele>364.60000610352</ele>
        <time>2017-05-31T12:58:16Z</time>
      </trkpt>
      <trkpt lat="43.43843" lon="6.00641">
        <ele>364.79998779297</ele>
        <time>2017-05-31T12:58:26Z</time>
      </trkpt>
      <trkpt lat="43.43848" lon="6.00629">
        <ele>364.20001220703</ele>
        <time>2017-05-31T12:58:28Z</time>
      </trkpt>
      <trkpt lat="43.43855" lon="6.00614">
        <ele>363</ele>
        <time>2017-05-31T12:58:30Z</time>
      </trkpt>
      <trkpt lat="43.43862" lon="6.00595">
        <ele>361.60000610352</ele>
        <time>2017-05-31T12:58:32Z</time>
      </trkpt>
      <trkpt lat="43.43869" lon="6.00576">
        <ele>360.39999389648</ele>
        <time>2017-05-31T12:58:34Z</time>
      </trkpt>
      <trkpt lat="43.43876" lon="6.00559">
        <ele>359.60000610352</ele>
        <time>2017-05-31T12:58:36Z</time>
      </trkpt>
      <trkpt lat="43.43884" lon="6.00533">
        <ele>361.60000610352</ele>
        <time>2017-05-31T12:58:41Z</time>
      </trkpt>
      <trkpt lat="43.43886" lon="6.00525">
        <ele>362.39999389648</ele>
        <time>2017-05-31T12:58:43Z</time>
      </trkpt>
      <trkpt lat="43.43887" lon="6.00522">
        <ele>362.60000610352</ele>
        <time>2017-05-31T12:58:44Z</time>
      </trkpt>
      <trkpt lat="43.4389" lon="6.00515">
        <ele>363.39999389648</ele>
        <time>2017-05-31T12:58:46Z</time>
      </trkpt>
      <trkpt lat="43.43893" lon="6.00507">
        <ele>363.79998779297</ele>
        <time>2017-05-31T12:58:48Z</time>
      </trkpt>
      <trkpt lat="43.43896" lon="6.00496">
        <ele>364.20001220703</ele>
        <time>2017-05-31T12:58:51Z</time>
      </trkpt>
      <trkpt lat="43.43899" lon="6.00487">
        <ele>364.79998779297</ele>
        <time>2017-05-31T12:58:54Z</time>
      </trkpt>
      <trkpt lat="43.439" lon="6.00484">
        <ele>365.20001220703</ele>
        <time>2017-05-31T12:58:55Z</time>
      </trkpt>
      <trkpt lat="43.43912" lon="6.00453">
        <ele>366</ele>
        <time>2017-05-31T12:59:06Z</time>
      </trkpt>
      <trkpt lat="43.43926" lon="6.00415">
        <ele>365</ele>
        <time>2017-05-31T12:59:15Z</time>
      </trkpt>
      <trkpt lat="43.43934" lon="6.00396">
        <ele>365.60000610352</ele>
        <time>2017-05-31T12:59:20Z</time>
      </trkpt>
      <trkpt lat="43.43942" lon="6.00374">
        <ele>366.39999389648</ele>
        <time>2017-05-31T12:59:26Z</time>
      </trkpt>
      <trkpt lat="43.4395" lon="6.00353">
        <ele>367.20001220703</ele>
        <time>2017-05-31T12:59:32Z</time>
      </trkpt>
      <trkpt lat="43.43953" lon="6.00343">
        <ele>368.60000610352</ele>
        <time>2017-05-31T12:59:35Z</time>
      </trkpt>
      <trkpt lat="43.43958" lon="6.00334">
        <ele>369.20001220703</ele>
        <time>2017-05-31T12:59:38Z</time>
      </trkpt>
      <trkpt lat="43.43962" lon="6.00323">
        <ele>371.20001220703</ele>
        <time>2017-05-31T12:59:42Z</time>
      </trkpt>
      <trkpt lat="43.43965" lon="6.00315">
        <ele>372</ele>
        <time>2017-05-31T12:59:45Z</time>
      </trkpt>
      <trkpt lat="43.43967" lon="6.00311">
        <ele>372.20001220703</ele>
        <time>2017-05-31T12:59:47Z</time>
      </trkpt>
      <trkpt lat="43.43973" lon="6.00295">
        <ele>373.20001220703</ele>
        <time>2017-05-31T12:59:55Z</time>
      </trkpt>
      <trkpt lat="43.43975" lon="6.00291">
        <ele>373.39999389648</ele>
        <time>2017-05-31T12:59:57Z</time>
      </trkpt>
      <trkpt lat="43.4398" lon="6.00279">
        <ele>373.20001220703</ele>
        <time>2017-05-31T13:00:02Z</time>
      </trkpt>
      <trkpt lat="43.43985" lon="6.00266">
        <ele>373.20001220703</ele>
        <time>2017-05-31T13:00:08Z</time>
      </trkpt>
      <trkpt lat="43.43993" lon="6.00246">
        <ele>373.60000610352</ele>
        <time>2017-05-31T13:00:15Z</time>
      </trkpt>
      <trkpt lat="43.43995" lon="6.00233">
        <ele>373.60000610352</ele>
        <time>2017-05-31T13:00:18Z</time>
      </trkpt>
      <trkpt lat="43.43998" lon="6.00222">
        <ele>372.79998779297</ele>
        <time>2017-05-31T13:00:21Z</time>
      </trkpt>
      <trkpt lat="43.44003" lon="6.00206">
        <ele>372</ele>
        <time>2017-05-31T13:00:24Z</time>
      </trkpt>
      <trkpt lat="43.44006" lon="6.00191">
        <ele>371</ele>
        <time>2017-05-31T13:00:26Z</time>
      </trkpt>
      <trkpt lat="43.44007" lon="6.00182">
        <ele>370</ele>
        <time>2017-05-31T13:00:27Z</time>
      </trkpt>
      <trkpt lat="43.44011" lon="6.00172">
        <ele>369</ele>
        <time>2017-05-31T13:00:28Z</time>
      </trkpt>
      <trkpt lat="43.44019" lon="6.00151">
        <ele>367.20001220703</ele>
        <time>2017-05-31T13:00:30Z</time>
      </trkpt>
      <trkpt lat="43.44027" lon="6.00134">
        <ele>365.79998779297</ele>
        <time>2017-05-31T13:00:32Z</time>
      </trkpt>
      <trkpt lat="43.4403" lon="6.00127">
        <ele>365.60000610352</ele>
        <time>2017-05-31T13:00:33Z</time>
      </trkpt>
      <trkpt lat="43.44041" lon="6.00105">
        <ele>366.60000610352</ele>
        <time>2017-05-31T13:00:38Z</time>
      </trkpt>
      <trkpt lat="43.44043" lon="6.00101">
        <ele>367.20001220703</ele>
        <time>2017-05-31T13:00:39Z</time>
      </trkpt>
      <trkpt lat="43.44048" lon="6.00093">
        <ele>367.39999389648</ele>
        <time>2017-05-31T13:00:41Z</time>
      </trkpt>
      <trkpt lat="43.44052" lon="6.00081">
        <ele>367.39999389648</ele>
        <time>2017-05-31T13:00:43Z</time>
      </trkpt>
      <trkpt lat="43.44054" lon="6.00076">
        <ele>367.20001220703</ele>
        <time>2017-05-31T13:00:44Z</time>
      </trkpt>
      <trkpt lat="43.44061" lon="6.00061">
        <ele>367</ele>
        <time>2017-05-31T13:00:47Z</time>
      </trkpt>
      <trkpt lat="43.44063" lon="6.00057">
        <ele>367</ele>
        <time>2017-05-31T13:00:48Z</time>
      </trkpt>
      <trkpt lat="43.44078" lon="6.00017">
        <ele>367.39999389648</ele>
        <time>2017-05-31T13:00:58Z</time>
      </trkpt>
      <trkpt lat="43.4409" lon="5.99985">
        <ele>368.20001220703</ele>
        <time>2017-05-31T13:01:07Z</time>
      </trkpt>
      <trkpt lat="43.44092" lon="5.99978">
        <ele>368.20001220703</ele>
        <time>2017-05-31T13:01:09Z</time>
      </trkpt>
      <trkpt lat="43.44101" lon="5.99938">
        <ele>367</ele>
        <time>2017-05-31T13:01:17Z</time>
      </trkpt>
      <trkpt lat="43.44102" lon="5.99932">
        <ele>367</ele>
        <time>2017-05-31T13:01:18Z</time>
      </trkpt>
      <trkpt lat="43.44106" lon="5.99922">
        <ele>366.79998779297</ele>
        <time>2017-05-31T13:01:20Z</time>
      </trkpt>
      <trkpt lat="43.44123" lon="5.99888">
        <ele>365.79998779297</ele>
        <time>2017-05-31T13:01:27Z</time>
      </trkpt>
      <trkpt lat="43.44125" lon="5.99882">
        <ele>365.60000610352</ele>
        <time>2017-05-31T13:01:28Z</time>
      </trkpt>
      <trkpt lat="43.4414" lon="5.99845">
        <ele>365</ele>
        <time>2017-05-31T13:01:34Z</time>
      </trkpt>
      <trkpt lat="43.44142" lon="5.99838">
        <ele>364.60000610352</ele>
        <time>2017-05-31T13:01:35Z</time>
      </trkpt>
      <trkpt lat="43.4415" lon="5.99818">
        <ele>364</ele>
        <time>2017-05-31T13:01:38Z</time>
      </trkpt>
      <trkpt lat="43.44152" lon="5.99811">
        <ele>363.79998779297</ele>
        <time>2017-05-31T13:01:39Z</time>
      </trkpt>
      <trkpt lat="43.44161" lon="5.99788">
        <ele>364.60000610352</ele>
        <time>2017-05-31T13:01:44Z</time>
      </trkpt>
      <trkpt lat="43.44166" lon="5.99778">
        <ele>366</ele>
        <time>2017-05-31T13:01:47Z</time>
      </trkpt>
      <trkpt lat="43.44173" lon="5.99767">
        <ele>366</ele>
        <time>2017-05-31T13:01:50Z</time>
      </trkpt>
      <trkpt lat="43.44178" lon="5.99758">
        <ele>365.79998779297</ele>
        <time>2017-05-31T13:01:52Z</time>
      </trkpt>
      <trkpt lat="43.44193" lon="5.99738">
        <ele>364.60000610352</ele>
        <time>2017-05-31T13:01:56Z</time>
      </trkpt>
      <trkpt lat="43.44203" lon="5.99722">
        <ele>364.20001220703</ele>
        <time>2017-05-31T13:01:59Z</time>
      </trkpt>
      <trkpt lat="43.44206" lon="5.99718">
        <ele>364</ele>
        <time>2017-05-31T13:02:00Z</time>
      </trkpt>
      <trkpt lat="43.44222" lon="5.99689">
        <ele>364.39999389648</ele>
        <time>2017-05-31T13:02:07Z</time>
      </trkpt>
      <trkpt lat="43.44229" lon="5.9967">
        <ele>363.79998779297</ele>
        <time>2017-05-31T13:02:10Z</time>
      </trkpt>
      <trkpt lat="43.44231" lon="5.99664">
        <ele>363.39999389648</ele>
        <time>2017-05-31T13:02:11Z</time>
      </trkpt>
      <trkpt lat="43.44234" lon="5.99658">
        <ele>363.20001220703</ele>
        <time>2017-05-31T13:02:12Z</time>
      </trkpt>
      <trkpt lat="43.44246" lon="5.99641">
        <ele>362.60000610352</ele>
        <time>2017-05-31T13:02:16Z</time>
      </trkpt>
      <trkpt lat="43.44256" lon="5.99626">
        <ele>362.79998779297</ele>
        <time>2017-05-31T13:02:20Z</time>
      </trkpt>
      <trkpt lat="43.44273" lon="5.99586">
        <ele>363</ele>
        <time>2017-05-31T13:02:30Z</time>
      </trkpt>
      <trkpt lat="43.4428" lon="5.99575">
        <ele>364.39999389648</ele>
        <time>2017-05-31T13:02:34Z</time>
      </trkpt>
      <trkpt lat="43.44285" lon="5.99568">
        <ele>365</ele>
        <time>2017-05-31T13:02:37Z</time>
      </trkpt>
      <trkpt lat="43.44291" lon="5.99565">
        <ele>365.79998779297</ele>
        <time>2017-05-31T13:02:40Z</time>
      </trkpt>
      <trkpt lat="43.44299" lon="5.99564">
        <ele>366.60000610352</ele>
        <time>2017-05-31T13:02:44Z</time>
      </trkpt>
      <trkpt lat="43.44313" lon="5.99569">
        <ele>367.39999389648</ele>
        <time>2017-05-31T13:02:51Z</time>
      </trkpt>
      <trkpt lat="43.44337" lon="5.99576">
        <ele>366.60000610352</ele>
        <time>2017-05-31T13:03:01Z</time>
      </trkpt>
      <trkpt lat="43.4436" lon="5.99582">
        <ele>365.60000610352</ele>
        <time>2017-05-31T13:03:09Z</time>
      </trkpt>
      <trkpt lat="43.44371" lon="5.99582">
        <ele>365.39999389648</ele>
        <time>2017-05-31T13:03:12Z</time>
      </trkpt>
      <trkpt lat="43.44403" lon="5.99583">
        <ele>364.79998779297</ele>
        <time>2017-05-31T13:03:20Z</time>
      </trkpt>
      <trkpt lat="43.44416" lon="5.99585">
        <ele>364.60000610352</ele>
        <time>2017-05-31T13:03:23Z</time>
      </trkpt>
      <trkpt lat="43.44455" lon="5.99599">
        <ele>363</ele>
        <time>2017-05-31T13:03:34Z</time>
      </trkpt>
      <trkpt lat="43.4447" lon="5.99603">
        <ele>362.20001220703</ele>
        <time>2017-05-31T13:03:38Z</time>
      </trkpt>
      <trkpt lat="43.44482" lon="5.99609">
        <ele>360.79998779297</ele>
        <time>2017-05-31T13:03:41Z</time>
      </trkpt>
      <trkpt lat="43.44487" lon="5.99612">
        <ele>360.39999389648</ele>
        <time>2017-05-31T13:03:42Z</time>
      </trkpt>
      <trkpt lat="43.44495" lon="5.99618">
        <ele>360</ele>
        <time>2017-05-31T13:03:44Z</time>
      </trkpt>
      <trkpt lat="43.44527" lon="5.99655">
        <ele>359.20001220703</ele>
        <time>2017-05-31T13:03:56Z</time>
      </trkpt>
      <trkpt lat="43.44557" lon="5.99648">
        <ele>359.39999389648</ele>
        <time>2017-05-31T13:04:06Z</time>
      </trkpt>
      <trkpt lat="43.44585" lon="5.99639">
        <ele>360.60000610352</ele>
        <time>2017-05-31T13:04:16Z</time>
      </trkpt>
      <trkpt lat="43.44588" lon="5.99639">
        <ele>360.79998779297</ele>
        <time>2017-05-31T13:04:17Z</time>
      </trkpt>
      <trkpt lat="43.44595" lon="5.99638">
        <ele>361.39999389648</ele>
        <time>2017-05-31T13:04:20Z</time>
      </trkpt>
      <trkpt lat="43.44608" lon="5.99642">
        <ele>361.79998779297</ele>
        <time>2017-05-31T13:04:25Z</time>
      </trkpt>
      <trkpt lat="43.44619" lon="5.99648">
        <ele>362.39999389648</ele>
        <time>2017-05-31T13:04:30Z</time>
      </trkpt>
      <trkpt lat="43.44628" lon="5.9966">
        <ele>363</ele>
        <time>2017-05-31T13:04:35Z</time>
      </trkpt>
      <trkpt lat="43.4463" lon="5.99662">
        <ele>363</ele>
        <time>2017-05-31T13:04:36Z</time>
      </trkpt>
      <trkpt lat="43.44656" lon="5.99677">
        <ele>363.39999389648</ele>
        <time>2017-05-31T13:04:46Z</time>
      </trkpt>
      <trkpt lat="43.44669" lon="5.99686">
        <ele>363</ele>
        <time>2017-05-31T13:04:51Z</time>
      </trkpt>
      <trkpt lat="43.44686" lon="5.997">
        <ele>362</ele>
        <time>2017-05-31T13:04:55Z</time>
      </trkpt>
      <trkpt lat="43.44692" lon="5.99702">
        <ele>361.60000610352</ele>
        <time>2017-05-31T13:04:56Z</time>
      </trkpt>
      <trkpt lat="43.44697" lon="5.99702">
        <ele>361.39999389648</ele>
        <time>2017-05-31T13:04:57Z</time>
      </trkpt>
      <trkpt lat="43.44709" lon="5.99702">
        <ele>360.60000610352</ele>
        <time>2017-05-31T13:04:59Z</time>
      </trkpt>
      <trkpt lat="43.44724" lon="5.99701">
        <ele>359.60000610352</ele>
        <time>2017-05-31T13:05:03Z</time>
      </trkpt>
      <trkpt lat="43.44729" lon="5.99703">
        <ele>359.79998779297</ele>
        <time>2017-05-31T13:05:07Z</time>
      </trkpt>
      <trkpt lat="43.44742" lon="5.99709">
        <ele>360</ele>
        <time>2017-05-31T13:05:14Z</time>
      </trkpt>
      <trkpt lat="43.44748" lon="5.99714">
        <ele>360</ele>
        <time>2017-05-31T13:05:17Z</time>
      </trkpt>
      <trkpt lat="43.44771" lon="5.99731">
        <ele>360</ele>
        <time>2017-05-31T13:05:26Z</time>
      </trkpt>
      <trkpt lat="43.44798" lon="5.99751">
        <ele>359.79998779297</ele>
        <time>2017-05-31T13:05:36Z</time>
      </trkpt>
      <trkpt lat="43.44819" lon="5.99765">
        <ele>360.39999389648</ele>
        <time>2017-05-31T13:05:44Z</time>
      </trkpt>
      <trkpt lat="43.44827" lon="5.99771">
        <ele>360.39999389648</ele>
        <time>2017-05-31T13:05:47Z</time>
      </trkpt>
      <trkpt lat="43.44854" lon="5.99788">
        <ele>360.79998779297</ele>
        <time>2017-05-31T13:05:56Z</time>
      </trkpt>
      <trkpt lat="43.44857" lon="5.9979">
        <ele>360.79998779297</ele>
        <time>2017-05-31T13:05:57Z</time>
      </trkpt>
      <trkpt lat="43.44886" lon="5.99809">
        <ele>361.79998779297</ele>
        <time>2017-05-31T13:06:07Z</time>
      </trkpt>
      <trkpt lat="43.44889" lon="5.9981">
        <ele>361.79998779297</ele>
        <time>2017-05-31T13:06:08Z</time>
      </trkpt>
      <trkpt lat="43.44915" lon="5.99821">
        <ele>362.39999389648</ele>
        <time>2017-05-31T13:06:17Z</time>
      </trkpt>
      <trkpt lat="43.44924" lon="5.99825">
        <ele>362.79998779297</ele>
        <time>2017-05-31T13:06:20Z</time>
      </trkpt>
      <trkpt lat="43.44944" lon="5.99832">
        <ele>363.79998779297</ele>
        <time>2017-05-31T13:06:28Z</time>
      </trkpt>
      <trkpt lat="43.44969" lon="5.9985">
        <ele>364.39999389648</ele>
        <time>2017-05-31T13:06:38Z</time>
      </trkpt>
      <trkpt lat="43.44993" lon="5.9987">
        <ele>364.79998779297</ele>
        <time>2017-05-31T13:06:47Z</time>
      </trkpt>
      <trkpt lat="43.44995" lon="5.99872">
        <ele>365</ele>
        <time>2017-05-31T13:06:48Z</time>
      </trkpt>
      <trkpt lat="43.45022" lon="5.99892">
        <ele>365.60000610352</ele>
        <time>2017-05-31T13:06:58Z</time>
      </trkpt>
      <trkpt lat="43.45039" lon="5.99902">
        <ele>365.79998779297</ele>
        <time>2017-05-31T13:07:04Z</time>
      </trkpt>
      <trkpt lat="43.4505" lon="5.99908">
        <ele>366</ele>
        <time>2017-05-31T13:07:08Z</time>
      </trkpt>
      <trkpt lat="43.45082" lon="5.99924">
        <ele>367</ele>
        <time>2017-05-31T13:07:19Z</time>
      </trkpt>
      <trkpt lat="43.45108" lon="5.99937">
        <ele>367.60000610352</ele>
        <time>2017-05-31T13:07:28Z</time>
      </trkpt>
      <trkpt lat="43.45126" lon="5.99946">
        <ele>368</ele>
        <time>2017-05-31T13:07:34Z</time>
      </trkpt>
      <trkpt lat="43.45136" lon="5.99951">
        <ele>368</ele>
        <time>2017-05-31T13:07:38Z</time>
      </trkpt>
      <trkpt lat="43.4516" lon="5.99965">
        <ele>368</ele>
        <time>2017-05-31T13:07:46Z</time>
      </trkpt>
      <trkpt lat="43.45166" lon="5.99968">
        <ele>368</ele>
        <time>2017-05-31T13:07:48Z</time>
      </trkpt>
      <trkpt lat="43.45198" lon="5.99985">
        <ele>367.39999389648</ele>
        <time>2017-05-31T13:07:58Z</time>
      </trkpt>
      <trkpt lat="43.4523" lon="5.99994">
        <ele>367.60000610352</ele>
        <time>2017-05-31T13:08:09Z</time>
      </trkpt>
      <trkpt lat="43.45244" lon="5.9999">
        <ele>367.79998779297</ele>
        <time>2017-05-31T13:08:14Z</time>
      </trkpt>
      <trkpt lat="43.45258" lon="5.99997">
        <ele>368.39999389648</ele>
        <time>2017-05-31T13:08:19Z</time>
      </trkpt>
      <trkpt lat="43.45271" lon="6.00007">
        <ele>369</ele>
        <time>2017-05-31T13:08:24Z</time>
      </trkpt>
      <trkpt lat="43.45286" lon="6.00014">
        <ele>369.20001220703</ele>
        <time>2017-05-31T13:08:29Z</time>
      </trkpt>
      <trkpt lat="43.45315" lon="6.00028">
        <ele>369.39999389648</ele>
        <time>2017-05-31T13:08:39Z</time>
      </trkpt>
      <trkpt lat="43.45345" lon="6.0005">
        <ele>369.79998779297</ele>
        <time>2017-05-31T13:08:49Z</time>
      </trkpt>
      <trkpt lat="43.4535" lon="6.00059">
        <ele>370</ele>
        <time>2017-05-31T13:08:52Z</time>
      </trkpt>
      <trkpt lat="43.45371" lon="6.00068">
        <ele>369.60000610352</ele>
        <time>2017-05-31T13:08:59Z</time>
      </trkpt>
      <trkpt lat="43.45389" lon="6.00063">
        <ele>370.20001220703</ele>
        <time>2017-05-31T13:09:06Z</time>
      </trkpt>
      <trkpt lat="43.45394" lon="6.00063">
        <ele>370.60000610352</ele>
        <time>2017-05-31T13:09:08Z</time>
      </trkpt>
      <trkpt lat="43.45396" lon="6.00065">
        <ele>371</ele>
        <time>2017-05-31T13:09:09Z</time>
      </trkpt>
      <trkpt lat="43.45402" lon="6.00069">
        <ele>371.39999389648</ele>
        <time>2017-05-31T13:09:11Z</time>
      </trkpt>
      <trkpt lat="43.45415" lon="6.00075">
        <ele>372.39999389648</ele>
        <time>2017-05-31T13:09:18Z</time>
      </trkpt>
      <trkpt lat="43.4542" lon="6.00075">
        <ele>372.39999389648</ele>
        <time>2017-05-31T13:09:20Z</time>
      </trkpt>
      <trkpt lat="43.45444" lon="6.00073">
        <ele>373.20001220703</ele>
        <time>2017-05-31T13:09:31Z</time>
      </trkpt>
      <trkpt lat="43.45456" lon="6.00075">
        <ele>373.39999389648</ele>
        <time>2017-05-31T13:09:37Z</time>
      </trkpt>
      <trkpt lat="43.45465" lon="6.00077">
        <ele>373.60000610352</ele>
        <time>2017-05-31T13:09:41Z</time>
      </trkpt>
      <trkpt lat="43.45483" lon="6.00081">
        <ele>374.39999389648</ele>
        <time>2017-05-31T13:09:51Z</time>
      </trkpt>
      <trkpt lat="43.45485" lon="6.00082">
        <ele>374.39999389648</ele>
        <time>2017-05-31T13:09:52Z</time>
      </trkpt>
      <trkpt lat="43.45496" lon="6.00088">
        <ele>375.39999389648</ele>
        <time>2017-05-31T13:09:59Z</time>
      </trkpt>
      <trkpt lat="43.455" lon="6.0009">
        <ele>375.79998779297</ele>
        <time>2017-05-31T13:10:01Z</time>
      </trkpt>
      <trkpt lat="43.4551" lon="6.00106">
        <ele>376.39999389648</ele>
        <time>2017-05-31T13:10:09Z</time>
      </trkpt>
      <trkpt lat="43.45514" lon="6.00115">
        <ele>376.39999389648</ele>
        <time>2017-05-31T13:10:12Z</time>
      </trkpt>
      <trkpt lat="43.45526" lon="6.00125">
        <ele>376.60000610352</ele>
        <time>2017-05-31T13:10:19Z</time>
      </trkpt>
      <trkpt lat="43.45531" lon="6.00126">
        <ele>376.79998779297</ele>
        <time>2017-05-31T13:10:22Z</time>
      </trkpt>
      <trkpt lat="43.4554" lon="6.00125">
        <ele>377.20001220703</ele>
        <time>2017-05-31T13:10:28Z</time>
      </trkpt>
      <trkpt lat="43.45549" lon="6.00123">
        <ele>377.20001220703</ele>
        <time>2017-05-31T13:10:33Z</time>
      </trkpt>
      <trkpt lat="43.45562" lon="6.00117">
        <ele>378.60000610352</ele>
        <time>2017-05-31T13:10:43Z</time>
      </trkpt>
      <trkpt lat="43.45573" lon="6.00115">
        <ele>379.79998779297</ele>
        <time>2017-05-31T13:10:50Z</time>
      </trkpt>
      <trkpt lat="43.45584" lon="6.00114">
        <ele>380.79998779297</ele>
        <time>2017-05-31T13:10:57Z</time>
      </trkpt>
      <trkpt lat="43.45594" lon="6.00111">
        <ele>381.79998779297</ele>
        <time>2017-05-31T13:11:04Z</time>
      </trkpt>
      <trkpt lat="43.45598" lon="6.00111">
        <ele>382</ele>
        <time>2017-05-31T13:11:07Z</time>
      </trkpt>
      <trkpt lat="43.45609" lon="6.00111">
        <ele>382.79998779297</ele>
        <time>2017-05-31T13:11:14Z</time>
      </trkpt>
      <trkpt lat="43.45613" lon="6.00111">
        <ele>383</ele>
        <time>2017-05-31T13:11:16Z</time>
      </trkpt>
      <trkpt lat="43.45625" lon="6.00109">
        <ele>383.79998779297</ele>
        <time>2017-05-31T13:11:23Z</time>
      </trkpt>
      <trkpt lat="43.45639" lon="6.00109">
        <ele>385</ele>
        <time>2017-05-31T13:11:32Z</time>
      </trkpt>
      <trkpt lat="43.45642" lon="6.00108">
        <ele>385.39999389648</ele>
        <time>2017-05-31T13:11:34Z</time>
      </trkpt>
      <trkpt lat="43.45649" lon="6.00105">
        <ele>386.20001220703</ele>
        <time>2017-05-31T13:11:39Z</time>
      </trkpt>
      <trkpt lat="43.45651" lon="6.00104">
        <ele>386.39999389648</ele>
        <time>2017-05-31T13:11:41Z</time>
      </trkpt>
      <trkpt lat="43.45655" lon="6.00102">
        <ele>386.79998779297</ele>
        <time>2017-05-31T13:11:44Z</time>
      </trkpt>
      <trkpt lat="43.45658" lon="6.001">
        <ele>387.20001220703</ele>
        <time>2017-05-31T13:11:46Z</time>
      </trkpt>
      <trkpt lat="43.45678" lon="6.00098">
        <ele>389.39999389648</ele>
        <time>2017-05-31T13:12:01Z</time>
      </trkpt>
      <trkpt lat="43.45691" lon="6.00096">
        <ele>390.60000610352</ele>
        <time>2017-05-31T13:12:12Z</time>
      </trkpt>
      <trkpt lat="43.45707" lon="6.00093">
        <ele>392.60000610352</ele>
        <time>2017-05-31T13:12:25Z</time>
      </trkpt>
      <trkpt lat="43.45708" lon="6.00093">
        <ele>392.79998779297</ele>
        <time>2017-05-31T13:12:26Z</time>
      </trkpt>
      <trkpt lat="43.4571" lon="6.00093">
        <ele>393.39999389648</ele>
        <time>2017-05-31T13:12:33Z</time>
      </trkpt>
      <trkpt lat="43.4571" lon="6.00094">
        <ele>393.39999389648</ele>
        <time>2017-05-31T13:12:35Z</time>
      </trkpt>
      <trkpt lat="43.45714" lon="6.00095">
        <ele>393.20001220703</ele>
        <time>2017-05-31T13:12:39Z</time>
      </trkpt>
      <trkpt lat="43.45719" lon="6.00093">
        <ele>393.79998779297</ele>
        <time>2017-05-31T13:12:43Z</time>
      </trkpt>
      <trkpt lat="43.45721" lon="6.00093">
        <ele>394</ele>
        <time>2017-05-31T13:12:45Z</time>
      </trkpt>
      <trkpt lat="43.45728" lon="6.00091">
        <ele>395</ele>
        <time>2017-05-31T13:12:51Z</time>
      </trkpt>
      <trkpt lat="43.45741" lon="6.00088">
        <ele>397</ele>
        <time>2017-05-31T13:13:01Z</time>
      </trkpt>
      <trkpt lat="43.45747" lon="6.00086">
        <ele>397.79998779297</ele>
        <time>2017-05-31T13:13:06Z</time>
      </trkpt>
      <trkpt lat="43.4576" lon="6.00085">
        <ele>399</ele>
        <time>2017-05-31T13:13:16Z</time>
      </trkpt>
      <trkpt lat="43.45767" lon="6.00085">
        <ele>400.20001220703</ele>
        <time>2017-05-31T13:13:22Z</time>
      </trkpt>
      <trkpt lat="43.45768" lon="6.00084">
        <ele>400.39999389648</ele>
        <time>2017-05-31T13:13:24Z</time>
      </trkpt>
      <trkpt lat="43.45771" lon="6.00085">
        <ele>400.39999389648</ele>
        <time>2017-05-31T13:13:26Z</time>
      </trkpt>
      <trkpt lat="43.45776" lon="6.00086">
        <ele>401.20001220703</ele>
        <time>2017-05-31T13:13:31Z</time>
      </trkpt>
      <trkpt lat="43.45779" lon="6.00086">
        <ele>401.39999389648</ele>
        <time>2017-05-31T13:13:33Z</time>
      </trkpt>
      <trkpt lat="43.45784" lon="6.00082">
        <ele>402.20001220703</ele>
        <time>2017-05-31T13:13:38Z</time>
      </trkpt>
      <trkpt lat="43.45794" lon="6.00084">
        <ele>403</ele>
        <time>2017-05-31T13:13:46Z</time>
      </trkpt>
      <trkpt lat="43.45795" lon="6.00083">
        <ele>403.39999389648</ele>
        <time>2017-05-31T13:13:48Z</time>
      </trkpt>
      <trkpt lat="43.45798" lon="6.00082">
        <ele>404.20001220703</ele>
        <time>2017-05-31T13:13:55Z</time>
      </trkpt>
      <trkpt lat="43.45798" lon="6.00082">
        <ele>404.20001220703</ele>
        <time>2017-05-31T13:13:56Z</time>
      </trkpt>
      <trkpt lat="43.45798" lon="6.00082">
        <ele>404</ele>
        <time>2017-05-31T13:13:59Z</time>
      </trkpt>
      <trkpt lat="43.45798" lon="6.00082">
        <ele>403.79998779297</ele>
        <time>2017-05-31T13:14:10Z</time>
      </trkpt>
      <trkpt lat="43.45798" lon="6.00082">
        <ele>403.60000610352</ele>
        <time>2017-05-31T13:14:27Z</time>
      </trkpt>
      <trkpt lat="43.45798" lon="6.00082">
        <ele>403.39999389648</ele>
        <time>2017-05-31T13:14:45Z</time>
      </trkpt>
      <trkpt lat="43.45798" lon="6.00083">
        <ele>403.39999389648</ele>
        <time>2017-05-31T13:15:08Z</time>
      </trkpt>
      <trkpt lat="43.45798" lon="6.00083">
        <ele>403.39999389648</ele>
        <time>2017-05-31T13:15:18Z</time>
      </trkpt>
      <trkpt lat="43.45798" lon="6.00082">
        <ele>403.20001220703</ele>
        <time>2017-05-31T13:15:26Z</time>
      </trkpt>
      <trkpt lat="43.45798" lon="6.0008">
        <ele>403</ele>
        <time>2017-05-31T13:15:29Z</time>
      </trkpt>
      <trkpt lat="43.45799" lon="6.00081">
        <ele>403.20001220703</ele>
        <time>2017-05-31T13:15:40Z</time>
      </trkpt>
      <trkpt lat="43.45799" lon="6.00081">
        <ele>403.20001220703</ele>
        <time>2017-05-31T13:15:51Z</time>
      </trkpt>
      <trkpt lat="43.45799" lon="6.00081">
        <ele>403.39999389648</ele>
        <time>2017-05-31T13:16:07Z</time>
      </trkpt>
      <trkpt lat="43.45799" lon="6.00081">
        <ele>403.39999389648</ele>
        <time>2017-05-31T13:16:11Z</time>
      </trkpt>
      <trkpt lat="43.45799" lon="6.00081">
        <ele>403.39999389648</ele>
        <time>2017-05-31T13:16:21Z</time>
      </trkpt>
      <trkpt lat="43.45799" lon="6.00081">
        <ele>403.39999389648</ele>
        <time>2017-05-31T13:16:31Z</time>
      </trkpt>
      <trkpt lat="43.45799" lon="6.00081">
        <ele>403.39999389648</ele>
        <time>2017-05-31T13:16:41Z</time>
      </trkpt>
      <trkpt lat="43.45799" lon="6.0008">
        <ele>403.39999389648</ele>
        <time>2017-05-31T13:17:21Z</time>
      </trkpt>
      <trkpt lat="43.45799" lon="6.0008">
        <ele>403.39999389648</ele>
        <time>2017-05-31T13:17:43Z</time>
      </trkpt>
      <trkpt lat="43.458" lon="6.0008">
        <ele>403.39999389648</ele>
        <time>2017-05-31T13:18:03Z</time>
      </trkpt>
      <trkpt lat="43.45799" lon="6.0008">
        <ele>403.39999389648</ele>
        <time>2017-05-31T13:18:12Z</time>
      </trkpt>
      <trkpt lat="43.458" lon="6.0008">
        <ele>403.39999389648</ele>
        <time>2017-05-31T13:18:13Z</time>
      </trkpt>
      <trkpt lat="43.45799" lon="6.00081">
        <ele>403.39999389648</ele>
        <time>2017-05-31T13:18:23Z</time>
      </trkpt>
      <trkpt lat="43.45799" lon="6.00081">
        <ele>403.39999389648</ele>
        <time>2017-05-31T13:18:24Z</time>
      </trkpt>
      <trkpt lat="43.45799" lon="6.0008">
        <ele>403.39999389648</ele>
        <time>2017-05-31T13:18:33Z</time>
      </trkpt>
      <trkpt lat="43.45798" lon="6.00081">
        <ele>403.39999389648</ele>
        <time>2017-05-31T13:18:43Z</time>
      </trkpt>
      <trkpt lat="43.45796" lon="6.00082">
        <ele>403.39999389648</ele>
        <time>2017-05-31T13:18:48Z</time>
      </trkpt>
      <trkpt lat="43.45793" lon="6.00083">
        <ele>403.39999389648</ele>
        <time>2017-05-31T13:18:50Z</time>
      </trkpt>
      <trkpt lat="43.45784" lon="6.0008">
        <ele>402.20001220703</ele>
        <time>2017-05-31T13:18:54Z</time>
      </trkpt>
      <trkpt lat="43.45765" lon="6.00082">
        <ele>401</ele>
        <time>2017-05-31T13:19:01Z</time>
      </trkpt>
      <trkpt lat="43.45761" lon="6.00083">
        <ele>400</ele>
        <time>2017-05-31T13:19:05Z</time>
      </trkpt>
      <trkpt lat="43.45761" lon="6.00083">
        <ele>400</ele>
        <time>2017-05-31T13:19:06Z</time>
      </trkpt>
      <trkpt lat="43.45761" lon="6.00083">
        <ele>399.79998779297</ele>
        <time>2017-05-31T13:19:14Z</time>
      </trkpt>
      <trkpt lat="43.45761" lon="6.00083">
        <ele>399.79998779297</ele>
        <time>2017-05-31T13:19:35Z</time>
      </trkpt>
      <trkpt lat="43.45761" lon="6.00082">
        <ele>400</ele>
        <time>2017-05-31T13:20:05Z</time>
      </trkpt>
      <trkpt lat="43.45756" lon="6.00083">
        <ele>399.60000610352</ele>
        <time>2017-05-31T13:20:27Z</time>
      </trkpt>
      <trkpt lat="43.45748" lon="6.00084">
        <ele>398.79998779297</ele>
        <time>2017-05-31T13:20:31Z</time>
      </trkpt>
      <trkpt lat="43.45734" lon="6.00086">
        <ele>398</ele>
        <time>2017-05-31T13:20:37Z</time>
      </trkpt>
      <trkpt lat="43.4572" lon="6.0009">
        <ele>396.60000610352</ele>
        <time>2017-05-31T13:20:41Z</time>
      </trkpt>
      <trkpt lat="43.45709" lon="6.00092">
        <ele>395.39999389648</ele>
        <time>2017-05-31T13:20:44Z</time>
      </trkpt>
      <trkpt lat="43.45697" lon="6.00095">
        <ele>394.39999389648</ele>
        <time>2017-05-31T13:20:47Z</time>
      </trkpt>
      <trkpt lat="43.45684" lon="6.00097">
        <ele>392.79998779297</ele>
        <time>2017-05-31T13:20:50Z</time>
      </trkpt>
      <trkpt lat="43.45672" lon="6.00099">
        <ele>391.39999389648</ele>
        <time>2017-05-31T13:20:53Z</time>
      </trkpt>
      <trkpt lat="43.45658" lon="6.00101">
        <ele>390</ele>
        <time>2017-05-31T13:20:56Z</time>
      </trkpt>
      <trkpt lat="43.45648" lon="6.00102">
        <ele>389</ele>
        <time>2017-05-31T13:20:58Z</time>
      </trkpt>
      <trkpt lat="43.45644" lon="6.00104">
        <ele>388.79998779297</ele>
        <time>2017-05-31T13:20:59Z</time>
      </trkpt>
      <trkpt lat="43.45628" lon="6.00109">
        <ele>387.60000610352</ele>
        <time>2017-05-31T13:21:02Z</time>
      </trkpt>
      <trkpt lat="43.45616" lon="6.00111">
        <ele>386.60000610352</ele>
        <time>2017-05-31T13:21:04Z</time>
      </trkpt>
      <trkpt lat="43.45597" lon="6.00112">
        <ele>385</ele>
        <time>2017-05-31T13:21:07Z</time>
      </trkpt>
      <trkpt lat="43.45584" lon="6.00115">
        <ele>384</ele>
        <time>2017-05-31T13:21:09Z</time>
      </trkpt>
      <trkpt lat="43.45572" lon="6.00117">
        <ele>382.79998779297</ele>
        <time>2017-05-31T13:21:11Z</time>
      </trkpt>
      <trkpt lat="43.45561" lon="6.0012">
        <ele>381.60000610352</ele>
        <time>2017-05-31T13:21:13Z</time>
      </trkpt>
      <trkpt lat="43.4555" lon="6.00123">
        <ele>380.20001220703</ele>
        <time>2017-05-31T13:21:15Z</time>
      </trkpt>
      <trkpt lat="43.45538" lon="6.00124">
        <ele>379.39999389648</ele>
        <time>2017-05-31T13:21:17Z</time>
      </trkpt>
      <trkpt lat="43.45532" lon="6.00123">
        <ele>379</ele>
        <time>2017-05-31T13:21:18Z</time>
      </trkpt>
      <trkpt lat="43.45512" lon="6.001">
        <ele>378.39999389648</ele>
        <time>2017-05-31T13:21:27Z</time>
      </trkpt>
      <trkpt lat="43.45499" lon="6.00084">
        <ele>378.39999389648</ele>
        <time>2017-05-31T13:21:33Z</time>
      </trkpt>
      <trkpt lat="43.45486" lon="6.00082">
        <ele>377.20001220703</ele>
        <time>2017-05-31T13:21:37Z</time>
      </trkpt>
      <trkpt lat="43.45476" lon="6.00077">
        <ele>376.79998779297</ele>
        <time>2017-05-31T13:21:40Z</time>
      </trkpt>
      <trkpt lat="43.45448" lon="6.00072">
        <ele>375.20001220703</ele>
        <time>2017-05-31T13:21:47Z</time>
      </trkpt>
      <trkpt lat="43.45444" lon="6.00072">
        <ele>375.20001220703</ele>
        <time>2017-05-31T13:21:48Z</time>
      </trkpt>
      <trkpt lat="43.45404" lon="6.00073">
        <ele>374.39999389648</ele>
        <time>2017-05-31T13:21:57Z</time>
      </trkpt>
      <trkpt lat="43.45399" lon="6.00071">
        <ele>374.20001220703</ele>
        <time>2017-05-31T13:21:58Z</time>
      </trkpt>
      <trkpt lat="43.45391" lon="6.00065">
        <ele>373.79998779297</ele>
        <time>2017-05-31T13:22:00Z</time>
      </trkpt>
      <trkpt lat="43.45387" lon="6.00065">
        <ele>373.20001220703</ele>
        <time>2017-05-31T13:22:01Z</time>
      </trkpt>
      <trkpt lat="43.45368" lon="6.0007">
        <ele>372.20001220703</ele>
        <time>2017-05-31T13:22:05Z</time>
      </trkpt>
      <trkpt lat="43.4536" lon="6.00066">
        <ele>371.60000610352</ele>
        <time>2017-05-31T13:22:07Z</time>
      </trkpt>
      <trkpt lat="43.45333" lon="6.00031">
        <ele>372</ele>
        <time>2017-05-31T13:22:18Z</time>
      </trkpt>
      <trkpt lat="43.45322" lon="6.00026">
        <ele>371.79998779297</ele>
        <time>2017-05-31T13:22:22Z</time>
      </trkpt>
      <trkpt lat="43.45319" lon="6.00025">
        <ele>371.60000610352</ele>
        <time>2017-05-31T13:22:23Z</time>
      </trkpt>
      <trkpt lat="43.45308" lon="6.00023">
        <ele>371.39999389648</ele>
        <time>2017-05-31T13:22:27Z</time>
      </trkpt>
      <trkpt lat="43.45298" lon="6.00019">
        <ele>371.20001220703</ele>
        <time>2017-05-31T13:22:31Z</time>
      </trkpt>
      <trkpt lat="43.45291" lon="6.00014">
        <ele>371.20001220703</ele>
        <time>2017-05-31T13:22:36Z</time>
      </trkpt>
      <trkpt lat="43.45294" lon="6.00014">
        <ele>371.39999389648</ele>
        <time>2017-05-31T13:22:38Z</time>
      </trkpt>
      <trkpt lat="43.45294" lon="6.00013">
        <ele>372</ele>
        <time>2017-05-31T13:22:48Z</time>
      </trkpt>
      <trkpt lat="43.45294" lon="6.00013">
        <ele>371.79998779297</ele>
        <time>2017-05-31T13:22:58Z</time>
      </trkpt>
      <trkpt lat="43.4529" lon="6.00012">
        <ele>371.39999389648</ele>
        <time>2017-05-31T13:23:01Z</time>
      </trkpt>
      <trkpt lat="43.45274" lon="6.00005">
        <ele>371.20001220703</ele>
        <time>2017-05-31T13:23:08Z</time>
      </trkpt>
      <trkpt lat="43.45267" lon="6.00001">
        <ele>371.20001220703</ele>
        <time>2017-05-31T13:23:11Z</time>
      </trkpt>
      <trkpt lat="43.45246" lon="5.99989">
        <ele>370.39999389648</ele>
        <time>2017-05-31T13:23:18Z</time>
      </trkpt>
      <trkpt lat="43.45237" lon="5.9999">
        <ele>370</ele>
        <time>2017-05-31T13:23:21Z</time>
      </trkpt>
      <trkpt lat="43.45214" lon="5.99991">
        <ele>369.60000610352</ele>
        <time>2017-05-31T13:23:27Z</time>
      </trkpt>
      <trkpt lat="43.45194" lon="5.99981">
        <ele>369.60000610352</ele>
        <time>2017-05-31T13:23:33Z</time>
      </trkpt>
      <trkpt lat="43.45146" lon="5.99954">
        <ele>369.79998779297</ele>
        <time>2017-05-31T13:23:48Z</time>
      </trkpt>
      <trkpt lat="43.45116" lon="5.99937">
        <ele>370</ele>
        <time>2017-05-31T13:23:57Z</time>
      </trkpt>
      <trkpt lat="43.45078" lon="5.99918">
        <ele>369.60000610352</ele>
        <time>2017-05-31T13:24:07Z</time>
      </trkpt>
      <trkpt lat="43.45055" lon="5.99906">
        <ele>369</ele>
        <time>2017-05-31T13:24:12Z</time>
      </trkpt>
      <trkpt lat="43.45027" lon="5.9989">
        <ele>368.39999389648</ele>
        <time>2017-05-31T13:24:18Z</time>
      </trkpt>
      <trkpt lat="43.45018" lon="5.99885">
        <ele>368</ele>
        <time>2017-05-31T13:24:20Z</time>
      </trkpt>
      <trkpt lat="43.44982" lon="5.99855">
        <ele>367.20001220703</ele>
        <time>2017-05-31T13:24:28Z</time>
      </trkpt>
      <trkpt lat="43.44973" lon="5.99847">
        <ele>367</ele>
        <time>2017-05-31T13:24:30Z</time>
      </trkpt>
      <trkpt lat="43.44958" lon="5.99835">
        <ele>366.60000610352</ele>
        <time>2017-05-31T13:24:33Z</time>
      </trkpt>
      <trkpt lat="43.44937" lon="5.99824">
        <ele>366</ele>
        <time>2017-05-31T13:24:37Z</time>
      </trkpt>
      <trkpt lat="43.44931" lon="5.99822">
        <ele>365.79998779297</ele>
        <time>2017-05-31T13:24:38Z</time>
      </trkpt>
      <trkpt lat="43.44889" lon="5.99804">
        <ele>364.60000610352</ele>
        <time>2017-05-31T13:24:45Z</time>
      </trkpt>
      <trkpt lat="43.44872" lon="5.99792">
        <ele>363.60000610352</ele>
        <time>2017-05-31T13:24:48Z</time>
      </trkpt>
      <trkpt lat="43.44861" lon="5.99784">
        <ele>363.39999389648</ele>
        <time>2017-05-31T13:24:50Z</time>
      </trkpt>
      <trkpt lat="43.44799" lon="5.99743">
        <ele>362.39999389648</ele>
        <time>2017-05-31T13:25:01Z</time>
      </trkpt>
      <trkpt lat="43.44778" lon="5.9973">
        <ele>362.39999389648</ele>
        <time>2017-05-31T13:25:05Z</time>
      </trkpt>
      <trkpt lat="43.44764" lon="5.9972">
        <ele>362.39999389648</ele>
        <time>2017-05-31T13:25:08Z</time>
      </trkpt>
      <trkpt lat="43.44741" lon="5.99703">
        <ele>361.79998779297</ele>
        <time>2017-05-31T13:25:14Z</time>
      </trkpt>
      <trkpt lat="43.44731" lon="5.99698">
        <ele>361.79998779297</ele>
        <time>2017-05-31T13:25:18Z</time>
      </trkpt>
      <trkpt lat="43.44731" lon="5.99697">
        <ele>362.20001220703</ele>
        <time>2017-05-31T13:25:27Z</time>
      </trkpt>
      <trkpt lat="43.44731" lon="5.99697">
        <ele>362.39999389648</ele>
        <time>2017-05-31T13:25:37Z</time>
      </trkpt>
      <trkpt lat="43.44731" lon="5.99697">
        <ele>362.39999389648</ele>
        <time>2017-05-31T13:25:58Z</time>
      </trkpt>
      <trkpt lat="43.44729" lon="5.99699">
        <ele>362.60000610352</ele>
        <time>2017-05-31T13:26:05Z</time>
      </trkpt>
      <trkpt lat="43.44728" lon="5.99702">
        <ele>362.60000610352</ele>
        <time>2017-05-31T13:26:07Z</time>
      </trkpt>
      <trkpt lat="43.44727" lon="5.99705">
        <ele>362.39999389648</ele>
        <time>2017-05-31T13:26:08Z</time>
      </trkpt>
      <trkpt lat="43.44721" lon="5.99741">
        <ele>361.39999389648</ele>
        <time>2017-05-31T13:26:14Z</time>
      </trkpt>
      <trkpt lat="43.44719" lon="5.99758">
        <ele>360.39999389648</ele>
        <time>2017-05-31T13:26:16Z</time>
      </trkpt>
      <trkpt lat="43.44717" lon="5.99775">
        <ele>359.39999389648</ele>
        <time>2017-05-31T13:26:18Z</time>
      </trkpt>
      <trkpt lat="43.44716" lon="5.99784">
        <ele>359</ele>
        <time>2017-05-31T13:26:19Z</time>
      </trkpt>
      <trkpt lat="43.44707" lon="5.99847">
        <ele>358.39999389648</ele>
        <time>2017-05-31T13:26:26Z</time>
      </trkpt>
      <trkpt lat="43.44705" lon="5.99867">
        <ele>358.39999389648</ele>
        <time>2017-05-31T13:26:28Z</time>
      </trkpt>
      <trkpt lat="43.44702" lon="5.99896">
        <ele>358</ele>
        <time>2017-05-31T13:26:31Z</time>
      </trkpt>
      <trkpt lat="43.44691" lon="5.99974">
        <ele>357</ele>
        <time>2017-05-31T13:26:39Z</time>
      </trkpt>
      <trkpt lat="43.44673" lon="6.00116">
        <ele>356.60000610352</ele>
        <time>2017-05-31T13:26:54Z</time>
      </trkpt>
      <trkpt lat="43.44662" lon="6.002">
        <ele>356.39999389648</ele>
        <time>2017-05-31T13:27:03Z</time>
      </trkpt>
      <trkpt lat="43.44654" lon="6.00256">
        <ele>356</ele>
        <time>2017-05-31T13:27:09Z</time>
      </trkpt>
      <trkpt lat="43.44645" lon="6.00332">
        <ele>354.79998779297</ele>
        <time>2017-05-31T13:27:17Z</time>
      </trkpt>
      <trkpt lat="43.4463" lon="6.00436">
        <ele>354</ele>
        <time>2017-05-31T13:27:28Z</time>
      </trkpt>
      <trkpt lat="43.44623" lon="6.00493">
        <ele>353.79998779297</ele>
        <time>2017-05-31T13:27:34Z</time>
      </trkpt>
      <trkpt lat="43.44619" lon="6.0053">
        <ele>353</ele>
        <time>2017-05-31T13:27:38Z</time>
      </trkpt>
      <trkpt lat="43.44615" lon="6.00558">
        <ele>352.79998779297</ele>
        <time>2017-05-31T13:27:41Z</time>
      </trkpt>
      <trkpt lat="43.44606" lon="6.00626">
        <ele>351.79998779297</ele>
        <time>2017-05-31T13:27:48Z</time>
      </trkpt>
      <trkpt lat="43.44604" lon="6.00646">
        <ele>351.60000610352</ele>
        <time>2017-05-31T13:27:50Z</time>
      </trkpt>
      <trkpt lat="43.44594" lon="6.00727">
        <ele>350.79998779297</ele>
        <time>2017-05-31T13:27:58Z</time>
      </trkpt>
      <trkpt lat="43.4459" lon="6.00765">
        <ele>350.60000610352</ele>
        <time>2017-05-31T13:28:02Z</time>
      </trkpt>
      <trkpt lat="43.44582" lon="6.00821">
        <ele>350.20001220703</ele>
        <time>2017-05-31T13:28:08Z</time>
      </trkpt>
      <trkpt lat="43.44571" lon="6.00906">
        <ele>351</ele>
        <time>2017-05-31T13:28:18Z</time>
      </trkpt>
      <trkpt lat="43.4456" lon="6.00986">
        <ele>351</ele>
        <time>2017-05-31T13:28:28Z</time>
      </trkpt>
      <trkpt lat="43.4455" lon="6.01065">
        <ele>350.60000610352</ele>
        <time>2017-05-31T13:28:38Z</time>
      </trkpt>
      <trkpt lat="43.44538" lon="6.01144">
        <ele>350.39999389648</ele>
        <time>2017-05-31T13:28:48Z</time>
      </trkpt>
      <trkpt lat="43.44526" lon="6.01224">
        <ele>350.60000610352</ele>
        <time>2017-05-31T13:28:58Z</time>
      </trkpt>
      <trkpt lat="43.44518" lon="6.01281">
        <ele>351.60000610352</ele>
        <time>2017-05-31T13:29:06Z</time>
      </trkpt>
      <trkpt lat="43.44516" lon="6.01294">
        <ele>352</ele>
        <time>2017-05-31T13:29:08Z</time>
      </trkpt>
      <trkpt lat="43.44514" lon="6.01307">
        <ele>352.60000610352</ele>
        <time>2017-05-31T13:29:10Z</time>
      </trkpt>
      <trkpt lat="43.4451" lon="6.01339">
        <ele>353.79998779297</ele>
        <time>2017-05-31T13:29:15Z</time>
      </trkpt>
      <trkpt lat="43.44507" lon="6.01358">
        <ele>354.39999389648</ele>
        <time>2017-05-31T13:29:18Z</time>
      </trkpt>
      <trkpt lat="43.44502" lon="6.01396">
        <ele>354.79998779297</ele>
        <time>2017-05-31T13:29:24Z</time>
      </trkpt>
      <trkpt lat="43.44491" lon="6.01481">
        <ele>355</ele>
        <time>2017-05-31T13:29:38Z</time>
      </trkpt>
      <trkpt lat="43.44487" lon="6.01503">
        <ele>355</ele>
        <time>2017-05-31T13:29:42Z</time>
      </trkpt>
      <trkpt lat="43.44483" lon="6.01538">
        <ele>355.79998779297</ele>
        <time>2017-05-31T13:29:48Z</time>
      </trkpt>
      <trkpt lat="43.44482" lon="6.01544">
        <ele>356</ele>
        <time>2017-05-31T13:29:49Z</time>
      </trkpt>
      <trkpt lat="43.44475" lon="6.016">
        <ele>356.39999389648</ele>
        <time>2017-05-31T13:29:58Z</time>
      </trkpt>
      <trkpt lat="43.44467" lon="6.01657">
        <ele>357.60000610352</ele>
        <time>2017-05-31T13:30:08Z</time>
      </trkpt>
      <trkpt lat="43.44465" lon="6.01668">
        <ele>358</ele>
        <time>2017-05-31T13:30:10Z</time>
      </trkpt>
      <trkpt lat="43.44459" lon="6.01714">
        <ele>359</ele>
        <time>2017-05-31T13:30:18Z</time>
      </trkpt>
      <trkpt lat="43.44458" lon="6.01719">
        <ele>359</ele>
        <time>2017-05-31T13:30:19Z</time>
      </trkpt>
      <trkpt lat="43.44456" lon="6.01747">
        <ele>359.79998779297</ele>
        <time>2017-05-31T13:30:25Z</time>
      </trkpt>
      <trkpt lat="43.44454" lon="6.01757">
        <ele>360</ele>
        <time>2017-05-31T13:30:28Z</time>
      </trkpt>
      <trkpt lat="43.44452" lon="6.01764">
        <ele>360</ele>
        <time>2017-05-31T13:30:31Z</time>
      </trkpt>
      <trkpt lat="43.44451" lon="6.01769">
        <ele>360</ele>
        <time>2017-05-31T13:30:34Z</time>
      </trkpt>
      <trkpt lat="43.4445" lon="6.01781">
        <ele>360.20001220703</ele>
        <time>2017-05-31T13:30:38Z</time>
      </trkpt>
      <trkpt lat="43.44445" lon="6.01828">
        <ele>360.39999389648</ele>
        <time>2017-05-31T13:30:48Z</time>
      </trkpt>
      <trkpt lat="43.44438" lon="6.01882">
        <ele>361</ele>
        <time>2017-05-31T13:30:58Z</time>
      </trkpt>
      <trkpt lat="43.44436" lon="6.01894">
        <ele>361</ele>
        <time>2017-05-31T13:31:00Z</time>
      </trkpt>
      <trkpt lat="43.44431" lon="6.01937">
        <ele>361.39999389648</ele>
        <time>2017-05-31T13:31:08Z</time>
      </trkpt>
      <trkpt lat="43.44425" lon="6.01974">
        <ele>362.20001220703</ele>
        <time>2017-05-31T13:31:16Z</time>
      </trkpt>
      <trkpt lat="43.44419" lon="6.02019">
        <ele>363</ele>
        <time>2017-05-31T13:31:24Z</time>
      </trkpt>
      <trkpt lat="43.44416" lon="6.02037">
        <ele>363.20001220703</ele>
        <time>2017-05-31T13:31:27Z</time>
      </trkpt>
      <trkpt lat="43.44415" lon="6.02043">
        <ele>363.20001220703</ele>
        <time>2017-05-31T13:31:28Z</time>
      </trkpt>
      <trkpt lat="43.4441" lon="6.02086">
        <ele>364.20001220703</ele>
        <time>2017-05-31T13:31:35Z</time>
      </trkpt>
      <trkpt lat="43.44408" lon="6.02105">
        <ele>364.39999389648</ele>
        <time>2017-05-31T13:31:38Z</time>
      </trkpt>
      <trkpt lat="43.44404" lon="6.02146">
        <ele>365.20001220703</ele>
        <time>2017-05-31T13:31:45Z</time>
      </trkpt>
      <trkpt lat="43.44402" lon="6.02164">
        <ele>365.60000610352</ele>
        <time>2017-05-31T13:31:48Z</time>
      </trkpt>
      <trkpt lat="43.44396" lon="6.02216">
        <ele>366.39999389648</ele>
        <time>2017-05-31T13:31:58Z</time>
      </trkpt>
      <trkpt lat="43.44389" lon="6.02261">
        <ele>367</ele>
        <time>2017-05-31T13:32:08Z</time>
      </trkpt>
      <trkpt lat="43.44387" lon="6.02289">
        <ele>367.39999389648</ele>
        <time>2017-05-31T13:32:15Z</time>
      </trkpt>
      <trkpt lat="43.44384" lon="6.02305">
        <ele>367.39999389648</ele>
        <time>2017-05-31T13:32:18Z</time>
      </trkpt>
      <trkpt lat="43.44374" lon="6.02371">
        <ele>367</ele>
        <time>2017-05-31T13:32:28Z</time>
      </trkpt>
      <trkpt lat="43.44369" lon="6.02408">
        <ele>366.39999389648</ele>
        <time>2017-05-31T13:32:33Z</time>
      </trkpt>
      <trkpt lat="43.44364" lon="6.02446">
        <ele>366.20001220703</ele>
        <time>2017-05-31T13:32:38Z</time>
      </trkpt>
      <trkpt lat="43.44352" lon="6.02525">
        <ele>365.79998779297</ele>
        <time>2017-05-31T13:32:48Z</time>
      </trkpt>
      <trkpt lat="43.44346" lon="6.02587">
        <ele>366</ele>
        <time>2017-05-31T13:32:56Z</time>
      </trkpt>
      <trkpt lat="43.44345" lon="6.02603">
        <ele>366.39999389648</ele>
        <time>2017-05-31T13:32:58Z</time>
      </trkpt>
      <trkpt lat="43.44345" lon="6.02633">
        <ele>367.20001220703</ele>
        <time>2017-05-31T13:33:02Z</time>
      </trkpt>
      <trkpt lat="43.44345" lon="6.02653">
        <ele>367.39999389648</ele>
        <time>2017-05-31T13:33:05Z</time>
      </trkpt>
      <trkpt lat="43.44345" lon="6.02673">
        <ele>367.39999389648</ele>
        <time>2017-05-31T13:33:08Z</time>
      </trkpt>
      <trkpt lat="43.44345" lon="6.02741">
        <ele>367.20001220703</ele>
        <time>2017-05-31T13:33:18Z</time>
      </trkpt>
      <trkpt lat="43.44345" lon="6.02771">
        <ele>367.20001220703</ele>
        <time>2017-05-31T13:33:22Z</time>
      </trkpt>
      <trkpt lat="43.44345" lon="6.02812">
        <ele>366.20001220703</ele>
        <time>2017-05-31T13:33:27Z</time>
      </trkpt>
      <trkpt lat="43.44345" lon="6.0282">
        <ele>365.79998779297</ele>
        <time>2017-05-31T13:33:28Z</time>
      </trkpt>
      <trkpt lat="43.44344" lon="6.02837">
        <ele>365.20001220703</ele>
        <time>2017-05-31T13:33:31Z</time>
      </trkpt>
      <trkpt lat="43.44342" lon="6.0284">
        <ele>365.20001220703</ele>
        <time>2017-05-31T13:33:32Z</time>
      </trkpt>
      <trkpt lat="43.4433" lon="6.02839">
        <ele>364.20001220703</ele>
        <time>2017-05-31T13:33:35Z</time>
      </trkpt>
      <trkpt lat="43.44325" lon="6.02835">
        <ele>364</ele>
        <time>2017-05-31T13:33:36Z</time>
      </trkpt>
      <trkpt lat="43.44317" lon="6.02828">
        <ele>363.20001220703</ele>
        <time>2017-05-31T13:33:38Z</time>
      </trkpt>
      <trkpt lat="43.44312" lon="6.02818">
        <ele>362.79998779297</ele>
        <time>2017-05-31T13:33:40Z</time>
      </trkpt>
      <trkpt lat="43.443" lon="6.02801">
        <ele>363</ele>
        <time>2017-05-31T13:33:44Z</time>
      </trkpt>
      <trkpt lat="43.44287" lon="6.02785">
        <ele>363.79998779297</ele>
        <time>2017-05-31T13:33:48Z</time>
      </trkpt>
      <trkpt lat="43.44284" lon="6.02781">
        <ele>364</ele>
        <time>2017-05-31T13:33:49Z</time>
      </trkpt>
      <trkpt lat="43.44259" lon="6.02748">
        <ele>362.79998779297</ele>
        <time>2017-05-31T13:33:56Z</time>
      </trkpt>
      <trkpt lat="43.44246" lon="6.02727">
        <ele>361.60000610352</ele>
        <time>2017-05-31T13:33:59Z</time>
      </trkpt>
      <trkpt lat="43.44223" lon="6.02698">
        <ele>360.20001220703</ele>
        <time>2017-05-31T13:34:03Z</time>
      </trkpt>
      <trkpt lat="43.44211" lon="6.02684">
        <ele>358.60000610352</ele>
        <time>2017-05-31T13:34:05Z</time>
      </trkpt>
      <trkpt lat="43.44205" lon="6.02675">
        <ele>357.60000610352</ele>
        <time>2017-05-31T13:34:06Z</time>
      </trkpt>
      <trkpt lat="43.442" lon="6.02666">
        <ele>356.79998779297</ele>
        <time>2017-05-31T13:34:07Z</time>
      </trkpt>
      <trkpt lat="43.44194" lon="6.02658">
        <ele>356.20001220703</ele>
        <time>2017-05-31T13:34:08Z</time>
      </trkpt>
      <trkpt lat="43.44189" lon="6.0265">
        <ele>355.60000610352</ele>
        <time>2017-05-31T13:34:09Z</time>
      </trkpt>
      <trkpt lat="43.4418" lon="6.02633">
        <ele>354.39999389648</ele>
        <time>2017-05-31T13:34:11Z</time>
      </trkpt>
      <trkpt lat="43.44176" lon="6.02624">
        <ele>354</ele>
        <time>2017-05-31T13:34:12Z</time>
      </trkpt>
      <trkpt lat="43.44168" lon="6.02606">
        <ele>353.39999389648</ele>
        <time>2017-05-31T13:34:14Z</time>
      </trkpt>
      <trkpt lat="43.44163" lon="6.02588">
        <ele>353</ele>
        <time>2017-05-31T13:34:16Z</time>
      </trkpt>
      <trkpt lat="43.44159" lon="6.02568">
        <ele>352.79998779297</ele>
        <time>2017-05-31T13:34:18Z</time>
      </trkpt>
      <trkpt lat="43.44152" lon="6.02539">
        <ele>352</ele>
        <time>2017-05-31T13:34:21Z</time>
      </trkpt>
      <trkpt lat="43.44146" lon="6.02482">
        <ele>351</ele>
        <time>2017-05-31T13:34:27Z</time>
      </trkpt>
      <trkpt lat="43.44147" lon="6.02474">
        <ele>351</ele>
        <time>2017-05-31T13:34:28Z</time>
      </trkpt>
      <trkpt lat="43.44157" lon="6.02404">
        <ele>350.79998779297</ele>
        <time>2017-05-31T13:34:36Z</time>
      </trkpt>
      <trkpt lat="43.4416" lon="6.02386">
        <ele>350.79998779297</ele>
        <time>2017-05-31T13:34:38Z</time>
      </trkpt>
      <trkpt lat="43.44165" lon="6.02347">
        <ele>350.60000610352</ele>
        <time>2017-05-31T13:34:43Z</time>
      </trkpt>
      <trkpt lat="43.44166" lon="6.0234">
        <ele>350.60000610352</ele>
        <time>2017-05-31T13:34:44Z</time>
      </trkpt>
      <trkpt lat="43.44164" lon="6.02326">
        <ele>350.39999389648</ele>
        <time>2017-05-31T13:34:46Z</time>
      </trkpt>
      <trkpt lat="43.44157" lon="6.02315">
        <ele>350.20001220703</ele>
        <time>2017-05-31T13:34:48Z</time>
      </trkpt>
      <trkpt lat="43.44138" lon="6.02296">
        <ele>348.60000610352</ele>
        <time>2017-05-31T13:34:52Z</time>
      </trkpt>
      <trkpt lat="43.44113" lon="6.02267">
        <ele>348</ele>
        <time>2017-05-31T13:34:57Z</time>
      </trkpt>
      <trkpt lat="43.44107" lon="6.02261">
        <ele>347.79998779297</ele>
        <time>2017-05-31T13:34:58Z</time>
      </trkpt>
      <trkpt lat="43.44097" lon="6.0225">
        <ele>347.60000610352</ele>
        <time>2017-05-31T13:35:00Z</time>
      </trkpt>
      <trkpt lat="43.44091" lon="6.02236">
        <ele>347.20001220703</ele>
        <time>2017-05-31T13:35:02Z</time>
      </trkpt>
      <trkpt lat="43.4409" lon="6.0222">
        <ele>346.79998779297</ele>
        <time>2017-05-31T13:35:04Z</time>
      </trkpt>
      <trkpt lat="43.44092" lon="6.02203">
        <ele>346.39999389648</ele>
        <time>2017-05-31T13:35:06Z</time>
      </trkpt>
      <trkpt lat="43.44092" lon="6.02194">
        <ele>346.20001220703</ele>
        <time>2017-05-31T13:35:07Z</time>
      </trkpt>
      <trkpt lat="43.44092" lon="6.02185">
        <ele>346</ele>
        <time>2017-05-31T13:35:08Z</time>
      </trkpt>
      <trkpt lat="43.44091" lon="6.02176">
        <ele>345.60000610352</ele>
        <time>2017-05-31T13:35:09Z</time>
      </trkpt>
      <trkpt lat="43.4409" lon="6.02168">
        <ele>345.20001220703</ele>
        <time>2017-05-31T13:35:10Z</time>
      </trkpt>
      <trkpt lat="43.44083" lon="6.02144">
        <ele>344.20001220703</ele>
        <time>2017-05-31T13:35:13Z</time>
      </trkpt>
      <trkpt lat="43.44079" lon="6.02129">
        <ele>343.79998779297</ele>
        <time>2017-05-31T13:35:15Z</time>
      </trkpt>
      <trkpt lat="43.4407" lon="6.02119">
        <ele>343.20001220703</ele>
        <time>2017-05-31T13:35:17Z</time>
      </trkpt>
      <trkpt lat="43.44065" lon="6.02115">
        <ele>343</ele>
        <time>2017-05-31T13:35:18Z</time>
      </trkpt>
      <trkpt lat="43.44059" lon="6.02113">
        <ele>342.60000610352</ele>
        <time>2017-05-31T13:35:19Z</time>
      </trkpt>
      <trkpt lat="43.44045" lon="6.02112">
        <ele>341.79998779297</ele>
        <time>2017-05-31T13:35:21Z</time>
      </trkpt>
      <trkpt lat="43.44025" lon="6.0211">
        <ele>340.39999389648</ele>
        <time>2017-05-31T13:35:24Z</time>
      </trkpt>
      <trkpt lat="43.44014" lon="6.02102">
        <ele>339.79998779297</ele>
        <time>2017-05-31T13:35:26Z</time>
      </trkpt>
      <trkpt lat="43.43986" lon="6.02069">
        <ele>338.39999389648</ele>
        <time>2017-05-31T13:35:31Z</time>
      </trkpt>
      <trkpt lat="43.4398" lon="6.02062">
        <ele>338</ele>
        <time>2017-05-31T13:35:32Z</time>
      </trkpt>
      <trkpt lat="43.43958" lon="6.02032">
        <ele>336.79998779297</ele>
        <time>2017-05-31T13:35:36Z</time>
      </trkpt>
      <trkpt lat="43.43946" lon="6.02018">
        <ele>336.39999389648</ele>
        <time>2017-05-31T13:35:38Z</time>
      </trkpt>
      <trkpt lat="43.43924" lon="6.0199">
        <ele>335.79998779297</ele>
        <time>2017-05-31T13:35:42Z</time>
      </trkpt>
      <trkpt lat="43.4389" lon="6.01954">
        <ele>335.60000610352</ele>
        <time>2017-05-31T13:35:48Z</time>
      </trkpt>
      <trkpt lat="43.43876" lon="6.01945">
        <ele>335.39999389648</ele>
        <time>2017-05-31T13:35:52Z</time>
      </trkpt>
      <trkpt lat="43.43876" lon="6.01945">
        <ele>335.39999389648</ele>
        <time>2017-05-31T13:35:54Z</time>
      </trkpt>
      <trkpt lat="43.43877" lon="6.01939">
        <ele>335.39999389648</ele>
        <time>2017-05-31T13:35:57Z</time>
      </trkpt>
      <trkpt lat="43.43876" lon="6.01937">
        <ele>335.39999389648</ele>
        <time>2017-05-31T13:35:58Z</time>
      </trkpt>
      <trkpt lat="43.43875" lon="6.01934">
        <ele>335.39999389648</ele>
        <time>2017-05-31T13:35:59Z</time>
      </trkpt>
      <trkpt lat="43.43863" lon="6.0192">
        <ele>335.39999389648</ele>
        <time>2017-05-31T13:36:08Z</time>
      </trkpt>
      <trkpt lat="43.43862" lon="6.0192">
        <ele>336</ele>
        <time>2017-05-31T13:36:17Z</time>
      </trkpt>
      <trkpt lat="43.43862" lon="6.01919">
        <ele>336</ele>
        <time>2017-05-31T13:36:18Z</time>
      </trkpt>
      <trkpt lat="43.43861" lon="6.01918">
        <ele>336</ele>
        <time>2017-05-31T13:36:28Z</time>
      </trkpt>
      <trkpt lat="43.43859" lon="6.0192">
        <ele>336</ele>
        <time>2017-05-31T13:36:38Z</time>
      </trkpt>
      <trkpt lat="43.4386" lon="6.01921">
        <ele>335.79998779297</ele>
        <time>2017-05-31T13:36:48Z</time>
      </trkpt>
      <trkpt lat="43.4386" lon="6.0192">
        <ele>335.79998779297</ele>
        <time>2017-05-31T13:36:55Z</time>
      </trkpt>
      <trkpt lat="43.43858" lon="6.01919">
        <ele>335.60000610352</ele>
        <time>2017-05-31T13:37:08Z</time>
      </trkpt>
      <trkpt lat="43.43858" lon="6.01914">
        <ele>335.20001220703</ele>
        <time>2017-05-31T13:37:17Z</time>
      </trkpt>
      <trkpt lat="43.43862" lon="6.01912">
        <ele>335.20001220703</ele>
        <time>2017-05-31T13:37:28Z</time>
      </trkpt>
      <trkpt lat="43.43867" lon="6.01915">
        <ele>335</ele>
        <time>2017-05-31T13:37:38Z</time>
      </trkpt>
      <trkpt lat="43.43868" lon="6.01917">
        <ele>334.79998779297</ele>
        <time>2017-05-31T13:37:43Z</time>
      </trkpt>
      <trkpt lat="43.43867" lon="6.01917">
        <ele>334.60000610352</ele>
        <time>2017-05-31T13:37:48Z</time>
      </trkpt>
      <trkpt lat="43.43866" lon="6.01917">
        <ele>334.79998779297</ele>
        <time>2017-05-31T13:37:53Z</time>
      </trkpt>
      <trkpt lat="43.43866" lon="6.01916">
        <ele>335</ele>
        <time>2017-05-31T13:37:58Z</time>
      </trkpt>
      <trkpt lat="43.43865" lon="6.01914">
        <ele>334.60000610352</ele>
        <time>2017-05-31T13:38:08Z</time>
      </trkpt>
      <trkpt lat="43.43864" lon="6.01913">
        <ele>334.39999389648</ele>
        <time>2017-05-31T13:38:18Z</time>
      </trkpt>
      <trkpt lat="43.43861" lon="6.01913">
        <ele>335</ele>
        <time>2017-05-31T13:38:29Z</time>
      </trkpt>
      <trkpt lat="43.43866" lon="6.0191">
        <ele>335.20001220703</ele>
        <time>2017-05-31T13:38:39Z</time>
      </trkpt>
      <trkpt lat="43.43864" lon="6.01912">
        <ele>335</ele>
        <time>2017-05-31T13:38:49Z</time>
      </trkpt>
      <trkpt lat="43.43865" lon="6.01913">
        <ele>334.60000610352</ele>
        <time>2017-05-31T13:38:58Z</time>
      </trkpt>
      <trkpt lat="43.43862" lon="6.01912">
        <ele>334.39999389648</ele>
        <time>2017-05-31T13:39:09Z</time>
      </trkpt>
      <trkpt lat="43.43857" lon="6.0191">
        <ele>334.79998779297</ele>
        <time>2017-05-31T13:39:19Z</time>
      </trkpt>
      <trkpt lat="43.43856" lon="6.0191">
        <ele>334.79998779297</ele>
        <time>2017-05-31T13:39:29Z</time>
      </trkpt>
      <trkpt lat="43.43857" lon="6.01912">
        <ele>334.79998779297</ele>
        <time>2017-05-31T13:39:37Z</time>
      </trkpt>
      <trkpt lat="43.43859" lon="6.01915">
        <ele>334.79998779297</ele>
        <time>2017-05-31T13:39:48Z</time>
      </trkpt>
      <trkpt lat="43.4386" lon="6.01917">
        <ele>334.79998779297</ele>
        <time>2017-05-31T13:39:59Z</time>
      </trkpt>
      <trkpt lat="43.43862" lon="6.0192">
        <ele>334.79998779297</ele>
        <time>2017-05-31T13:40:09Z</time>
      </trkpt>
      <trkpt lat="43.43869" lon="6.01922">
        <ele>334.79998779297</ele>
        <time>2017-05-31T13:40:19Z</time>
      </trkpt>
      <trkpt lat="43.43871" lon="6.0192">
        <ele>334.79998779297</ele>
        <time>2017-05-31T13:40:26Z</time>
      </trkpt>
      <trkpt lat="43.4387" lon="6.01918">
        <ele>334.79998779297</ele>
        <time>2017-05-31T13:40:30Z</time>
      </trkpt>
      <trkpt lat="43.43868" lon="6.01917">
        <ele>334.79998779297</ele>
        <time>2017-05-31T13:40:40Z</time>
      </trkpt>
      <trkpt lat="43.43869" lon="6.01918">
        <ele>334.79998779297</ele>
        <time>2017-05-31T13:40:50Z</time>
      </trkpt>
      <trkpt lat="43.4387" lon="6.01922">
        <ele>334.79998779297</ele>
        <time>2017-05-31T13:41:00Z</time>
      </trkpt>
      <trkpt lat="43.43868" lon="6.01922">
        <ele>334.79998779297</ele>
        <time>2017-05-31T13:41:10Z</time>
      </trkpt>
      <trkpt lat="43.43866" lon="6.01923">
        <ele>334.79998779297</ele>
        <time>2017-05-31T13:41:20Z</time>
      </trkpt>
      <trkpt lat="43.43867" lon="6.01924">
        <ele>334.79998779297</ele>
        <time>2017-05-31T13:41:30Z</time>
      </trkpt>
      <trkpt lat="43.43867" lon="6.01922">
        <ele>334.79998779297</ele>
        <time>2017-05-31T13:41:40Z</time>
      </trkpt>
      <trkpt lat="43.43869" lon="6.01921">
        <ele>334.79998779297</ele>
        <time>2017-05-31T13:41:50Z</time>
      </trkpt>
      <trkpt lat="43.43874" lon="6.01922">
        <ele>334.79998779297</ele>
        <time>2017-05-31T13:42:00Z</time>
      </trkpt>
      <trkpt lat="43.4387" lon="6.01924">
        <ele>334.79998779297</ele>
        <time>2017-05-31T13:42:10Z</time>
      </trkpt>
      <trkpt lat="43.43869" lon="6.01924">
        <ele>334.79998779297</ele>
        <time>2017-05-31T13:42:16Z</time>
      </trkpt>
      <trkpt lat="43.4387" lon="6.01925">
        <ele>334.79998779297</ele>
        <time>2017-05-31T13:42:20Z</time>
      </trkpt>
      <trkpt lat="43.4387" lon="6.01923">
        <ele>334.79998779297</ele>
        <time>2017-05-31T13:42:30Z</time>
      </trkpt>
      <trkpt lat="43.43868" lon="6.01925">
        <ele>334.79998779297</ele>
        <time>2017-05-31T13:42:38Z</time>
      </trkpt>
      <trkpt lat="43.43867" lon="6.01926">
        <ele>334.79998779297</ele>
        <time>2017-05-31T13:42:40Z</time>
      </trkpt>
      <trkpt lat="43.43867" lon="6.01927">
        <ele>334.79998779297</ele>
        <time>2017-05-31T13:42:46Z</time>
      </trkpt>
      <trkpt lat="43.43867" lon="6.01926">
        <ele>334.79998779297</ele>
        <time>2017-05-31T13:42:50Z</time>
      </trkpt>
      <trkpt lat="43.43867" lon="6.01932">
        <ele>334.79998779297</ele>
        <time>2017-05-31T13:43:00Z</time>
      </trkpt>
      <trkpt lat="43.43868" lon="6.01934">
        <ele>334.79998779297</ele>
        <time>2017-05-31T13:43:10Z</time>
      </trkpt>
      <trkpt lat="43.43867" lon="6.01932">
        <ele>334.79998779297</ele>
        <time>2017-05-31T13:43:14Z</time>
      </trkpt>
      <trkpt lat="43.43868" lon="6.01931">
        <ele>334.79998779297</ele>
        <time>2017-05-31T13:43:20Z</time>
      </trkpt>
      <trkpt lat="43.43867" lon="6.0193">
        <ele>334.79998779297</ele>
        <time>2017-05-31T13:43:30Z</time>
      </trkpt>
      <trkpt lat="43.43864" lon="6.01924">
        <ele>334.79998779297</ele>
        <time>2017-05-31T13:43:40Z</time>
      </trkpt>
      <trkpt lat="43.43863" lon="6.01922">
        <ele>334.79998779297</ele>
        <time>2017-05-31T13:43:48Z</time>
      </trkpt>
      <trkpt lat="43.43863" lon="6.01923">
        <ele>334.79998779297</ele>
        <time>2017-05-31T13:43:50Z</time>
      </trkpt>
      <trkpt lat="43.43863" lon="6.01923">
        <ele>334.79998779297</ele>
        <time>2017-05-31T13:43:59Z</time>
      </trkpt>
      <trkpt lat="43.43859" lon="6.01919">
        <ele>334.79998779297</ele>
        <time>2017-05-31T13:44:10Z</time>
      </trkpt>
      <trkpt lat="43.43859" lon="6.01921">
        <ele>334.79998779297</ele>
        <time>2017-05-31T13:44:20Z</time>
      </trkpt>
      <trkpt lat="43.43863" lon="6.01921">
        <ele>334.79998779297</ele>
        <time>2017-05-31T13:44:30Z</time>
      </trkpt>
      <trkpt lat="43.43866" lon="6.01921">
        <ele>334.79998779297</ele>
        <time>2017-05-31T13:44:39Z</time>
      </trkpt>
      <trkpt lat="43.43865" lon="6.01919">
        <ele>334.79998779297</ele>
        <time>2017-05-31T13:44:48Z</time>
      </trkpt>
      <trkpt lat="43.43864" lon="6.01919">
        <ele>334.79998779297</ele>
        <time>2017-05-31T13:44:50Z</time>
      </trkpt>
      <trkpt lat="43.43862" lon="6.01917">
        <ele>334.79998779297</ele>
        <time>2017-05-31T13:44:54Z</time>
      </trkpt>
      <trkpt lat="43.43859" lon="6.01916">
        <ele>334.79998779297</ele>
        <time>2017-05-31T13:45:00Z</time>
      </trkpt>
      <trkpt lat="43.43856" lon="6.01913">
        <ele>334.79998779297</ele>
        <time>2017-05-31T13:45:07Z</time>
      </trkpt>
      <trkpt lat="43.43856" lon="6.01913">
        <ele>334.79998779297</ele>
        <time>2017-05-31T13:45:10Z</time>
      </trkpt>
      <trkpt lat="43.43858" lon="6.01912">
        <ele>334.79998779297</ele>
        <time>2017-05-31T13:45:20Z</time>
      </trkpt>
      <trkpt lat="43.4386" lon="6.01915">
        <ele>334.79998779297</ele>
        <time>2017-05-31T13:45:24Z</time>
      </trkpt>
      <trkpt lat="43.43861" lon="6.01916">
        <ele>334.79998779297</ele>
        <time>2017-05-31T13:45:29Z</time>
      </trkpt>
      <trkpt lat="43.43864" lon="6.01917">
        <ele>334.79998779297</ele>
        <time>2017-05-31T13:45:39Z</time>
      </trkpt>
      <trkpt lat="43.43866" lon="6.0192">
        <ele>334.79998779297</ele>
        <time>2017-05-31T13:45:49Z</time>
      </trkpt>
      <trkpt lat="43.43865" lon="6.01923">
        <ele>334.79998779297</ele>
        <time>2017-05-31T13:45:58Z</time>
      </trkpt>
      <trkpt lat="43.43865" lon="6.01923">
        <ele>334.79998779297</ele>
        <time>2017-05-31T13:45:59Z</time>
      </trkpt>
      <trkpt lat="43.43862" lon="6.01922">
        <ele>334.79998779297</ele>
        <time>2017-05-31T13:46:09Z</time>
      </trkpt>
      <trkpt lat="43.43861" lon="6.01922">
        <ele>334.79998779297</ele>
        <time>2017-05-31T13:46:13Z</time>
      </trkpt>
      <trkpt lat="43.43861" lon="6.01922">
        <ele>334.79998779297</ele>
        <time>2017-05-31T13:46:18Z</time>
      </trkpt>
      <trkpt lat="43.43861" lon="6.01922">
        <ele>334.79998779297</ele>
        <time>2017-05-31T13:46:19Z</time>
      </trkpt>
      <trkpt lat="43.43861" lon="6.01922">
        <ele>334.79998779297</ele>
        <time>2017-05-31T13:46:24Z</time>
      </trkpt>
      <trkpt lat="43.43861" lon="6.01921">
        <ele>334.79998779297</ele>
        <time>2017-05-31T13:46:30Z</time>
      </trkpt>
      <trkpt lat="43.43864" lon="6.01918">
        <ele>334.79998779297</ele>
        <time>2017-05-31T13:46:41Z</time>
      </trkpt>
      <trkpt lat="43.43863" lon="6.01916">
        <ele>334.79998779297</ele>
        <time>2017-05-31T13:46:50Z</time>
      </trkpt>
      <trkpt lat="43.43866" lon="6.0192">
        <ele>334.79998779297</ele>
        <time>2017-05-31T13:46:59Z</time>
      </trkpt>
      <trkpt lat="43.43866" lon="6.0192">
        <ele>334.79998779297</ele>
        <time>2017-05-31T13:47:00Z</time>
      </trkpt>
      <trkpt lat="43.43866" lon="6.01922">
        <ele>334.79998779297</ele>
        <time>2017-05-31T13:47:05Z</time>
      </trkpt>
      <trkpt lat="43.43864" lon="6.01923">
        <ele>334.79998779297</ele>
        <time>2017-05-31T13:47:10Z</time>
      </trkpt>
      <trkpt lat="43.43863" lon="6.01922">
        <ele>334.79998779297</ele>
        <time>2017-05-31T13:47:20Z</time>
      </trkpt>
      <trkpt lat="43.43868" lon="6.01926">
        <ele>334.79998779297</ele>
        <time>2017-05-31T13:47:30Z</time>
      </trkpt>
      <trkpt lat="43.43868" lon="6.01927">
        <ele>334.79998779297</ele>
        <time>2017-05-31T13:47:37Z</time>
      </trkpt>
      <trkpt lat="43.43868" lon="6.01929">
        <ele>334.79998779297</ele>
        <time>2017-05-31T13:47:40Z</time>
      </trkpt>
      <trkpt lat="43.43867" lon="6.01929">
        <ele>334.79998779297</ele>
        <time>2017-05-31T13:47:50Z</time>
      </trkpt>
      <trkpt lat="43.43866" lon="6.01927">
        <ele>334.79998779297</ele>
        <time>2017-05-31T13:47:54Z</time>
      </trkpt>
      <trkpt lat="43.43865" lon="6.01923">
        <ele>334.79998779297</ele>
        <time>2017-05-31T13:47:58Z</time>
      </trkpt>
      <trkpt lat="43.43864" lon="6.01921">
        <ele>334.79998779297</ele>
        <time>2017-05-31T13:48:01Z</time>
      </trkpt>
      <trkpt lat="43.43863" lon="6.01918">
        <ele>334.79998779297</ele>
        <time>2017-05-31T13:48:07Z</time>
      </trkpt>
      <trkpt lat="43.43861" lon="6.01917">
        <ele>334.79998779297</ele>
        <time>2017-05-31T13:48:11Z</time>
      </trkpt>
      <trkpt lat="43.43858" lon="6.01918">
        <ele>334.79998779297</ele>
        <time>2017-05-31T13:48:21Z</time>
      </trkpt>
      <trkpt lat="43.43858" lon="6.01919">
        <ele>334.79998779297</ele>
        <time>2017-05-31T13:48:30Z</time>
      </trkpt>
      <trkpt lat="43.43857" lon="6.01921">
        <ele>334.79998779297</ele>
        <time>2017-05-31T13:48:50Z</time>
      </trkpt>
      <trkpt lat="43.43856" lon="6.01924">
        <ele>334.79998779297</ele>
        <time>2017-05-31T13:49:01Z</time>
      </trkpt>
      <trkpt lat="43.43855" lon="6.01927">
        <ele>334.79998779297</ele>
        <time>2017-05-31T13:49:09Z</time>
      </trkpt>
      <trkpt lat="43.43856" lon="6.01926">
        <ele>334.79998779297</ele>
        <time>2017-05-31T13:49:20Z</time>
      </trkpt>
      <trkpt lat="43.43858" lon="6.01926">
        <ele>334.79998779297</ele>
        <time>2017-05-31T13:49:30Z</time>
      </trkpt>
      <trkpt lat="43.43858" lon="6.01926">
        <ele>334.79998779297</ele>
        <time>2017-05-31T13:49:40Z</time>
      </trkpt>
      <trkpt lat="43.4386" lon="6.01929">
        <ele>334.79998779297</ele>
        <time>2017-05-31T13:49:49Z</time>
      </trkpt>
      <trkpt lat="43.43861" lon="6.01929">
        <ele>334.79998779297</ele>
        <time>2017-05-31T13:49:50Z</time>
      </trkpt>
      <trkpt lat="43.43863" lon="6.01928">
        <ele>334.79998779297</ele>
        <time>2017-05-31T13:50:01Z</time>
      </trkpt>
      <trkpt lat="43.43863" lon="6.01927">
        <ele>334.79998779297</ele>
        <time>2017-05-31T13:50:10Z</time>
      </trkpt>
      <trkpt lat="43.43862" lon="6.01926">
        <ele>334.79998779297</ele>
        <time>2017-05-31T13:50:20Z</time>
      </trkpt>
      <trkpt lat="43.43861" lon="6.01925">
        <ele>334.79998779297</ele>
        <time>2017-05-31T13:50:30Z</time>
      </trkpt>
      <trkpt lat="43.43864" lon="6.01926">
        <ele>334.79998779297</ele>
        <time>2017-05-31T13:51:01Z</time>
      </trkpt>
      <trkpt lat="43.43863" lon="6.01928">
        <ele>334.79998779297</ele>
        <time>2017-05-31T13:51:10Z</time>
      </trkpt>
      <trkpt lat="43.43864" lon="6.01924">
        <ele>334.79998779297</ele>
        <time>2017-05-31T13:51:20Z</time>
      </trkpt>
      <trkpt lat="43.43864" lon="6.01924">
        <ele>334.79998779297</ele>
        <time>2017-05-31T13:51:30Z</time>
      </trkpt>
      <trkpt lat="43.43866" lon="6.01928">
        <ele>334.79998779297</ele>
        <time>2017-05-31T13:51:50Z</time>
      </trkpt>
      <trkpt lat="43.43865" lon="6.0193">
        <ele>334.79998779297</ele>
        <time>2017-05-31T13:52:01Z</time>
      </trkpt>
      <trkpt lat="43.43865" lon="6.0193">
        <ele>334.79998779297</ele>
        <time>2017-05-31T13:52:10Z</time>
      </trkpt>
      <trkpt lat="43.43864" lon="6.01929">
        <ele>334.79998779297</ele>
        <time>2017-05-31T13:52:16Z</time>
      </trkpt>
      <trkpt lat="43.43864" lon="6.01928">
        <ele>334.79998779297</ele>
        <time>2017-05-31T13:52:20Z</time>
      </trkpt>
      <trkpt lat="43.43864" lon="6.01927">
        <ele>334.79998779297</ele>
        <time>2017-05-31T13:52:30Z</time>
      </trkpt>
      <trkpt lat="43.43864" lon="6.01927">
        <ele>334.79998779297</ele>
        <time>2017-05-31T13:52:40Z</time>
      </trkpt>
      <trkpt lat="43.43863" lon="6.01928">
        <ele>334.79998779297</ele>
        <time>2017-05-31T13:52:50Z</time>
      </trkpt>
      <trkpt lat="43.43863" lon="6.01929">
        <ele>334.79998779297</ele>
        <time>2017-05-31T13:53:00Z</time>
      </trkpt>
      <trkpt lat="43.43864" lon="6.01929">
        <ele>334.79998779297</ele>
        <time>2017-05-31T13:53:10Z</time>
      </trkpt>
      <trkpt lat="43.43864" lon="6.01933">
        <ele>334.79998779297</ele>
        <time>2017-05-31T13:53:20Z</time>
      </trkpt>
      <trkpt lat="43.43864" lon="6.01934">
        <ele>334.79998779297</ele>
        <time>2017-05-31T13:53:30Z</time>
      </trkpt>
      <trkpt lat="43.43864" lon="6.01932">
        <ele>334.79998779297</ele>
        <time>2017-05-31T13:53:39Z</time>
      </trkpt>
      <trkpt lat="43.43864" lon="6.0193">
        <ele>334.79998779297</ele>
        <time>2017-05-31T13:53:50Z</time>
      </trkpt>
      <trkpt lat="43.43864" lon="6.01929">
        <ele>334.79998779297</ele>
        <time>2017-05-31T13:54:10Z</time>
      </trkpt>
      <trkpt lat="43.43864" lon="6.01929">
        <ele>334.79998779297</ele>
        <time>2017-05-31T13:54:12Z</time>
      </trkpt>
      <trkpt lat="43.43863" lon="6.0193">
        <ele>334.79998779297</ele>
        <time>2017-05-31T13:54:21Z</time>
      </trkpt>
      <trkpt lat="43.43864" lon="6.01931">
        <ele>334.79998779297</ele>
        <time>2017-05-31T13:54:32Z</time>
      </trkpt>
      <trkpt lat="43.43866" lon="6.0193">
        <ele>334.79998779297</ele>
        <time>2017-05-31T13:54:42Z</time>
      </trkpt>
      <trkpt lat="43.43867" lon="6.0193">
        <ele>334.79998779297</ele>
        <time>2017-05-31T13:55:02Z</time>
      </trkpt>
      <trkpt lat="43.43867" lon="6.01931">
        <ele>334.79998779297</ele>
        <time>2017-05-31T13:55:12Z</time>
      </trkpt>
      <trkpt lat="43.43867" lon="6.01929">
        <ele>334.79998779297</ele>
        <time>2017-05-31T13:55:32Z</time>
      </trkpt>
      <trkpt lat="43.43868" lon="6.01926">
        <ele>334.79998779297</ele>
        <time>2017-05-31T13:55:53Z</time>
      </trkpt>
      <trkpt lat="43.43868" lon="6.01926">
        <ele>334.79998779297</ele>
        <time>2017-05-31T13:56:02Z</time>
      </trkpt>
      <trkpt lat="43.43867" lon="6.01926">
        <ele>334.79998779297</ele>
        <time>2017-05-31T13:56:14Z</time>
      </trkpt>
      <trkpt lat="43.43866" lon="6.01926">
        <ele>334.79998779297</ele>
        <time>2017-05-31T13:56:24Z</time>
      </trkpt>
      <trkpt lat="43.43864" lon="6.01925">
        <ele>334.79998779297</ele>
        <time>2017-05-31T13:56:34Z</time>
      </trkpt>
      <trkpt lat="43.43864" lon="6.01927">
        <ele>334.79998779297</ele>
        <time>2017-05-31T13:56:44Z</time>
      </trkpt>
      <trkpt lat="43.43864" lon="6.01929">
        <ele>334.79998779297</ele>
        <time>2017-05-31T13:56:54Z</time>
      </trkpt>
      <trkpt lat="43.43864" lon="6.01929">
        <ele>334.79998779297</ele>
        <time>2017-05-31T13:57:04Z</time>
      </trkpt>
      <trkpt lat="43.43865" lon="6.01929">
        <ele>334.79998779297</ele>
        <time>2017-05-31T13:57:14Z</time>
      </trkpt>
      <trkpt lat="43.43864" lon="6.01926">
        <ele>334.79998779297</ele>
        <time>2017-05-31T13:57:24Z</time>
      </trkpt>
      <trkpt lat="43.43865" lon="6.01924">
        <ele>334.79998779297</ele>
        <time>2017-05-31T13:57:34Z</time>
      </trkpt>
      <trkpt lat="43.43866" lon="6.01923">
        <ele>334.79998779297</ele>
        <time>2017-05-31T13:57:45Z</time>
      </trkpt>
      <trkpt lat="43.43866" lon="6.01922">
        <ele>334.79998779297</ele>
        <time>2017-05-31T13:57:53Z</time>
      </trkpt>
      <trkpt lat="43.43866" lon="6.01922">
        <ele>334.79998779297</ele>
        <time>2017-05-31T13:57:55Z</time>
      </trkpt>
      <trkpt lat="43.43867" lon="6.01922">
        <ele>334.79998779297</ele>
        <time>2017-05-31T13:58:05Z</time>
      </trkpt>
      <trkpt lat="43.43867" lon="6.01922">
        <ele>334.79998779297</ele>
        <time>2017-05-31T13:58:15Z</time>
      </trkpt>
      <trkpt lat="43.43868" lon="6.01923">
        <ele>334.79998779297</ele>
        <time>2017-05-31T13:58:24Z</time>
      </trkpt>
      <trkpt lat="43.43866" lon="6.01925">
        <ele>334.79998779297</ele>
        <time>2017-05-31T13:58:35Z</time>
      </trkpt>
      <trkpt lat="43.43866" lon="6.01925">
        <ele>334.79998779297</ele>
        <time>2017-05-31T13:58:45Z</time>
      </trkpt>
      <trkpt lat="43.43866" lon="6.01926">
        <ele>334.79998779297</ele>
        <time>2017-05-31T13:58:55Z</time>
      </trkpt>
      <trkpt lat="43.43866" lon="6.01926">
        <ele>334.79998779297</ele>
        <time>2017-05-31T13:59:01Z</time>
      </trkpt>
      <trkpt lat="43.43866" lon="6.01926">
        <ele>334.79998779297</ele>
        <time>2017-05-31T13:59:05Z</time>
      </trkpt>
      <trkpt lat="43.43864" lon="6.01925">
        <ele>334.79998779297</ele>
        <time>2017-05-31T13:59:14Z</time>
      </trkpt>
      <trkpt lat="43.43864" lon="6.01926">
        <ele>334.79998779297</ele>
        <time>2017-05-31T13:59:33Z</time>
      </trkpt>
      <trkpt lat="43.43864" lon="6.01926">
        <ele>334.79998779297</ele>
        <time>2017-05-31T13:59:34Z</time>
      </trkpt>
      <trkpt lat="43.43864" lon="6.01926">
        <ele>334.79998779297</ele>
        <time>2017-05-31T13:59:44Z</time>
      </trkpt>
      <trkpt lat="43.43864" lon="6.01926">
        <ele>334.79998779297</ele>
        <time>2017-05-31T13:59:54Z</time>
      </trkpt>
      <trkpt lat="43.43864" lon="6.01926">
        <ele>334.79998779297</ele>
        <time>2017-05-31T14:00:04Z</time>
      </trkpt>
      <trkpt lat="43.43864" lon="6.01926">
        <ele>334.79998779297</ele>
        <time>2017-05-31T14:00:15Z</time>
      </trkpt>
      <trkpt lat="43.43864" lon="6.01924">
        <ele>334.79998779297</ele>
        <time>2017-05-31T14:00:25Z</time>
      </trkpt>
      <trkpt lat="43.43864" lon="6.01924">
        <ele>334.79998779297</ele>
        <time>2017-05-31T14:00:35Z</time>
      </trkpt>
      <trkpt lat="43.43864" lon="6.01924">
        <ele>334.79998779297</ele>
        <time>2017-05-31T14:00:45Z</time>
      </trkpt>
      <trkpt lat="43.43864" lon="6.01924">
        <ele>334.79998779297</ele>
        <time>2017-05-31T14:00:56Z</time>
      </trkpt>
      <trkpt lat="43.43863" lon="6.01927">
        <ele>334.79998779297</ele>
        <time>2017-05-31T14:01:04Z</time>
      </trkpt>
      <trkpt lat="43.43861" lon="6.0193">
        <ele>334.79998779297</ele>
        <time>2017-05-31T14:01:06Z</time>
      </trkpt>
      <trkpt lat="43.43861" lon="6.01932">
        <ele>334.79998779297</ele>
        <time>2017-05-31T14:01:07Z</time>
      </trkpt>
      <trkpt lat="43.43848" lon="6.01951">
        <ele>334.79998779297</ele>
        <time>2017-05-31T14:01:16Z</time>
      </trkpt>
      <trkpt lat="43.43838" lon="6.01978">
        <ele>335.39999389648</ele>
        <time>2017-05-31T14:01:26Z</time>
      </trkpt>
      <trkpt lat="43.43838" lon="6.0201">
        <ele>335.20001220703</ele>
        <time>2017-05-31T14:01:35Z</time>
      </trkpt>
      <trkpt lat="43.43837" lon="6.02017">
        <ele>335.20001220703</ele>
        <time>2017-05-31T14:01:37Z</time>
      </trkpt>
      <trkpt lat="43.43828" lon="6.02058">
        <ele>334.39999389648</ele>
        <time>2017-05-31T14:01:47Z</time>
      </trkpt>
      <trkpt lat="43.43826" lon="6.02062">
        <ele>334.39999389648</ele>
        <time>2017-05-31T14:01:48Z</time>
      </trkpt>
      <trkpt lat="43.43819" lon="6.02076">
        <ele>334.60000610352</ele>
        <time>2017-05-31T14:01:52Z</time>
      </trkpt>
      <trkpt lat="43.43817" lon="6.02084">
        <ele>334.79998779297</ele>
        <time>2017-05-31T14:01:54Z</time>
      </trkpt>
      <trkpt lat="43.43816" lon="6.02098">
        <ele>335</ele>
        <time>2017-05-31T14:01:57Z</time>
      </trkpt>
      <trkpt lat="43.43815" lon="6.02103">
        <ele>335.20001220703</ele>
        <time>2017-05-31T14:01:58Z</time>
      </trkpt>
      <trkpt lat="43.43813" lon="6.02114">
        <ele>335</ele>
        <time>2017-05-31T14:02:00Z</time>
      </trkpt>
      <trkpt lat="43.43805" lon="6.02124">
        <ele>334.39999389648</ele>
        <time>2017-05-31T14:02:02Z</time>
      </trkpt>
      <trkpt lat="43.43793" lon="6.02136">
        <ele>333.79998779297</ele>
        <time>2017-05-31T14:02:05Z</time>
      </trkpt>
      <trkpt lat="43.43786" lon="6.02144">
        <ele>333.39999389648</ele>
        <time>2017-05-31T14:02:07Z</time>
      </trkpt>
      <trkpt lat="43.43783" lon="6.02149">
        <ele>333.39999389648</ele>
        <time>2017-05-31T14:02:08Z</time>
      </trkpt>
      <trkpt lat="43.43781" lon="6.02155">
        <ele>333.20001220703</ele>
        <time>2017-05-31T14:02:09Z</time>
      </trkpt>
      <trkpt lat="43.43773" lon="6.02174">
        <ele>333.20001220703</ele>
        <time>2017-05-31T14:02:13Z</time>
      </trkpt>
      <trkpt lat="43.43768" lon="6.02196">
        <ele>333.60000610352</ele>
        <time>2017-05-31T14:02:17Z</time>
      </trkpt>
      <trkpt lat="43.43769" lon="6.02203">
        <ele>333.79998779297</ele>
        <time>2017-05-31T14:02:18Z</time>
      </trkpt>
      <trkpt lat="43.43768" lon="6.02216">
        <ele>333.60000610352</ele>
        <time>2017-05-31T14:02:20Z</time>
      </trkpt>
      <trkpt lat="43.43766" lon="6.0223">
        <ele>333.20001220703</ele>
        <time>2017-05-31T14:02:22Z</time>
      </trkpt>
      <trkpt lat="43.43754" lon="6.02262">
        <ele>332.79998779297</ele>
        <time>2017-05-31T14:02:28Z</time>
      </trkpt>
      <trkpt lat="43.43751" lon="6.02265">
        <ele>333</ele>
        <time>2017-05-31T14:02:29Z</time>
      </trkpt>
      <trkpt lat="43.43744" lon="6.02279">
        <ele>333.60000610352</ele>
        <time>2017-05-31T14:02:32Z</time>
      </trkpt>
      <trkpt lat="43.43738" lon="6.02287">
        <ele>334.60000610352</ele>
        <time>2017-05-31T14:02:34Z</time>
      </trkpt>
      <trkpt lat="43.43736" lon="6.02292">
        <ele>334.79998779297</ele>
        <time>2017-05-31T14:02:35Z</time>
      </trkpt>
      <trkpt lat="43.43728" lon="6.02303">
        <ele>336</ele>
        <time>2017-05-31T14:02:38Z</time>
      </trkpt>
      <trkpt lat="43.43726" lon="6.02307">
        <ele>336.39999389648</ele>
        <time>2017-05-31T14:02:39Z</time>
      </trkpt>
      <trkpt lat="43.43723" lon="6.02316">
        <ele>337</ele>
        <time>2017-05-31T14:02:41Z</time>
      </trkpt>
      <trkpt lat="43.43722" lon="6.02319">
        <ele>337.39999389648</ele>
        <time>2017-05-31T14:02:42Z</time>
      </trkpt>
      <trkpt lat="43.43721" lon="6.02322">
        <ele>337.79998779297</ele>
        <time>2017-05-31T14:02:43Z</time>
      </trkpt>
      <trkpt lat="43.4372" lon="6.02325">
        <ele>338.20001220703</ele>
        <time>2017-05-31T14:02:44Z</time>
      </trkpt>
      <trkpt lat="43.43719" lon="6.02327">
        <ele>338.39999389648</ele>
        <time>2017-05-31T14:02:45Z</time>
      </trkpt>
      <trkpt lat="43.43715" lon="6.0233">
        <ele>339</ele>
        <time>2017-05-31T14:02:47Z</time>
      </trkpt>
      <trkpt lat="43.43712" lon="6.02332">
        <ele>339.60000610352</ele>
        <time>2017-05-31T14:02:49Z</time>
      </trkpt>
      <trkpt lat="43.4371" lon="6.02337">
        <ele>340.20001220703</ele>
        <time>2017-05-31T14:02:52Z</time>
      </trkpt>
      <trkpt lat="43.4371" lon="6.02339">
        <ele>340.60000610352</ele>
        <time>2017-05-31T14:02:53Z</time>
      </trkpt>
      <trkpt lat="43.43711" lon="6.02343">
        <ele>341.39999389648</ele>
        <time>2017-05-31T14:02:55Z</time>
      </trkpt>
      <trkpt lat="43.43714" lon="6.02349">
        <ele>341.79998779297</ele>
        <time>2017-05-31T14:02:58Z</time>
      </trkpt>
      <trkpt lat="43.43715" lon="6.02351">
        <ele>341.79998779297</ele>
        <time>2017-05-31T14:02:59Z</time>
      </trkpt>
      <trkpt lat="43.43716" lon="6.02355">
        <ele>341.79998779297</ele>
        <time>2017-05-31T14:03:01Z</time>
      </trkpt>
      <trkpt lat="43.43718" lon="6.02357">
        <ele>341.79998779297</ele>
        <time>2017-05-31T14:03:02Z</time>
      </trkpt>
      <trkpt lat="43.43719" lon="6.02359">
        <ele>341.79998779297</ele>
        <time>2017-05-31T14:03:03Z</time>
      </trkpt>
      <trkpt lat="43.43727" lon="6.0236">
        <ele>342</ele>
        <time>2017-05-31T14:03:07Z</time>
      </trkpt>
      <trkpt lat="43.43734" lon="6.02365">
        <ele>341.20001220703</ele>
        <time>2017-05-31T14:03:10Z</time>
      </trkpt>
      <trkpt lat="43.43739" lon="6.02375">
        <ele>340.60000610352</ele>
        <time>2017-05-31T14:03:13Z</time>
      </trkpt>
      <trkpt lat="43.43745" lon="6.02391">
        <ele>340.20001220703</ele>
        <time>2017-05-31T14:03:17Z</time>
      </trkpt>
      <trkpt lat="43.43752" lon="6.02398">
        <ele>339.60000610352</ele>
        <time>2017-05-31T14:03:20Z</time>
      </trkpt>
      <trkpt lat="43.43755" lon="6.024">
        <ele>338.79998779297</ele>
        <time>2017-05-31T14:03:21Z</time>
      </trkpt>
      <trkpt lat="43.43757" lon="6.02403">
        <ele>338.20001220703</ele>
        <time>2017-05-31T14:03:22Z</time>
      </trkpt>
      <trkpt lat="43.43763" lon="6.02415">
        <ele>337.20001220703</ele>
        <time>2017-05-31T14:03:25Z</time>
      </trkpt>
      <trkpt lat="43.43766" lon="6.02417">
        <ele>337.20001220703</ele>
        <time>2017-05-31T14:03:26Z</time>
      </trkpt>
      <trkpt lat="43.43774" lon="6.02427">
        <ele>337</ele>
        <time>2017-05-31T14:03:30Z</time>
      </trkpt>
      <trkpt lat="43.43774" lon="6.0243">
        <ele>337</ele>
        <time>2017-05-31T14:03:31Z</time>
      </trkpt>
      <trkpt lat="43.43774" lon="6.02433">
        <ele>337</ele>
        <time>2017-05-31T14:03:32Z</time>
      </trkpt>
      <trkpt lat="43.43773" lon="6.02438">
        <ele>336.79998779297</ele>
        <time>2017-05-31T14:03:34Z</time>
      </trkpt>
      <trkpt lat="43.43777" lon="6.02446">
        <ele>336</ele>
        <time>2017-05-31T14:03:37Z</time>
      </trkpt>
      <trkpt lat="43.43777" lon="6.02448">
        <ele>335.79998779297</ele>
        <time>2017-05-31T14:03:38Z</time>
      </trkpt>
      <trkpt lat="43.43778" lon="6.02457">
        <ele>334.60000610352</ele>
        <time>2017-05-31T14:03:41Z</time>
      </trkpt>
      <trkpt lat="43.43787" lon="6.02469">
        <ele>334.39999389648</ele>
        <time>2017-05-31T14:03:47Z</time>
      </trkpt>
      <trkpt lat="43.43787" lon="6.02471">
        <ele>334.79998779297</ele>
        <time>2017-05-31T14:03:51Z</time>
      </trkpt>
      <trkpt lat="43.43787" lon="6.02471">
        <ele>335</ele>
        <time>2017-05-31T14:03:56Z</time>
      </trkpt>
      <trkpt lat="43.43787" lon="6.02471">
        <ele>335</ele>
        <time>2017-05-31T14:03:58Z</time>
      </trkpt>
      <trkpt lat="43.43786" lon="6.02472">
        <ele>335</ele>
        <time>2017-05-31T14:04:01Z</time>
      </trkpt>
      <trkpt lat="43.43786" lon="6.02473">
        <ele>335</ele>
        <time>2017-05-31T14:04:04Z</time>
      </trkpt>
      <trkpt lat="43.43786" lon="6.02473">
        <ele>335</ele>
        <time>2017-05-31T14:04:08Z</time>
      </trkpt>
      <trkpt lat="43.43786" lon="6.02473">
        <ele>335.20001220703</ele>
        <time>2017-05-31T14:04:11Z</time>
      </trkpt>
      <trkpt lat="43.43793" lon="6.02481">
        <ele>334.20001220703</ele>
        <time>2017-05-31T14:04:20Z</time>
      </trkpt>
      <trkpt lat="43.43794" lon="6.02482">
        <ele>333.79998779297</ele>
        <time>2017-05-31T14:04:21Z</time>
      </trkpt>
      <trkpt lat="43.43796" lon="6.02483">
        <ele>332.79998779297</ele>
        <time>2017-05-31T14:04:24Z</time>
      </trkpt>
      <trkpt lat="43.43795" lon="6.02485">
        <ele>332</ele>
        <time>2017-05-31T14:04:28Z</time>
      </trkpt>
      <trkpt lat="43.43795" lon="6.02485">
        <ele>331.79998779297</ele>
        <time>2017-05-31T14:04:32Z</time>
      </trkpt>
      <trkpt lat="43.43795" lon="6.02491">
        <ele>332.20001220703</ele>
        <time>2017-05-31T14:04:42Z</time>
      </trkpt>
      <trkpt lat="43.43795" lon="6.02493">
        <ele>332.20001220703</ele>
        <time>2017-05-31T14:04:43Z</time>
      </trkpt>
      <trkpt lat="43.43794" lon="6.02521">
        <ele>332.39999389648</ele>
        <time>2017-05-31T14:04:53Z</time>
      </trkpt>
      <trkpt lat="43.4379" lon="6.02534">
        <ele>332.79998779297</ele>
        <time>2017-05-31T14:04:58Z</time>
      </trkpt>
      <trkpt lat="43.4379" lon="6.02556">
        <ele>333.20001220703</ele>
        <time>2017-05-31T14:05:04Z</time>
      </trkpt>
      <trkpt lat="43.43794" lon="6.02574">
        <ele>333.20001220703</ele>
        <time>2017-05-31T14:05:09Z</time>
      </trkpt>
      <trkpt lat="43.43795" lon="6.02596">
        <ele>332.79998779297</ele>
        <time>2017-05-31T14:05:14Z</time>
      </trkpt>
      <trkpt lat="43.43785" lon="6.0264">
        <ele>333</ele>
        <time>2017-05-31T14:05:25Z</time>
      </trkpt>
      <trkpt lat="43.43787" lon="6.02677">
        <ele>332.20001220703</ele>
        <time>2017-05-31T14:05:34Z</time>
      </trkpt>
      <trkpt lat="43.43785" lon="6.02679">
        <ele>332.39999389648</ele>
        <time>2017-05-31T14:05:35Z</time>
      </trkpt>
      <trkpt lat="43.43777" lon="6.02693">
        <ele>332</ele>
        <time>2017-05-31T14:05:39Z</time>
      </trkpt>
      <trkpt lat="43.43775" lon="6.02695">
        <ele>332.20001220703</ele>
        <time>2017-05-31T14:05:40Z</time>
      </trkpt>
      <trkpt lat="43.4377" lon="6.02697">
        <ele>332.20001220703</ele>
        <time>2017-05-31T14:05:42Z</time>
      </trkpt>
      <trkpt lat="43.43765" lon="6.02701">
        <ele>332.20001220703</ele>
        <time>2017-05-31T14:05:44Z</time>
      </trkpt>
      <trkpt lat="43.43774" lon="6.02717">
        <ele>331.79998779297</ele>
        <time>2017-05-31T14:05:51Z</time>
      </trkpt>
      <trkpt lat="43.43782" lon="6.0272">
        <ele>331.39999389648</ele>
        <time>2017-05-31T14:05:54Z</time>
      </trkpt>
      <trkpt lat="43.43787" lon="6.0275">
        <ele>331</ele>
        <time>2017-05-31T14:06:02Z</time>
      </trkpt>
      <trkpt lat="43.43785" lon="6.02758">
        <ele>331</ele>
        <time>2017-05-31T14:06:04Z</time>
      </trkpt>
      <trkpt lat="43.43784" lon="6.02772">
        <ele>330.79998779297</ele>
        <time>2017-05-31T14:06:07Z</time>
      </trkpt>
      <trkpt lat="43.43795" lon="6.02795">
        <ele>330.60000610352</ele>
        <time>2017-05-31T14:06:13Z</time>
      </trkpt>
      <trkpt lat="43.43796" lon="6.02798">
        <ele>330.60000610352</ele>
        <time>2017-05-31T14:06:14Z</time>
      </trkpt>
      <trkpt lat="43.43807" lon="6.02815">
        <ele>329.60000610352</ele>
        <time>2017-05-31T14:06:20Z</time>
      </trkpt>
      <trkpt lat="43.43806" lon="6.02835">
        <ele>328.60000610352</ele>
        <time>2017-05-31T14:06:24Z</time>
      </trkpt>
      <trkpt lat="43.43794" lon="6.02877">
        <ele>328.20001220703</ele>
        <time>2017-05-31T14:06:34Z</time>
      </trkpt>
      <trkpt lat="43.43795" lon="6.0291">
        <ele>327.39999389648</ele>
        <time>2017-05-31T14:06:41Z</time>
      </trkpt>
      <trkpt lat="43.43796" lon="6.02927">
        <ele>326.79998779297</ele>
        <time>2017-05-31T14:06:44Z</time>
      </trkpt>
      <trkpt lat="43.43787" lon="6.02953">
        <ele>326.20001220703</ele>
        <time>2017-05-31T14:06:49Z</time>
      </trkpt>
      <trkpt lat="43.43785" lon="6.02979">
        <ele>326</ele>
        <time>2017-05-31T14:06:54Z</time>
      </trkpt>
      <trkpt lat="43.43779" lon="6.02994">
        <ele>325.79998779297</ele>
        <time>2017-05-31T14:06:58Z</time>
      </trkpt>
      <trkpt lat="43.43778" lon="6.02995">
        <ele>325.79998779297</ele>
        <time>2017-05-31T14:07:04Z</time>
      </trkpt>
      <trkpt lat="43.43777" lon="6.02994">
        <ele>325.79998779297</ele>
        <time>2017-05-31T14:07:14Z</time>
      </trkpt>
      <trkpt lat="43.43777" lon="6.02995">
        <ele>325.79998779297</ele>
        <time>2017-05-31T14:07:18Z</time>
      </trkpt>
      <trkpt lat="43.43776" lon="6.02998">
        <ele>325.79998779297</ele>
        <time>2017-05-31T14:07:21Z</time>
      </trkpt>
      <trkpt lat="43.43771" lon="6.03007">
        <ele>325.79998779297</ele>
        <time>2017-05-31T14:07:24Z</time>
      </trkpt>
      <trkpt lat="43.43752" lon="6.03038">
        <ele>326</ele>
        <time>2017-05-31T14:07:34Z</time>
      </trkpt>
      <trkpt lat="43.4374" lon="6.03042">
        <ele>326.20001220703</ele>
        <time>2017-05-31T14:07:38Z</time>
      </trkpt>
      <trkpt lat="43.43733" lon="6.03045">
        <ele>326.79998779297</ele>
        <time>2017-05-31T14:07:41Z</time>
      </trkpt>
      <trkpt lat="43.43728" lon="6.03048">
        <ele>327.39999389648</ele>
        <time>2017-05-31T14:07:43Z</time>
      </trkpt>
      <trkpt lat="43.43726" lon="6.0305">
        <ele>327.60000610352</ele>
        <time>2017-05-31T14:07:44Z</time>
      </trkpt>
      <trkpt lat="43.43716" lon="6.03057">
        <ele>328</ele>
        <time>2017-05-31T14:07:48Z</time>
      </trkpt>
      <trkpt lat="43.43706" lon="6.03066">
        <ele>328.39999389648</ele>
        <time>2017-05-31T14:07:52Z</time>
      </trkpt>
      <trkpt lat="43.43701" lon="6.03072">
        <ele>328.60000610352</ele>
        <time>2017-05-31T14:07:54Z</time>
      </trkpt>
      <trkpt lat="43.4369" lon="6.03116">
        <ele>329.39999389648</ele>
        <time>2017-05-31T14:08:04Z</time>
      </trkpt>
      <trkpt lat="43.4369" lon="6.03126">
        <ele>329.39999389648</ele>
        <time>2017-05-31T14:08:06Z</time>
      </trkpt>
      <trkpt lat="43.43692" lon="6.03164">
        <ele>329.39999389648</ele>
        <time>2017-05-31T14:08:14Z</time>
      </trkpt>
      <trkpt lat="43.43695" lon="6.03188">
        <ele>329.60000610352</ele>
        <time>2017-05-31T14:08:19Z</time>
      </trkpt>
      <trkpt lat="43.43687" lon="6.0321">
        <ele>329.39999389648</ele>
        <time>2017-05-31T14:08:24Z</time>
      </trkpt>
      <trkpt lat="43.43687" lon="6.03245">
        <ele>328.60000610352</ele>
        <time>2017-05-31T14:08:31Z</time>
      </trkpt>
      <trkpt lat="43.43688" lon="6.03257">
        <ele>328.79998779297</ele>
        <time>2017-05-31T14:08:34Z</time>
      </trkpt>
      <trkpt lat="43.43683" lon="6.03273">
        <ele>328.39999389648</ele>
        <time>2017-05-31T14:08:37Z</time>
      </trkpt>
      <trkpt lat="43.43676" lon="6.03293">
        <ele>327.60000610352</ele>
        <time>2017-05-31T14:08:41Z</time>
      </trkpt>
      <trkpt lat="43.43667" lon="6.03301">
        <ele>327.20001220703</ele>
        <time>2017-05-31T14:08:44Z</time>
      </trkpt>
      <trkpt lat="43.43666" lon="6.03305">
        <ele>327</ele>
        <time>2017-05-31T14:08:45Z</time>
      </trkpt>
      <trkpt lat="43.43665" lon="6.03319">
        <ele>327.20001220703</ele>
        <time>2017-05-31T14:08:49Z</time>
      </trkpt>
      <trkpt lat="43.43658" lon="6.03333">
        <ele>327.39999389648</ele>
        <time>2017-05-31T14:08:54Z</time>
      </trkpt>
      <trkpt lat="43.43639" lon="6.03367">
        <ele>328</ele>
        <time>2017-05-31T14:09:04Z</time>
      </trkpt>
      <trkpt lat="43.43626" lon="6.03413">
        <ele>328.20001220703</ele>
        <time>2017-05-31T14:09:14Z</time>
      </trkpt>
      <trkpt lat="43.43626" lon="6.03418">
        <ele>328.39999389648</ele>
        <time>2017-05-31T14:09:15Z</time>
      </trkpt>
      <trkpt lat="43.43626" lon="6.03437">
        <ele>328.60000610352</ele>
        <time>2017-05-31T14:09:19Z</time>
      </trkpt>
      <trkpt lat="43.43624" lon="6.03449">
        <ele>328.60000610352</ele>
        <time>2017-05-31T14:09:21Z</time>
      </trkpt>
      <trkpt lat="43.43621" lon="6.03461">
        <ele>328.39999389648</ele>
        <time>2017-05-31T14:09:23Z</time>
      </trkpt>
      <trkpt lat="43.43619" lon="6.03467">
        <ele>328.20001220703</ele>
        <time>2017-05-31T14:09:24Z</time>
      </trkpt>
      <trkpt lat="43.43612" lon="6.03485">
        <ele>327.39999389648</ele>
        <time>2017-05-31T14:09:27Z</time>
      </trkpt>
      <trkpt lat="43.43611" lon="6.03492">
        <ele>327</ele>
        <time>2017-05-31T14:09:28Z</time>
      </trkpt>
      <trkpt lat="43.43609" lon="6.03513">
        <ele>326.60000610352</ele>
        <time>2017-05-31T14:09:31Z</time>
      </trkpt>
      <trkpt lat="43.436" lon="6.03542">
        <ele>325.79998779297</ele>
        <time>2017-05-31T14:09:36Z</time>
      </trkpt>
      <trkpt lat="43.43586" lon="6.0357">
        <ele>325.79998779297</ele>
        <time>2017-05-31T14:09:42Z</time>
      </trkpt>
      <trkpt lat="43.43582" lon="6.03587">
        <ele>325.60000610352</ele>
        <time>2017-05-31T14:09:45Z</time>
      </trkpt>
      <trkpt lat="43.43581" lon="6.03635">
        <ele>325.79998779297</ele>
        <time>2017-05-31T14:09:54Z</time>
      </trkpt>
      <trkpt lat="43.43573" lon="6.03688">
        <ele>326</ele>
        <time>2017-05-31T14:10:04Z</time>
      </trkpt>
      <trkpt lat="43.43571" lon="6.03706">
        <ele>326.20001220703</ele>
        <time>2017-05-31T14:10:07Z</time>
      </trkpt>
      <trkpt lat="43.43572" lon="6.03733">
        <ele>326.60000610352</ele>
        <time>2017-05-31T14:10:12Z</time>
      </trkpt>
      <trkpt lat="43.43573" lon="6.03743">
        <ele>327</ele>
        <time>2017-05-31T14:10:14Z</time>
      </trkpt>
      <trkpt lat="43.43575" lon="6.03765">
        <ele>327.79998779297</ele>
        <time>2017-05-31T14:10:21Z</time>
      </trkpt>
      <trkpt lat="43.43573" lon="6.0377">
        <ele>328</ele>
        <time>2017-05-31T14:10:24Z</time>
      </trkpt>
      <trkpt lat="43.43573" lon="6.03772">
        <ele>328</ele>
        <time>2017-05-31T14:10:25Z</time>
      </trkpt>
      <trkpt lat="43.43563" lon="6.03784">
        <ele>329</ele>
        <time>2017-05-31T14:10:33Z</time>
      </trkpt>
      <trkpt lat="43.43562" lon="6.03785">
        <ele>329.20001220703</ele>
        <time>2017-05-31T14:10:34Z</time>
      </trkpt>
      <trkpt lat="43.43552" lon="6.03782">
        <ele>329.79998779297</ele>
        <time>2017-05-31T14:10:42Z</time>
      </trkpt>
      <trkpt lat="43.43549" lon="6.03781">
        <ele>330</ele>
        <time>2017-05-31T14:10:44Z</time>
      </trkpt>
      <trkpt lat="43.43547" lon="6.0378">
        <ele>330.20001220703</ele>
        <time>2017-05-31T14:10:45Z</time>
      </trkpt>
      <trkpt lat="43.4354" lon="6.03777">
        <ele>330.60000610352</ele>
        <time>2017-05-31T14:10:50Z</time>
      </trkpt>
      <trkpt lat="43.43522" lon="6.03772">
        <ele>332</ele>
        <time>2017-05-31T14:11:02Z</time>
      </trkpt>
      <trkpt lat="43.43519" lon="6.0377">
        <ele>332.39999389648</ele>
        <time>2017-05-31T14:11:04Z</time>
      </trkpt>
      <trkpt lat="43.43505" lon="6.03761">
        <ele>333</ele>
        <time>2017-05-31T14:11:14Z</time>
      </trkpt>
      <trkpt lat="43.435" lon="6.03756">
        <ele>333.60000610352</ele>
        <time>2017-05-31T14:11:18Z</time>
      </trkpt>
      <trkpt lat="43.43496" lon="6.03751">
        <ele>334.79998779297</ele>
        <time>2017-05-31T14:11:22Z</time>
      </trkpt>
      <trkpt lat="43.43493" lon="6.03748">
        <ele>335</ele>
        <time>2017-05-31T14:11:24Z</time>
      </trkpt>
      <trkpt lat="43.4348" lon="6.0374">
        <ele>335.79998779297</ele>
        <time>2017-05-31T14:11:34Z</time>
      </trkpt>
      <trkpt lat="43.43473" lon="6.0374">
        <ele>336.60000610352</ele>
        <time>2017-05-31T14:11:39Z</time>
      </trkpt>
      <trkpt lat="43.43469" lon="6.0374">
        <ele>337</ele>
        <time>2017-05-31T14:11:42Z</time>
      </trkpt>
      <trkpt lat="43.43456" lon="6.03754">
        <ele>338</ele>
        <time>2017-05-31T14:11:52Z</time>
      </trkpt>
      <trkpt lat="43.43454" lon="6.03756">
        <ele>338.20001220703</ele>
        <time>2017-05-31T14:11:54Z</time>
      </trkpt>
      <trkpt lat="43.43446" lon="6.03761">
        <ele>339.20001220703</ele>
        <time>2017-05-31T14:12:00Z</time>
      </trkpt>
      <trkpt lat="43.43441" lon="6.03767">
        <ele>339.79998779297</ele>
        <time>2017-05-31T14:12:04Z</time>
      </trkpt>
      <trkpt lat="43.43436" lon="6.03778">
        <ele>340</ele>
        <time>2017-05-31T14:12:10Z</time>
      </trkpt>
      <trkpt lat="43.43432" lon="6.03788">
        <ele>340</ele>
        <time>2017-05-31T14:12:14Z</time>
      </trkpt>
      <trkpt lat="43.4343" lon="6.03795">
        <ele>339.79998779297</ele>
        <time>2017-05-31T14:12:17Z</time>
      </trkpt>
      <trkpt lat="43.43425" lon="6.03805">
        <ele>339.60000610352</ele>
        <time>2017-05-31T14:12:21Z</time>
      </trkpt>
      <trkpt lat="43.43419" lon="6.03809">
        <ele>339.20001220703</ele>
        <time>2017-05-31T14:12:24Z</time>
      </trkpt>
      <trkpt lat="43.4341" lon="6.03809">
        <ele>339.20001220703</ele>
        <time>2017-05-31T14:12:31Z</time>
      </trkpt>
      <trkpt lat="43.43409" lon="6.03809">
        <ele>339.60000610352</ele>
        <time>2017-05-31T14:12:33Z</time>
      </trkpt>
      <trkpt lat="43.43409" lon="6.03809">
        <ele>339.79998779297</ele>
        <time>2017-05-31T14:12:34Z</time>
      </trkpt>
      <trkpt lat="43.43407" lon="6.0381">
        <ele>339.79998779297</ele>
        <time>2017-05-31T14:12:36Z</time>
      </trkpt>
      <trkpt lat="43.43406" lon="6.0381">
        <ele>339.79998779297</ele>
        <time>2017-05-31T14:12:40Z</time>
      </trkpt>
      <trkpt lat="43.43406" lon="6.03811">
        <ele>340</ele>
        <time>2017-05-31T14:12:44Z</time>
      </trkpt>
      <trkpt lat="43.43405" lon="6.0381">
        <ele>340</ele>
        <time>2017-05-31T14:12:48Z</time>
      </trkpt>
      <trkpt lat="43.43403" lon="6.0381">
        <ele>339.79998779297</ele>
        <time>2017-05-31T14:12:53Z</time>
      </trkpt>
      <trkpt lat="43.43403" lon="6.0381">
        <ele>339.79998779297</ele>
        <time>2017-05-31T14:12:54Z</time>
      </trkpt>
      <trkpt lat="43.43403" lon="6.03808">
        <ele>339.60000610352</ele>
        <time>2017-05-31T14:13:04Z</time>
      </trkpt>
      <trkpt lat="43.43402" lon="6.03808">
        <ele>339.60000610352</ele>
        <time>2017-05-31T14:13:09Z</time>
      </trkpt>
      <trkpt lat="43.43402" lon="6.03808">
        <ele>339.39999389648</ele>
        <time>2017-05-31T14:13:14Z</time>
      </trkpt>
      <trkpt lat="43.43403" lon="6.03808">
        <ele>339</ele>
        <time>2017-05-31T14:13:34Z</time>
      </trkpt>
      <trkpt lat="43.43403" lon="6.03808">
        <ele>339</ele>
        <time>2017-05-31T14:13:44Z</time>
      </trkpt>
      <trkpt lat="43.43404" lon="6.03808">
        <ele>338.79998779297</ele>
        <time>2017-05-31T14:13:54Z</time>
      </trkpt>
      <trkpt lat="43.43404" lon="6.03808">
        <ele>339</ele>
        <time>2017-05-31T14:14:12Z</time>
      </trkpt>
      <trkpt lat="43.43403" lon="6.03809">
        <ele>339.20001220703</ele>
        <time>2017-05-31T14:14:25Z</time>
      </trkpt>
      <trkpt lat="43.43403" lon="6.03808">
        <ele>339.20001220703</ele>
        <time>2017-05-31T14:14:55Z</time>
      </trkpt>
      <trkpt lat="43.43404" lon="6.03807">
        <ele>339.20001220703</ele>
        <time>2017-05-31T14:15:05Z</time>
      </trkpt>
      <trkpt lat="43.43403" lon="6.03806">
        <ele>339.20001220703</ele>
        <time>2017-05-31T14:15:15Z</time>
      </trkpt>
      <trkpt lat="43.43401" lon="6.03806">
        <ele>339.20001220703</ele>
        <time>2017-05-31T14:15:23Z</time>
      </trkpt>
      <trkpt lat="43.434" lon="6.03806">
        <ele>339.20001220703</ele>
        <time>2017-05-31T14:15:25Z</time>
      </trkpt>
      <trkpt lat="43.43399" lon="6.03805">
        <ele>339.20001220703</ele>
        <time>2017-05-31T14:15:27Z</time>
      </trkpt>
      <trkpt lat="43.43396" lon="6.03803">
        <ele>339.39999389648</ele>
        <time>2017-05-31T14:15:29Z</time>
      </trkpt>
      <trkpt lat="43.43391" lon="6.038">
        <ele>341</ele>
        <time>2017-05-31T14:15:32Z</time>
      </trkpt>
      <trkpt lat="43.43386" lon="6.03796">
        <ele>340.20001220703</ele>
        <time>2017-05-31T14:15:35Z</time>
      </trkpt>
      <trkpt lat="43.43375" lon="6.03788">
        <ele>341.20001220703</ele>
        <time>2017-05-31T14:15:43Z</time>
      </trkpt>
      <trkpt lat="43.43372" lon="6.03786">
        <ele>341.39999389648</ele>
        <time>2017-05-31T14:15:45Z</time>
      </trkpt>
      <trkpt lat="43.43365" lon="6.0378">
        <ele>342</ele>
        <time>2017-05-31T14:15:50Z</time>
      </trkpt>
      <trkpt lat="43.43359" lon="6.03772">
        <ele>342.20001220703</ele>
        <time>2017-05-31T14:15:55Z</time>
      </trkpt>
      <trkpt lat="43.43348" lon="6.0376">
        <ele>343</ele>
        <time>2017-05-31T14:16:04Z</time>
      </trkpt>
      <trkpt lat="43.43345" lon="6.03758">
        <ele>343</ele>
        <time>2017-05-31T14:16:05Z</time>
      </trkpt>
      <trkpt lat="43.43331" lon="6.03748">
        <ele>344</ele>
        <time>2017-05-31T14:16:13Z</time>
      </trkpt>
      <trkpt lat="43.43321" lon="6.03741">
        <ele>344.60000610352</ele>
        <time>2017-05-31T14:16:20Z</time>
      </trkpt>
      <trkpt lat="43.43319" lon="6.03739">
        <ele>344.60000610352</ele>
        <time>2017-05-31T14:16:22Z</time>
      </trkpt>
      <trkpt lat="43.43314" lon="6.03734">
        <ele>344.39999389648</ele>
        <time>2017-05-31T14:16:26Z</time>
      </trkpt>
      <trkpt lat="43.43307" lon="6.03724">
        <ele>345.20001220703</ele>
        <time>2017-05-31T14:16:32Z</time>
      </trkpt>
      <trkpt lat="43.433" lon="6.03709">
        <ele>346.39999389648</ele>
        <time>2017-05-31T14:16:40Z</time>
      </trkpt>
      <trkpt lat="43.43296" lon="6.03701">
        <ele>347</ele>
        <time>2017-05-31T14:16:46Z</time>
      </trkpt>
      <trkpt lat="43.43295" lon="6.03692">
        <ele>347.60000610352</ele>
        <time>2017-05-31T14:16:51Z</time>
      </trkpt>
      <trkpt lat="43.43294" lon="6.03683">
        <ele>348.20001220703</ele>
        <time>2017-05-31T14:16:56Z</time>
      </trkpt>
      <trkpt lat="43.43296" lon="6.03664">
        <ele>348.60000610352</ele>
        <time>2017-05-31T14:17:06Z</time>
      </trkpt>
      <trkpt lat="43.43303" lon="6.03646">
        <ele>349.79998779297</ele>
        <time>2017-05-31T14:17:16Z</time>
      </trkpt>
      <trkpt lat="43.43309" lon="6.03633">
        <ele>350.60000610352</ele>
        <time>2017-05-31T14:17:24Z</time>
      </trkpt>
      <trkpt lat="43.43309" lon="6.0363">
        <ele>351</ele>
        <time>2017-05-31T14:17:26Z</time>
      </trkpt>
      <trkpt lat="43.43309" lon="6.03629">
        <ele>351.20001220703</ele>
        <time>2017-05-31T14:17:27Z</time>
      </trkpt>
      <trkpt lat="43.43309" lon="6.0363">
        <ele>351.39999389648</ele>
        <time>2017-05-31T14:17:33Z</time>
      </trkpt>
      <trkpt lat="43.43309" lon="6.03631">
        <ele>350.79998779297</ele>
        <time>2017-05-31T14:17:38Z</time>
      </trkpt>
      <trkpt lat="43.43309" lon="6.03631">
        <ele>350.79998779297</ele>
        <time>2017-05-31T14:17:40Z</time>
      </trkpt>
      <trkpt lat="43.43309" lon="6.03632">
        <ele>350.79998779297</ele>
        <time>2017-05-31T14:17:43Z</time>
      </trkpt>
      <trkpt lat="43.43309" lon="6.03632">
        <ele>350.79998779297</ele>
        <time>2017-05-31T14:17:46Z</time>
      </trkpt>
      <trkpt lat="43.43311" lon="6.03626">
        <ele>351.79998779297</ele>
        <time>2017-05-31T14:17:55Z</time>
      </trkpt>
      <trkpt lat="43.43311" lon="6.03625">
        <ele>352</ele>
        <time>2017-05-31T14:17:56Z</time>
      </trkpt>
      <trkpt lat="43.43311" lon="6.03624">
        <ele>352.60000610352</ele>
        <time>2017-05-31T14:17:59Z</time>
      </trkpt>
      <trkpt lat="43.43311" lon="6.03623">
        <ele>352.79998779297</ele>
        <time>2017-05-31T14:18:00Z</time>
      </trkpt>
      <trkpt lat="43.43311" lon="6.0362">
        <ele>353.60000610352</ele>
        <time>2017-05-31T14:18:06Z</time>
      </trkpt>
      <trkpt lat="43.43311" lon="6.03618">
        <ele>353.79998779297</ele>
        <time>2017-05-31T14:18:09Z</time>
      </trkpt>
      <trkpt lat="43.43311" lon="6.03613">
        <ele>354.39999389648</ele>
        <time>2017-05-31T14:18:16Z</time>
      </trkpt>
      <trkpt lat="43.43311" lon="6.03605">
        <ele>354.79998779297</ele>
        <time>2017-05-31T14:18:24Z</time>
      </trkpt>
      <trkpt lat="43.43312" lon="6.03604">
        <ele>355.20001220703</ele>
        <time>2017-05-31T14:18:26Z</time>
      </trkpt>
      <trkpt lat="43.43312" lon="6.03602">
        <ele>356</ele>
        <time>2017-05-31T14:18:31Z</time>
      </trkpt>
      <trkpt lat="43.43312" lon="6.036">
        <ele>356</ele>
        <time>2017-05-31T14:18:36Z</time>
      </trkpt>
      <trkpt lat="43.43311" lon="6.03595">
        <ele>356</ele>
        <time>2017-05-31T14:18:46Z</time>
      </trkpt>
      <trkpt lat="43.43312" lon="6.03588">
        <ele>356.20001220703</ele>
        <time>2017-05-31T14:18:57Z</time>
      </trkpt>
      <trkpt lat="43.43311" lon="6.0358">
        <ele>356.60000610352</ele>
        <time>2017-05-31T14:19:02Z</time>
      </trkpt>
      <trkpt lat="43.4331" lon="6.03575">
        <ele>357</ele>
        <time>2017-05-31T14:19:06Z</time>
      </trkpt>
      <trkpt lat="43.43309" lon="6.03573">
        <ele>357</ele>
        <time>2017-05-31T14:19:08Z</time>
      </trkpt>
      <trkpt lat="43.43307" lon="6.03573">
        <ele>357.20001220703</ele>
        <time>2017-05-31T14:19:10Z</time>
      </trkpt>
      <trkpt lat="43.43305" lon="6.03575">
        <ele>357.60000610352</ele>
        <time>2017-05-31T14:19:12Z</time>
      </trkpt>
      <trkpt lat="43.43305" lon="6.03578">
        <ele>358.20001220703</ele>
        <time>2017-05-31T14:19:14Z</time>
      </trkpt>
      <trkpt lat="43.43304" lon="6.0358">
        <ele>358.60000610352</ele>
        <time>2017-05-31T14:19:16Z</time>
      </trkpt>
      <trkpt lat="43.43304" lon="6.03581">
        <ele>359</ele>
        <time>2017-05-31T14:19:19Z</time>
      </trkpt>
      <trkpt lat="43.43303" lon="6.03582">
        <ele>359.39999389648</ele>
        <time>2017-05-31T14:19:21Z</time>
      </trkpt>
      <trkpt lat="43.43304" lon="6.03583">
        <ele>359.79998779297</ele>
        <time>2017-05-31T14:19:26Z</time>
      </trkpt>
      <trkpt lat="43.43304" lon="6.03586">
        <ele>359.79998779297</ele>
        <time>2017-05-31T14:19:31Z</time>
      </trkpt>
      <trkpt lat="43.43302" lon="6.03589">
        <ele>360</ele>
        <time>2017-05-31T14:19:36Z</time>
      </trkpt>
      <trkpt lat="43.43301" lon="6.03589">
        <ele>360.20001220703</ele>
        <time>2017-05-31T14:19:40Z</time>
      </trkpt>
      <trkpt lat="43.43301" lon="6.0359">
        <ele>360.39999389648</ele>
        <time>2017-05-31T14:19:44Z</time>
      </trkpt>
      <trkpt lat="43.43301" lon="6.0359">
        <ele>360.60000610352</ele>
        <time>2017-05-31T14:19:46Z</time>
      </trkpt>
      <trkpt lat="43.433" lon="6.03591">
        <ele>360.79998779297</ele>
        <time>2017-05-31T14:19:56Z</time>
      </trkpt>
      <trkpt lat="43.43299" lon="6.03591">
        <ele>360.39999389648</ele>
        <time>2017-05-31T14:20:05Z</time>
      </trkpt>
      <trkpt lat="43.43299" lon="6.03592">
        <ele>360.39999389648</ele>
        <time>2017-05-31T14:20:06Z</time>
      </trkpt>
      <trkpt lat="43.43298" lon="6.03595">
        <ele>360.79998779297</ele>
        <time>2017-05-31T14:20:09Z</time>
      </trkpt>
      <trkpt lat="43.43295" lon="6.03599">
        <ele>361.20001220703</ele>
        <time>2017-05-31T14:20:12Z</time>
      </trkpt>
      <trkpt lat="43.43293" lon="6.03601">
        <ele>361.39999389648</ele>
        <time>2017-05-31T14:20:14Z</time>
      </trkpt>
      <trkpt lat="43.4329" lon="6.03603">
        <ele>362</ele>
        <time>2017-05-31T14:20:16Z</time>
      </trkpt>
      <trkpt lat="43.43286" lon="6.03606">
        <ele>362.79998779297</ele>
        <time>2017-05-31T14:20:19Z</time>
      </trkpt>
      <trkpt lat="43.43283" lon="6.03608">
        <ele>363.79998779297</ele>
        <time>2017-05-31T14:20:22Z</time>
      </trkpt>
      <trkpt lat="43.43282" lon="6.03609">
        <ele>364.20001220703</ele>
        <time>2017-05-31T14:20:23Z</time>
      </trkpt>
      <trkpt lat="43.43279" lon="6.03614">
        <ele>364.79998779297</ele>
        <time>2017-05-31T14:20:26Z</time>
      </trkpt>
      <trkpt lat="43.43276" lon="6.03618">
        <ele>366</ele>
        <time>2017-05-31T14:20:30Z</time>
      </trkpt>
      <trkpt lat="43.4327" lon="6.03628">
        <ele>367</ele>
        <time>2017-05-31T14:20:38Z</time>
      </trkpt>
      <trkpt lat="43.43266" lon="6.03633">
        <ele>368.20001220703</ele>
        <time>2017-05-31T14:20:46Z</time>
      </trkpt>
      <trkpt lat="43.43266" lon="6.03633">
        <ele>368.79998779297</ele>
        <time>2017-05-31T14:20:49Z</time>
      </trkpt>
      <trkpt lat="43.43266" lon="6.03633">
        <ele>369</ele>
        <time>2017-05-31T14:20:53Z</time>
      </trkpt>
      <trkpt lat="43.43264" lon="6.03635">
        <ele>369</ele>
        <time>2017-05-31T14:20:56Z</time>
      </trkpt>
      <trkpt lat="43.43264" lon="6.03636">
        <ele>369</ele>
        <time>2017-05-31T14:21:00Z</time>
      </trkpt>
      <trkpt lat="43.43264" lon="6.03636">
        <ele>369</ele>
        <time>2017-05-31T14:21:03Z</time>
      </trkpt>
      <trkpt lat="43.43264" lon="6.03636">
        <ele>369</ele>
        <time>2017-05-31T14:21:05Z</time>
      </trkpt>
      <trkpt lat="43.43263" lon="6.03637">
        <ele>369.20001220703</ele>
        <time>2017-05-31T14:21:11Z</time>
      </trkpt>
      <trkpt lat="43.43261" lon="6.03639">
        <ele>370</ele>
        <time>2017-05-31T14:21:16Z</time>
      </trkpt>
      <trkpt lat="43.43258" lon="6.03642">
        <ele>370.60000610352</ele>
        <time>2017-05-31T14:21:24Z</time>
      </trkpt>
      <trkpt lat="43.43258" lon="6.03643">
        <ele>371</ele>
        <time>2017-05-31T14:21:26Z</time>
      </trkpt>
      <trkpt lat="43.43253" lon="6.03649">
        <ele>372</ele>
        <time>2017-05-31T14:21:36Z</time>
      </trkpt>
      <trkpt lat="43.43251" lon="6.03651">
        <ele>372.39999389648</ele>
        <time>2017-05-31T14:21:40Z</time>
      </trkpt>
      <trkpt lat="43.43248" lon="6.03654">
        <ele>373</ele>
        <time>2017-05-31T14:21:46Z</time>
      </trkpt>
      <trkpt lat="43.43245" lon="6.03659">
        <ele>373.39999389648</ele>
        <time>2017-05-31T14:21:54Z</time>
      </trkpt>
      <trkpt lat="43.43243" lon="6.03663">
        <ele>373.79998779297</ele>
        <time>2017-05-31T14:21:58Z</time>
      </trkpt>
      <trkpt lat="43.43242" lon="6.03665">
        <ele>374</ele>
        <time>2017-05-31T14:22:01Z</time>
      </trkpt>
      <trkpt lat="43.4324" lon="6.03667">
        <ele>374.39999389648</ele>
        <time>2017-05-31T14:22:06Z</time>
      </trkpt>
      <trkpt lat="43.43239" lon="6.03668">
        <ele>374.39999389648</ele>
        <time>2017-05-31T14:22:07Z</time>
      </trkpt>
      <trkpt lat="43.43233" lon="6.03675">
        <ele>375.39999389648</ele>
        <time>2017-05-31T14:22:16Z</time>
      </trkpt>
      <trkpt lat="43.43229" lon="6.03681">
        <ele>376.60000610352</ele>
        <time>2017-05-31T14:22:26Z</time>
      </trkpt>
      <trkpt lat="43.43227" lon="6.03684">
        <ele>377.39999389648</ele>
        <time>2017-05-31T14:22:33Z</time>
      </trkpt>
      <trkpt lat="43.43225" lon="6.03686">
        <ele>377.60000610352</ele>
        <time>2017-05-31T14:22:36Z</time>
      </trkpt>
      <trkpt lat="43.43224" lon="6.03687">
        <ele>377.60000610352</ele>
        <time>2017-05-31T14:22:37Z</time>
      </trkpt>
      <trkpt lat="43.43222" lon="6.0369">
        <ele>378</ele>
        <time>2017-05-31T14:22:41Z</time>
      </trkpt>
      <trkpt lat="43.43218" lon="6.03695">
        <ele>379</ele>
        <time>2017-05-31T14:22:48Z</time>
      </trkpt>
      <trkpt lat="43.43217" lon="6.03698">
        <ele>379.20001220703</ele>
        <time>2017-05-31T14:22:51Z</time>
      </trkpt>
      <trkpt lat="43.43216" lon="6.03702">
        <ele>379.20001220703</ele>
        <time>2017-05-31T14:22:57Z</time>
      </trkpt>
      <trkpt lat="43.43213" lon="6.03703">
        <ele>379.20001220703</ele>
        <time>2017-05-31T14:23:08Z</time>
      </trkpt>
      <trkpt lat="43.43211" lon="6.03705">
        <ele>379.20001220703</ele>
        <time>2017-05-31T14:23:10Z</time>
      </trkpt>
      <trkpt lat="43.43205" lon="6.03715">
        <ele>379.79998779297</ele>
        <time>2017-05-31T14:23:17Z</time>
      </trkpt>
      <trkpt lat="43.43203" lon="6.03717">
        <ele>380.20001220703</ele>
        <time>2017-05-31T14:23:19Z</time>
      </trkpt>
      <trkpt lat="43.43197" lon="6.03724">
        <ele>380.79998779297</ele>
        <time>2017-05-31T14:23:25Z</time>
      </trkpt>
      <trkpt lat="43.43193" lon="6.03728">
        <ele>381.79998779297</ele>
        <time>2017-05-31T14:23:30Z</time>
      </trkpt>
      <trkpt lat="43.43193" lon="6.03732">
        <ele>382</ele>
        <time>2017-05-31T14:23:32Z</time>
      </trkpt>
      <trkpt lat="43.43192" lon="6.03739">
        <ele>382.20001220703</ele>
        <time>2017-05-31T14:23:36Z</time>
      </trkpt>
      <trkpt lat="43.43193" lon="6.03744">
        <ele>382.79998779297</ele>
        <time>2017-05-31T14:23:39Z</time>
      </trkpt>
      <trkpt lat="43.43193" lon="6.03745">
        <ele>383.20001220703</ele>
        <time>2017-05-31T14:23:40Z</time>
      </trkpt>
      <trkpt lat="43.43193" lon="6.03746">
        <ele>383.20001220703</ele>
        <time>2017-05-31T14:23:41Z</time>
      </trkpt>
      <trkpt lat="43.43186" lon="6.03758">
        <ele>384.20001220703</ele>
        <time>2017-05-31T14:23:51Z</time>
      </trkpt>
      <trkpt lat="43.43185" lon="6.03759">
        <ele>384.39999389648</ele>
        <time>2017-05-31T14:23:52Z</time>
      </trkpt>
      <trkpt lat="43.4318" lon="6.0377">
        <ele>384.60000610352</ele>
        <time>2017-05-31T14:24:00Z</time>
      </trkpt>
      <trkpt lat="43.4318" lon="6.03771">
        <ele>384.60000610352</ele>
        <time>2017-05-31T14:24:01Z</time>
      </trkpt>
      <trkpt lat="43.4318" lon="6.03774">
        <ele>384.60000610352</ele>
        <time>2017-05-31T14:24:03Z</time>
      </trkpt>
      <trkpt lat="43.43178" lon="6.03783">
        <ele>384.60000610352</ele>
        <time>2017-05-31T14:24:08Z</time>
      </trkpt>
      <trkpt lat="43.43176" lon="6.03789">
        <ele>384.60000610352</ele>
        <time>2017-05-31T14:24:11Z</time>
      </trkpt>
      <trkpt lat="43.43175" lon="6.03789">
        <ele>384.39999389648</ele>
        <time>2017-05-31T14:24:12Z</time>
      </trkpt>
      <trkpt lat="43.43174" lon="6.03789">
        <ele>384.20001220703</ele>
        <time>2017-05-31T14:24:13Z</time>
      </trkpt>
      <trkpt lat="43.43168" lon="6.03788">
        <ele>383.60000610352</ele>
        <time>2017-05-31T14:24:16Z</time>
      </trkpt>
      <trkpt lat="43.43158" lon="6.03782">
        <ele>383</ele>
        <time>2017-05-31T14:24:20Z</time>
      </trkpt>
      <trkpt lat="43.43155" lon="6.03772">
        <ele>383</ele>
        <time>2017-05-31T14:24:23Z</time>
      </trkpt>
      <trkpt lat="43.43151" lon="6.03751">
        <ele>383</ele>
        <time>2017-05-31T14:24:32Z</time>
      </trkpt>
      <trkpt lat="43.43153" lon="6.03729">
        <ele>384</ele>
        <time>2017-05-31T14:24:41Z</time>
      </trkpt>
      <trkpt lat="43.43155" lon="6.03725">
        <ele>384.39999389648</ele>
        <time>2017-05-31T14:24:43Z</time>
      </trkpt>
      <trkpt lat="43.43157" lon="6.03712">
        <ele>384.79998779297</ele>
        <time>2017-05-31T14:24:48Z</time>
      </trkpt>
      <trkpt lat="43.43158" lon="6.0371">
        <ele>385</ele>
        <time>2017-05-31T14:24:49Z</time>
      </trkpt>
      <trkpt lat="43.43159" lon="6.03702">
        <ele>385.39999389648</ele>
        <time>2017-05-31T14:24:52Z</time>
      </trkpt>
      <trkpt lat="43.43161" lon="6.03689">
        <ele>385.79998779297</ele>
        <time>2017-05-31T14:24:59Z</time>
      </trkpt>
      <trkpt lat="43.4316" lon="6.03687">
        <ele>386</ele>
        <time>2017-05-31T14:25:03Z</time>
      </trkpt>
      <trkpt lat="43.4316" lon="6.03687">
        <ele>386.20001220703</ele>
        <time>2017-05-31T14:25:04Z</time>
      </trkpt>
      <trkpt lat="43.43161" lon="6.03687">
        <ele>386.20001220703</ele>
        <time>2017-05-31T14:25:09Z</time>
      </trkpt>
      <trkpt lat="43.43161" lon="6.03687">
        <ele>386</ele>
        <time>2017-05-31T14:25:13Z</time>
      </trkpt>
      <trkpt lat="43.43162" lon="6.03687">
        <ele>385.79998779297</ele>
        <time>2017-05-31T14:25:24Z</time>
      </trkpt>
      <trkpt lat="43.43163" lon="6.03682">
        <ele>386</ele>
        <time>2017-05-31T14:25:29Z</time>
      </trkpt>
      <trkpt lat="43.43163" lon="6.03679">
        <ele>386.20001220703</ele>
        <time>2017-05-31T14:25:31Z</time>
      </trkpt>
      <trkpt lat="43.43163" lon="6.03674">
        <ele>386.39999389648</ele>
        <time>2017-05-31T14:25:33Z</time>
      </trkpt>
      <trkpt lat="43.43166" lon="6.03652">
        <ele>387</ele>
        <time>2017-05-31T14:25:43Z</time>
      </trkpt>
      <trkpt lat="43.43165" lon="6.03638">
        <ele>387.20001220703</ele>
        <time>2017-05-31T14:25:49Z</time>
      </trkpt>
      <trkpt lat="43.43166" lon="6.03625">
        <ele>387.60000610352</ele>
        <time>2017-05-31T14:25:54Z</time>
      </trkpt>
      <trkpt lat="43.43162" lon="6.03603">
        <ele>388.20001220703</ele>
        <time>2017-05-31T14:26:01Z</time>
      </trkpt>
      <trkpt lat="43.43153" lon="6.03592">
        <ele>388.20001220703</ele>
        <time>2017-05-31T14:26:05Z</time>
      </trkpt>
      <trkpt lat="43.43138" lon="6.03587">
        <ele>387.39999389648</ele>
        <time>2017-05-31T14:26:09Z</time>
      </trkpt>
      <trkpt lat="43.43134" lon="6.03587">
        <ele>387.20001220703</ele>
        <time>2017-05-31T14:26:10Z</time>
      </trkpt>
      <trkpt lat="43.43117" lon="6.03587">
        <ele>386.60000610352</ele>
        <time>2017-05-31T14:26:15Z</time>
      </trkpt>
      <trkpt lat="43.43108" lon="6.03588">
        <ele>386.79998779297</ele>
        <time>2017-05-31T14:26:19Z</time>
      </trkpt>
      <trkpt lat="43.43105" lon="6.03591">
        <ele>387</ele>
        <time>2017-05-31T14:26:23Z</time>
      </trkpt>
      <trkpt lat="43.43105" lon="6.03592">
        <ele>387.20001220703</ele>
        <time>2017-05-31T14:26:25Z</time>
      </trkpt>
      <trkpt lat="43.43105" lon="6.03592">
        <ele>387</ele>
        <time>2017-05-31T14:26:36Z</time>
      </trkpt>
      <trkpt lat="43.43105" lon="6.03592">
        <ele>386.79998779297</ele>
        <time>2017-05-31T14:26:46Z</time>
      </trkpt>
      <trkpt lat="43.43105" lon="6.03592">
        <ele>387</ele>
        <time>2017-05-31T14:27:07Z</time>
      </trkpt>
      <trkpt lat="43.43105" lon="6.03592">
        <ele>386.60000610352</ele>
        <time>2017-05-31T14:27:17Z</time>
      </trkpt>
      <trkpt lat="43.43106" lon="6.03593">
        <ele>386.60000610352</ele>
        <time>2017-05-31T14:27:38Z</time>
      </trkpt>
      <trkpt lat="43.43106" lon="6.03592">
        <ele>386.60000610352</ele>
        <time>2017-05-31T14:27:47Z</time>
      </trkpt>
      <trkpt lat="43.43105" lon="6.03593">
        <ele>386.60000610352</ele>
        <time>2017-05-31T14:27:58Z</time>
      </trkpt>
      <trkpt lat="43.43105" lon="6.03592">
        <ele>386.60000610352</ele>
        <time>2017-05-31T14:28:08Z</time>
      </trkpt>
      <trkpt lat="43.43104" lon="6.03598">
        <ele>386.20001220703</ele>
        <time>2017-05-31T14:28:14Z</time>
      </trkpt>
      <trkpt lat="43.43103" lon="6.03601">
        <ele>386</ele>
        <time>2017-05-31T14:28:15Z</time>
      </trkpt>
      <trkpt lat="43.43102" lon="6.0361">
        <ele>385</ele>
        <time>2017-05-31T14:28:17Z</time>
      </trkpt>
      <trkpt lat="43.43102" lon="6.03615">
        <ele>384.79998779297</ele>
        <time>2017-05-31T14:28:18Z</time>
      </trkpt>
      <trkpt lat="43.43102" lon="6.03624">
        <ele>384.79998779297</ele>
        <time>2017-05-31T14:28:20Z</time>
      </trkpt>
      <trkpt lat="43.43101" lon="6.03639">
        <ele>384.60000610352</ele>
        <time>2017-05-31T14:28:23Z</time>
      </trkpt>
      <trkpt lat="43.43098" lon="6.03662">
        <ele>384.79998779297</ele>
        <time>2017-05-31T14:28:28Z</time>
      </trkpt>
      <trkpt lat="43.43097" lon="6.03711">
        <ele>384.39999389648</ele>
        <time>2017-05-31T14:28:38Z</time>
      </trkpt>
      <trkpt lat="43.43098" lon="6.03722">
        <ele>384.39999389648</ele>
        <time>2017-05-31T14:28:41Z</time>
      </trkpt>
      <trkpt lat="43.43112" lon="6.03734">
        <ele>384</ele>
        <time>2017-05-31T14:28:49Z</time>
      </trkpt>
      <trkpt lat="43.43114" lon="6.03737">
        <ele>383.79998779297</ele>
        <time>2017-05-31T14:28:50Z</time>
      </trkpt>
      <trkpt lat="43.43118" lon="6.03746">
        <ele>383</ele>
        <time>2017-05-31T14:28:54Z</time>
      </trkpt>
      <trkpt lat="43.43122" lon="6.03747">
        <ele>382.79998779297</ele>
        <time>2017-05-31T14:28:56Z</time>
      </trkpt>
      <trkpt lat="43.43127" lon="6.03754">
        <ele>382.60000610352</ele>
        <time>2017-05-31T14:28:59Z</time>
      </trkpt>
      <trkpt lat="43.43125" lon="6.03767">
        <ele>382.39999389648</ele>
        <time>2017-05-31T14:29:04Z</time>
      </trkpt>
      <trkpt lat="43.43126" lon="6.03773">
        <ele>382.20001220703</ele>
        <time>2017-05-31T14:29:06Z</time>
      </trkpt>
      <trkpt lat="43.43132" lon="6.03785">
        <ele>381.79998779297</ele>
        <time>2017-05-31T14:29:11Z</time>
      </trkpt>
      <trkpt lat="43.43136" lon="6.03812">
        <ele>381.60000610352</ele>
        <time>2017-05-31T14:29:19Z</time>
      </trkpt>
      <trkpt lat="43.43144" lon="6.03848">
        <ele>381.20001220703</ele>
        <time>2017-05-31T14:29:28Z</time>
      </trkpt>
      <trkpt lat="43.43144" lon="6.03871">
        <ele>380.60000610352</ele>
        <time>2017-05-31T14:29:33Z</time>
      </trkpt>
      <trkpt lat="43.43144" lon="6.03892">
        <ele>380</ele>
        <time>2017-05-31T14:29:38Z</time>
      </trkpt>
      <trkpt lat="43.43143" lon="6.03893">
        <ele>379.79998779297</ele>
        <time>2017-05-31T14:29:39Z</time>
      </trkpt>
      <trkpt lat="43.4314" lon="6.03897">
        <ele>379.60000610352</ele>
        <time>2017-05-31T14:29:41Z</time>
      </trkpt>
      <trkpt lat="43.4314" lon="6.03901">
        <ele>379.60000610352</ele>
        <time>2017-05-31T14:29:42Z</time>
      </trkpt>
      <trkpt lat="43.43143" lon="6.03911">
        <ele>379.39999389648</ele>
        <time>2017-05-31T14:29:46Z</time>
      </trkpt>
      <trkpt lat="43.43142" lon="6.0392">
        <ele>379.20001220703</ele>
        <time>2017-05-31T14:29:49Z</time>
      </trkpt>
      <trkpt lat="43.43139" lon="6.03927">
        <ele>378.60000610352</ele>
        <time>2017-05-31T14:29:52Z</time>
      </trkpt>
      <trkpt lat="43.4313" lon="6.03942">
        <ele>378.39999389648</ele>
        <time>2017-05-31T14:29:58Z</time>
      </trkpt>
      <trkpt lat="43.43119" lon="6.03968">
        <ele>377.39999389648</ele>
        <time>2017-05-31T14:30:06Z</time>
      </trkpt>
      <trkpt lat="43.43113" lon="6.03977">
        <ele>377</ele>
        <time>2017-05-31T14:30:09Z</time>
      </trkpt>
      <trkpt lat="43.43098" lon="6.04005">
        <ele>377.20001220703</ele>
        <time>2017-05-31T14:30:19Z</time>
      </trkpt>
      <trkpt lat="43.43078" lon="6.04023">
        <ele>376.79998779297</ele>
        <time>2017-05-31T14:30:28Z</time>
      </trkpt>
      <trkpt lat="43.43075" lon="6.0402">
        <ele>377</ele>
        <time>2017-05-31T14:30:30Z</time>
      </trkpt>
      <trkpt lat="43.43071" lon="6.04018">
        <ele>377.60000610352</ele>
        <time>2017-05-31T14:30:33Z</time>
      </trkpt>
      <trkpt lat="43.43068" lon="6.0402">
        <ele>377.79998779297</ele>
        <time>2017-05-31T14:30:35Z</time>
      </trkpt>
      <trkpt lat="43.43066" lon="6.04023">
        <ele>377.60000610352</ele>
        <time>2017-05-31T14:30:40Z</time>
      </trkpt>
      <trkpt lat="43.43067" lon="6.04023">
        <ele>377.79998779297</ele>
        <time>2017-05-31T14:30:50Z</time>
      </trkpt>
      <trkpt lat="43.43068" lon="6.04024">
        <ele>377.60000610352</ele>
        <time>2017-05-31T14:31:00Z</time>
      </trkpt>
      <trkpt lat="43.43068" lon="6.04024">
        <ele>377.79998779297</ele>
        <time>2017-05-31T14:31:11Z</time>
      </trkpt>
      <trkpt lat="43.43068" lon="6.04023">
        <ele>378</ele>
        <time>2017-05-31T14:31:31Z</time>
      </trkpt>
      <trkpt lat="43.43067" lon="6.04024">
        <ele>378</ele>
        <time>2017-05-31T14:31:37Z</time>
      </trkpt>
      <trkpt lat="43.43067" lon="6.04024">
        <ele>377.79998779297</ele>
        <time>2017-05-31T14:31:41Z</time>
      </trkpt>
      <trkpt lat="43.43066" lon="6.04024">
        <ele>377.60000610352</ele>
        <time>2017-05-31T14:31:51Z</time>
      </trkpt>
      <trkpt lat="43.43066" lon="6.04024">
        <ele>377.39999389648</ele>
        <time>2017-05-31T14:32:11Z</time>
      </trkpt>
      <trkpt lat="43.43067" lon="6.04023">
        <ele>377.39999389648</ele>
        <time>2017-05-31T14:32:21Z</time>
      </trkpt>
      <trkpt lat="43.43068" lon="6.04023">
        <ele>377.20001220703</ele>
        <time>2017-05-31T14:32:31Z</time>
      </trkpt>
      <trkpt lat="43.43068" lon="6.04022">
        <ele>377</ele>
        <time>2017-05-31T14:32:41Z</time>
      </trkpt>
      <trkpt lat="43.43067" lon="6.04022">
        <ele>377.20001220703</ele>
        <time>2017-05-31T14:32:51Z</time>
      </trkpt>
      <trkpt lat="43.43065" lon="6.04025">
        <ele>377</ele>
        <time>2017-05-31T14:32:57Z</time>
      </trkpt>
      <trkpt lat="43.43061" lon="6.04033">
        <ele>376.39999389648</ele>
        <time>2017-05-31T14:33:01Z</time>
      </trkpt>
      <trkpt lat="43.43056" lon="6.04059">
        <ele>376.60000610352</ele>
        <time>2017-05-31T14:33:09Z</time>
      </trkpt>
      <trkpt lat="43.43054" lon="6.04066">
        <ele>376.60000610352</ele>
        <time>2017-05-31T14:33:11Z</time>
      </trkpt>
      <trkpt lat="43.43045" lon="6.04106">
        <ele>376.39999389648</ele>
        <time>2017-05-31T14:33:21Z</time>
      </trkpt>
      <trkpt lat="43.43034" lon="6.04156">
        <ele>375.60000610352</ele>
        <time>2017-05-31T14:33:31Z</time>
      </trkpt>
      <trkpt lat="43.43025" lon="6.04201">
        <ele>376</ele>
        <time>2017-05-31T14:33:41Z</time>
      </trkpt>
      <trkpt lat="43.43021" lon="6.04219">
        <ele>376.39999389648</ele>
        <time>2017-05-31T14:33:45Z</time>
      </trkpt>
      <trkpt lat="43.43016" lon="6.04243">
        <ele>376</ele>
        <time>2017-05-31T14:33:51Z</time>
      </trkpt>
      <trkpt lat="43.43011" lon="6.04267">
        <ele>376.39999389648</ele>
        <time>2017-05-31T14:33:56Z</time>
      </trkpt>
      <trkpt lat="43.43007" lon="6.0429">
        <ele>376.20001220703</ele>
        <time>2017-05-31T14:34:00Z</time>
      </trkpt>
      <trkpt lat="43.43005" lon="6.0431">
        <ele>375.39999389648</ele>
        <time>2017-05-31T14:34:03Z</time>
      </trkpt>
      <trkpt lat="43.43002" lon="6.04347">
        <ele>374.39999389648</ele>
        <time>2017-05-31T14:34:09Z</time>
      </trkpt>
      <trkpt lat="43.43001" lon="6.04357">
        <ele>374.39999389648</ele>
        <time>2017-05-31T14:34:11Z</time>
      </trkpt>
      <trkpt lat="43.43001" lon="6.04371">
        <ele>375.60000610352</ele>
        <time>2017-05-31T14:34:14Z</time>
      </trkpt>
      <trkpt lat="43.43" lon="6.04384">
        <ele>376.39999389648</ele>
        <time>2017-05-31T14:34:17Z</time>
      </trkpt>
      <trkpt lat="43.42997" lon="6.04395">
        <ele>376.60000610352</ele>
        <time>2017-05-31T14:34:20Z</time>
      </trkpt>
      <trkpt lat="43.42994" lon="6.04402">
        <ele>377</ele>
        <time>2017-05-31T14:34:22Z</time>
      </trkpt>
      <trkpt lat="43.42993" lon="6.04414">
        <ele>378.60000610352</ele>
        <time>2017-05-31T14:34:25Z</time>
      </trkpt>
      <trkpt lat="43.42991" lon="6.04431">
        <ele>378.39999389648</ele>
        <time>2017-05-31T14:34:29Z</time>
      </trkpt>
      <trkpt lat="43.4299" lon="6.0444">
        <ele>378.20001220703</ele>
        <time>2017-05-31T14:34:31Z</time>
      </trkpt>
      <trkpt lat="43.42979" lon="6.04484">
        <ele>377.79998779297</ele>
        <time>2017-05-31T14:34:41Z</time>
      </trkpt>
      <trkpt lat="43.42978" lon="6.0449">
        <ele>377.39999389648</ele>
        <time>2017-05-31T14:34:42Z</time>
      </trkpt>
      <trkpt lat="43.42976" lon="6.04497">
        <ele>376.79998779297</ele>
        <time>2017-05-31T14:34:43Z</time>
      </trkpt>
      <trkpt lat="43.42976" lon="6.04504">
        <ele>376</ele>
        <time>2017-05-31T14:34:44Z</time>
      </trkpt>
      <trkpt lat="43.42975" lon="6.04512">
        <ele>375.20001220703</ele>
        <time>2017-05-31T14:34:45Z</time>
      </trkpt>
      <trkpt lat="43.42975" lon="6.04521">
        <ele>374.60000610352</ele>
        <time>2017-05-31T14:34:46Z</time>
      </trkpt>
      <trkpt lat="43.42976" lon="6.04542">
        <ele>373</ele>
        <time>2017-05-31T14:34:48Z</time>
      </trkpt>
      <trkpt lat="43.42976" lon="6.04554">
        <ele>371.79998779297</ele>
        <time>2017-05-31T14:34:49Z</time>
      </trkpt>
      <trkpt lat="43.42977" lon="6.04573">
        <ele>370.20001220703</ele>
        <time>2017-05-31T14:34:51Z</time>
      </trkpt>
      <trkpt lat="43.42976" lon="6.04581">
        <ele>369.79998779297</ele>
        <time>2017-05-31T14:34:52Z</time>
      </trkpt>
      <trkpt lat="43.42973" lon="6.04604">
        <ele>370.20001220703</ele>
        <time>2017-05-31T14:34:56Z</time>
      </trkpt>
      <trkpt lat="43.4297" lon="6.04622">
        <ele>371.20001220703</ele>
        <time>2017-05-31T14:35:00Z</time>
      </trkpt>
      <trkpt lat="43.4297" lon="6.04627">
        <ele>371.20001220703</ele>
        <time>2017-05-31T14:35:01Z</time>
      </trkpt>
      <trkpt lat="43.42965" lon="6.04665">
        <ele>371.79998779297</ele>
        <time>2017-05-31T14:35:10Z</time>
      </trkpt>
      <trkpt lat="43.42963" lon="6.04676">
        <ele>371.79998779297</ele>
        <time>2017-05-31T14:35:13Z</time>
      </trkpt>
      <trkpt lat="43.42962" lon="6.04693">
        <ele>372.20001220703</ele>
        <time>2017-05-31T14:35:18Z</time>
      </trkpt>
      <trkpt lat="43.4296" lon="6.04703">
        <ele>372</ele>
        <time>2017-05-31T14:35:21Z</time>
      </trkpt>
      <trkpt lat="43.42957" lon="6.04726">
        <ele>372.60000610352</ele>
        <time>2017-05-31T14:35:27Z</time>
      </trkpt>
      <trkpt lat="43.42952" lon="6.0478">
        <ele>371.79998779297</ele>
        <time>2017-05-31T14:35:39Z</time>
      </trkpt>
      <trkpt lat="43.4295" lon="6.04806">
        <ele>370.79998779297</ele>
        <time>2017-05-31T14:35:43Z</time>
      </trkpt>
      <trkpt lat="43.42945" lon="6.04836">
        <ele>370</ele>
        <time>2017-05-31T14:35:47Z</time>
      </trkpt>
      <trkpt lat="43.42942" lon="6.0485">
        <ele>369.79998779297</ele>
        <time>2017-05-31T14:35:49Z</time>
      </trkpt>
      <trkpt lat="43.42938" lon="6.04863">
        <ele>370</ele>
        <time>2017-05-31T14:35:51Z</time>
      </trkpt>
      <trkpt lat="43.42935" lon="6.04873">
        <ele>370.60000610352</ele>
        <time>2017-05-31T14:35:53Z</time>
      </trkpt>
      <trkpt lat="43.42933" lon="6.04888">
        <ele>372</ele>
        <time>2017-05-31T14:35:57Z</time>
      </trkpt>
      <trkpt lat="43.42933" lon="6.04894">
        <ele>372.60000610352</ele>
        <time>2017-05-31T14:35:59Z</time>
      </trkpt>
      <trkpt lat="43.42932" lon="6.04897">
        <ele>373.20001220703</ele>
        <time>2017-05-31T14:36:00Z</time>
      </trkpt>
      <trkpt lat="43.42932" lon="6.04899">
        <ele>374</ele>
        <time>2017-05-31T14:36:01Z</time>
      </trkpt>
      <trkpt lat="43.42931" lon="6.0491">
        <ele>375.39999389648</ele>
        <time>2017-05-31T14:36:05Z</time>
      </trkpt>
      <trkpt lat="43.42933" lon="6.04917">
        <ele>375.79998779297</ele>
        <time>2017-05-31T14:36:09Z</time>
      </trkpt>
      <trkpt lat="43.42933" lon="6.04918">
        <ele>376</ele>
        <time>2017-05-31T14:36:10Z</time>
      </trkpt>
      <trkpt lat="43.42934" lon="6.04926">
        <ele>376.39999389648</ele>
        <time>2017-05-31T14:36:14Z</time>
      </trkpt>
      <trkpt lat="43.42933" lon="6.04928">
        <ele>376.39999389648</ele>
        <time>2017-05-31T14:36:15Z</time>
      </trkpt>
      <trkpt lat="43.42933" lon="6.04936">
        <ele>376.39999389648</ele>
        <time>2017-05-31T14:36:20Z</time>
      </trkpt>
      <trkpt lat="43.42933" lon="6.04943">
        <ele>376.60000610352</ele>
        <time>2017-05-31T14:36:25Z</time>
      </trkpt>
      <trkpt lat="43.42933" lon="6.04949">
        <ele>376.60000610352</ele>
        <time>2017-05-31T14:36:31Z</time>
      </trkpt>
      <trkpt lat="43.42933" lon="6.04948">
        <ele>377</ele>
        <time>2017-05-31T14:36:38Z</time>
      </trkpt>
      <trkpt lat="43.42933" lon="6.04948">
        <ele>377</ele>
        <time>2017-05-31T14:36:40Z</time>
      </trkpt>
      <trkpt lat="43.42933" lon="6.04948">
        <ele>376.79998779297</ele>
        <time>2017-05-31T14:36:45Z</time>
      </trkpt>
      <trkpt lat="43.42933" lon="6.04948">
        <ele>377.20001220703</ele>
        <time>2017-05-31T14:36:51Z</time>
      </trkpt>
      <trkpt lat="43.42932" lon="6.04948">
        <ele>377.39999389648</ele>
        <time>2017-05-31T14:37:07Z</time>
      </trkpt>
      <trkpt lat="43.42932" lon="6.04948">
        <ele>377.39999389648</ele>
        <time>2017-05-31T14:37:10Z</time>
      </trkpt>
      <trkpt lat="43.42933" lon="6.04947">
        <ele>376.60000610352</ele>
        <time>2017-05-31T14:37:41Z</time>
      </trkpt>
      <trkpt lat="43.42933" lon="6.04947">
        <ele>376.20001220703</ele>
        <time>2017-05-31T14:37:52Z</time>
      </trkpt>
      <trkpt lat="43.42933" lon="6.04947">
        <ele>376.39999389648</ele>
        <time>2017-05-31T14:38:12Z</time>
      </trkpt>
      <trkpt lat="43.42933" lon="6.04947">
        <ele>376.39999389648</ele>
        <time>2017-05-31T14:38:22Z</time>
      </trkpt>
      <trkpt lat="43.42933" lon="6.04948">
        <ele>376.60000610352</ele>
        <time>2017-05-31T14:38:32Z</time>
      </trkpt>
      <trkpt lat="43.42932" lon="6.0495">
        <ele>376.79998779297</ele>
        <time>2017-05-31T14:38:36Z</time>
      </trkpt>
      <trkpt lat="43.42931" lon="6.04954">
        <ele>376.39999389648</ele>
        <time>2017-05-31T14:38:38Z</time>
      </trkpt>
      <trkpt lat="43.42931" lon="6.04962">
        <ele>376.60000610352</ele>
        <time>2017-05-31T14:38:41Z</time>
      </trkpt>
      <trkpt lat="43.4293" lon="6.04965">
        <ele>376.60000610352</ele>
        <time>2017-05-31T14:38:42Z</time>
      </trkpt>
      <trkpt lat="43.42927" lon="6.04995">
        <ele>377</ele>
        <time>2017-05-31T14:38:52Z</time>
      </trkpt>
      <trkpt lat="43.42923" lon="6.0503">
        <ele>378.20001220703</ele>
        <time>2017-05-31T14:39:03Z</time>
      </trkpt>
      <trkpt lat="43.42921" lon="6.0505">
        <ele>378</ele>
        <time>2017-05-31T14:39:09Z</time>
      </trkpt>
      <trkpt lat="43.42916" lon="6.0508">
        <ele>378</ele>
        <time>2017-05-31T14:39:18Z</time>
      </trkpt>
      <trkpt lat="43.42915" lon="6.05097">
        <ele>378.60000610352</ele>
        <time>2017-05-31T14:39:23Z</time>
      </trkpt>
      <trkpt lat="43.42912" lon="6.05121">
        <ele>379.20001220703</ele>
        <time>2017-05-31T14:39:31Z</time>
      </trkpt>
      <trkpt lat="43.42912" lon="6.05127">
        <ele>379</ele>
        <time>2017-05-31T14:39:33Z</time>
      </trkpt>
      <trkpt lat="43.42908" lon="6.05145">
        <ele>379.60000610352</ele>
        <time>2017-05-31T14:39:39Z</time>
      </trkpt>
      <trkpt lat="43.42907" lon="6.0516">
        <ele>380.39999389648</ele>
        <time>2017-05-31T14:39:44Z</time>
      </trkpt>
      <trkpt lat="43.42906" lon="6.05174">
        <ele>381</ele>
        <time>2017-05-31T14:39:49Z</time>
      </trkpt>
      <trkpt lat="43.42904" lon="6.05192">
        <ele>381.79998779297</ele>
        <time>2017-05-31T14:39:55Z</time>
      </trkpt>
      <trkpt lat="43.42903" lon="6.05195">
        <ele>382</ele>
        <time>2017-05-31T14:39:56Z</time>
      </trkpt>
      <trkpt lat="43.42899" lon="6.05227">
        <ele>382</ele>
        <time>2017-05-31T14:40:05Z</time>
      </trkpt>
      <trkpt lat="43.42892" lon="6.05278">
        <ele>383</ele>
        <time>2017-05-31T14:40:19Z</time>
      </trkpt>
      <trkpt lat="43.42891" lon="6.05293">
        <ele>383.20001220703</ele>
        <time>2017-05-31T14:40:23Z</time>
      </trkpt>
      <trkpt lat="43.42889" lon="6.05314">
        <ele>383</ele>
        <time>2017-05-31T14:40:28Z</time>
      </trkpt>
      <trkpt lat="43.42887" lon="6.05327">
        <ele>382.39999389648</ele>
        <time>2017-05-31T14:40:31Z</time>
      </trkpt>
      <trkpt lat="43.42885" lon="6.05343">
        <ele>381.79998779297</ele>
        <time>2017-05-31T14:40:34Z</time>
      </trkpt>
      <trkpt lat="43.42883" lon="6.05355">
        <ele>381.60000610352</ele>
        <time>2017-05-31T14:40:36Z</time>
      </trkpt>
      <trkpt lat="43.42879" lon="6.05399">
        <ele>380.60000610352</ele>
        <time>2017-05-31T14:40:43Z</time>
      </trkpt>
      <trkpt lat="43.42878" lon="6.05419">
        <ele>379</ele>
        <time>2017-05-31T14:40:46Z</time>
      </trkpt>
      <trkpt lat="43.42872" lon="6.05453">
        <ele>378.20001220703</ele>
        <time>2017-05-31T14:40:51Z</time>
      </trkpt>
      <trkpt lat="43.42869" lon="6.05479">
        <ele>378.79998779297</ele>
        <time>2017-05-31T14:40:55Z</time>
      </trkpt>
      <trkpt lat="43.42866" lon="6.05513">
        <ele>378.60000610352</ele>
        <time>2017-05-31T14:41:01Z</time>
      </trkpt>
      <trkpt lat="43.42862" lon="6.05538">
        <ele>378.60000610352</ele>
        <time>2017-05-31T14:41:06Z</time>
      </trkpt>
      <trkpt lat="43.42857" lon="6.05563">
        <ele>378.39999389648</ele>
        <time>2017-05-31T14:41:11Z</time>
      </trkpt>
      <trkpt lat="43.42855" lon="6.05585">
        <ele>378.60000610352</ele>
        <time>2017-05-31T14:41:16Z</time>
      </trkpt>
      <trkpt lat="43.42854" lon="6.05598">
        <ele>379</ele>
        <time>2017-05-31T14:41:19Z</time>
      </trkpt>
      <trkpt lat="43.42851" lon="6.05631">
        <ele>379.20001220703</ele>
        <time>2017-05-31T14:41:26Z</time>
      </trkpt>
      <trkpt lat="43.42846" lon="6.05675">
        <ele>379.20001220703</ele>
        <time>2017-05-31T14:41:35Z</time>
      </trkpt>
      <trkpt lat="43.42846" lon="6.05679">
        <ele>379.60000610352</ele>
        <time>2017-05-31T14:41:36Z</time>
      </trkpt>
      <trkpt lat="43.42841" lon="6.05728">
        <ele>379.39999389648</ele>
        <time>2017-05-31T14:41:46Z</time>
      </trkpt>
      <trkpt lat="43.42834" lon="6.05786">
        <ele>378.79998779297</ele>
        <time>2017-05-31T14:41:57Z</time>
      </trkpt>
      <trkpt lat="43.4283" lon="6.05819">
        <ele>379.60000610352</ele>
        <time>2017-05-31T14:42:06Z</time>
      </trkpt>
      <trkpt lat="43.42829" lon="6.05823">
        <ele>379.79998779297</ele>
        <time>2017-05-31T14:42:07Z</time>
      </trkpt>
      <trkpt lat="43.42828" lon="6.05829">
        <ele>380.20001220703</ele>
        <time>2017-05-31T14:42:09Z</time>
      </trkpt>
      <trkpt lat="43.42822" lon="6.05856">
        <ele>382.39999389648</ele>
        <time>2017-05-31T14:42:19Z</time>
      </trkpt>
      <trkpt lat="43.42818" lon="6.05865">
        <ele>383.39999389648</ele>
        <time>2017-05-31T14:42:23Z</time>
      </trkpt>
      <trkpt lat="43.42813" lon="6.05873">
        <ele>384.39999389648</ele>
        <time>2017-05-31T14:42:27Z</time>
      </trkpt>
      <trkpt lat="43.42808" lon="6.05882">
        <ele>385.20001220703</ele>
        <time>2017-05-31T14:42:32Z</time>
      </trkpt>
      <trkpt lat="43.42806" lon="6.05887">
        <ele>385.60000610352</ele>
        <time>2017-05-31T14:42:35Z</time>
      </trkpt>
      <trkpt lat="43.42801" lon="6.05896">
        <ele>386.79998779297</ele>
        <time>2017-05-31T14:42:41Z</time>
      </trkpt>
      <trkpt lat="43.42797" lon="6.05904">
        <ele>387.79998779297</ele>
        <time>2017-05-31T14:42:46Z</time>
      </trkpt>
      <trkpt lat="43.42792" lon="6.05918">
        <ele>388.79998779297</ele>
        <time>2017-05-31T14:42:55Z</time>
      </trkpt>
      <trkpt lat="43.4279" lon="6.05924">
        <ele>389.20001220703</ele>
        <time>2017-05-31T14:42:58Z</time>
      </trkpt>
      <trkpt lat="43.42786" lon="6.05934">
        <ele>389.79998779297</ele>
        <time>2017-05-31T14:43:04Z</time>
      </trkpt>
      <trkpt lat="43.42782" lon="6.05944">
        <ele>390.20001220703</ele>
        <time>2017-05-31T14:43:10Z</time>
      </trkpt>
      <trkpt lat="43.42778" lon="6.05953">
        <ele>390.60000610352</ele>
        <time>2017-05-31T14:43:15Z</time>
      </trkpt>
      <trkpt lat="43.42776" lon="6.05961">
        <ele>390.79998779297</ele>
        <time>2017-05-31T14:43:20Z</time>
      </trkpt>
      <trkpt lat="43.42776" lon="6.05966">
        <ele>390.79998779297</ele>
        <time>2017-05-31T14:43:22Z</time>
      </trkpt>
      <trkpt lat="43.42774" lon="6.05977">
        <ele>391.39999389648</ele>
        <time>2017-05-31T14:43:28Z</time>
      </trkpt>
      <trkpt lat="43.42774" lon="6.0598">
        <ele>391.20001220703</ele>
        <time>2017-05-31T14:43:30Z</time>
      </trkpt>
      <trkpt lat="43.42774" lon="6.05985">
        <ele>391.20001220703</ele>
        <time>2017-05-31T14:43:33Z</time>
      </trkpt>
      <trkpt lat="43.42775" lon="6.05991">
        <ele>391</ele>
        <time>2017-05-31T14:43:37Z</time>
      </trkpt>
      <trkpt lat="43.42776" lon="6.05991">
        <ele>391</ele>
        <time>2017-05-31T14:43:40Z</time>
      </trkpt>
      <trkpt lat="43.42776" lon="6.05991">
        <ele>391.60000610352</ele>
        <time>2017-05-31T14:43:44Z</time>
      </trkpt>
      <trkpt lat="43.42775" lon="6.05991">
        <ele>391.60000610352</ele>
        <time>2017-05-31T14:43:51Z</time>
      </trkpt>
      <trkpt lat="43.42775" lon="6.05991">
        <ele>391.60000610352</ele>
        <time>2017-05-31T14:43:57Z</time>
      </trkpt>
      <trkpt lat="43.42775" lon="6.05991">
        <ele>391.60000610352</ele>
        <time>2017-05-31T14:44:01Z</time>
      </trkpt>
      <trkpt lat="43.42775" lon="6.05991">
        <ele>391.39999389648</ele>
        <time>2017-05-31T14:44:08Z</time>
      </trkpt>
      <trkpt lat="43.42775" lon="6.05991">
        <ele>391.39999389648</ele>
        <time>2017-05-31T14:44:11Z</time>
      </trkpt>
      <trkpt lat="43.42774" lon="6.05992">
        <ele>391</ele>
        <time>2017-05-31T14:44:20Z</time>
      </trkpt>
      <trkpt lat="43.42775" lon="6.05993">
        <ele>390.79998779297</ele>
        <time>2017-05-31T14:44:28Z</time>
      </trkpt>
      <trkpt lat="43.42775" lon="6.05993">
        <ele>390.79998779297</ele>
        <time>2017-05-31T14:44:30Z</time>
      </trkpt>
      <trkpt lat="43.42777" lon="6.05996">
        <ele>390.60000610352</ele>
        <time>2017-05-31T14:44:34Z</time>
      </trkpt>
      <trkpt lat="43.42786" lon="6.05995">
        <ele>389.79998779297</ele>
        <time>2017-05-31T14:44:39Z</time>
      </trkpt>
      <trkpt lat="43.42791" lon="6.05993">
        <ele>389.60000610352</ele>
        <time>2017-05-31T14:44:41Z</time>
      </trkpt>
      <trkpt lat="43.42797" lon="6.0599">
        <ele>388.79998779297</ele>
        <time>2017-05-31T14:44:43Z</time>
      </trkpt>
      <trkpt lat="43.42803" lon="6.05991">
        <ele>387.60000610352</ele>
        <time>2017-05-31T14:44:45Z</time>
      </trkpt>
      <trkpt lat="43.4282" lon="6.05995">
        <ele>386.60000610352</ele>
        <time>2017-05-31T14:44:50Z</time>
      </trkpt>
      <trkpt lat="43.4283" lon="6.06004">
        <ele>385.39999389648</ele>
        <time>2017-05-31T14:44:53Z</time>
      </trkpt>
      <trkpt lat="43.42837" lon="6.06013">
        <ele>384</ele>
        <time>2017-05-31T14:44:55Z</time>
      </trkpt>
      <trkpt lat="43.42842" lon="6.06022">
        <ele>381.79998779297</ele>
        <time>2017-05-31T14:44:57Z</time>
      </trkpt>
      <trkpt lat="43.42848" lon="6.06031">
        <ele>379.39999389648</ele>
        <time>2017-05-31T14:44:59Z</time>
      </trkpt>
      <trkpt lat="43.42855" lon="6.06039">
        <ele>377.39999389648</ele>
        <time>2017-05-31T14:45:01Z</time>
      </trkpt>
      <trkpt lat="43.42862" lon="6.06047">
        <ele>376</ele>
        <time>2017-05-31T14:45:03Z</time>
      </trkpt>
      <trkpt lat="43.42867" lon="6.06061">
        <ele>374.79998779297</ele>
        <time>2017-05-31T14:45:06Z</time>
      </trkpt>
      <trkpt lat="43.42867" lon="6.06076">
        <ele>373.60000610352</ele>
        <time>2017-05-31T14:45:09Z</time>
      </trkpt>
      <trkpt lat="43.42866" lon="6.06087">
        <ele>372.79998779297</ele>
        <time>2017-05-31T14:45:11Z</time>
      </trkpt>
      <trkpt lat="43.42864" lon="6.06102">
        <ele>372.39999389648</ele>
        <time>2017-05-31T14:45:14Z</time>
      </trkpt>
      <trkpt lat="43.42863" lon="6.06114">
        <ele>371.20001220703</ele>
        <time>2017-05-31T14:45:16Z</time>
      </trkpt>
      <trkpt lat="43.42865" lon="6.06126">
        <ele>369.39999389648</ele>
        <time>2017-05-31T14:45:18Z</time>
      </trkpt>
      <trkpt lat="43.42867" lon="6.06132">
        <ele>368.79998779297</ele>
        <time>2017-05-31T14:45:19Z</time>
      </trkpt>
      <trkpt lat="43.4287" lon="6.06141">
        <ele>368.20001220703</ele>
        <time>2017-05-31T14:45:21Z</time>
      </trkpt>
      <trkpt lat="43.42873" lon="6.06154">
        <ele>366.60000610352</ele>
        <time>2017-05-31T14:45:24Z</time>
      </trkpt>
      <trkpt lat="43.42873" lon="6.06163">
        <ele>365.20001220703</ele>
        <time>2017-05-31T14:45:26Z</time>
      </trkpt>
      <trkpt lat="43.42874" lon="6.06174">
        <ele>364</ele>
        <time>2017-05-31T14:45:29Z</time>
      </trkpt>
      <trkpt lat="43.42878" lon="6.06188">
        <ele>363.20001220703</ele>
        <time>2017-05-31T14:45:32Z</time>
      </trkpt>
      <trkpt lat="43.42878" lon="6.06193">
        <ele>362.60000610352</ele>
        <time>2017-05-31T14:45:33Z</time>
      </trkpt>
      <trkpt lat="43.42876" lon="6.06201">
        <ele>361.20001220703</ele>
        <time>2017-05-31T14:45:35Z</time>
      </trkpt>
      <trkpt lat="43.42873" lon="6.06221">
        <ele>360</ele>
        <time>2017-05-31T14:45:39Z</time>
      </trkpt>
      <trkpt lat="43.42864" lon="6.06228">
        <ele>359.20001220703</ele>
        <time>2017-05-31T14:45:42Z</time>
      </trkpt>
      <trkpt lat="43.42861" lon="6.06231">
        <ele>358.79998779297</ele>
        <time>2017-05-31T14:45:43Z</time>
      </trkpt>
      <trkpt lat="43.42855" lon="6.06236">
        <ele>357.60000610352</ele>
        <time>2017-05-31T14:45:46Z</time>
      </trkpt>
      <trkpt lat="43.42854" lon="6.06235">
        <ele>356.39999389648</ele>
        <time>2017-05-31T14:45:52Z</time>
      </trkpt>
      <trkpt lat="43.42854" lon="6.06232">
        <ele>356.20001220703</ele>
        <time>2017-05-31T14:46:03Z</time>
      </trkpt>
      <trkpt lat="43.42853" lon="6.0623">
        <ele>356</ele>
        <time>2017-05-31T14:46:14Z</time>
      </trkpt>
      <trkpt lat="43.42854" lon="6.0623">
        <ele>356.39999389648</ele>
        <time>2017-05-31T14:46:20Z</time>
      </trkpt>
      <trkpt lat="43.42853" lon="6.0623">
        <ele>356.39999389648</ele>
        <time>2017-05-31T14:46:24Z</time>
      </trkpt>
      <trkpt lat="43.42852" lon="6.06231">
        <ele>356.60000610352</ele>
        <time>2017-05-31T14:46:34Z</time>
      </trkpt>
      <trkpt lat="43.4285" lon="6.06229">
        <ele>356.60000610352</ele>
        <time>2017-05-31T14:46:36Z</time>
      </trkpt>
      <trkpt lat="43.42842" lon="6.06225">
        <ele>356.20001220703</ele>
        <time>2017-05-31T14:46:40Z</time>
      </trkpt>
      <trkpt lat="43.42834" lon="6.06229">
        <ele>355.39999389648</ele>
        <time>2017-05-31T14:46:43Z</time>
      </trkpt>
      <trkpt lat="43.42833" lon="6.06231">
        <ele>355.39999389648</ele>
        <time>2017-05-31T14:46:44Z</time>
      </trkpt>
      <trkpt lat="43.42827" lon="6.06237">
        <ele>353.79998779297</ele>
        <time>2017-05-31T14:46:47Z</time>
      </trkpt>
      <trkpt lat="43.42823" lon="6.06245">
        <ele>352.79998779297</ele>
        <time>2017-05-31T14:46:50Z</time>
      </trkpt>
      <trkpt lat="43.42824" lon="6.06262">
        <ele>352</ele>
        <time>2017-05-31T14:46:54Z</time>
      </trkpt>
      <trkpt lat="43.42825" lon="6.06288">
        <ele>351.79998779297</ele>
        <time>2017-05-31T14:47:01Z</time>
      </trkpt>
      <trkpt lat="43.42825" lon="6.06296">
        <ele>351.20001220703</ele>
        <time>2017-05-31T14:47:04Z</time>
      </trkpt>
      <trkpt lat="43.42826" lon="6.06301">
        <ele>350.60000610352</ele>
        <time>2017-05-31T14:47:06Z</time>
      </trkpt>
      <trkpt lat="43.42824" lon="6.06308">
        <ele>349.60000610352</ele>
        <time>2017-05-31T14:47:09Z</time>
      </trkpt>
      <trkpt lat="43.42822" lon="6.06308">
        <ele>349.39999389648</ele>
        <time>2017-05-31T14:47:10Z</time>
      </trkpt>
      <trkpt lat="43.42817" lon="6.06308">
        <ele>348.60000610352</ele>
        <time>2017-05-31T14:47:13Z</time>
      </trkpt>
      <trkpt lat="43.42815" lon="6.06308">
        <ele>348.39999389648</ele>
        <time>2017-05-31T14:47:14Z</time>
      </trkpt>
      <trkpt lat="43.42803" lon="6.06317">
        <ele>347.39999389648</ele>
        <time>2017-05-31T14:47:20Z</time>
      </trkpt>
      <trkpt lat="43.42797" lon="6.0632">
        <ele>346.39999389648</ele>
        <time>2017-05-31T14:47:24Z</time>
      </trkpt>
      <trkpt lat="43.42796" lon="6.0632">
        <ele>346</ele>
        <time>2017-05-31T14:47:25Z</time>
      </trkpt>
      <trkpt lat="43.42792" lon="6.06318">
        <ele>345.20001220703</ele>
        <time>2017-05-31T14:47:28Z</time>
      </trkpt>
      <trkpt lat="43.42772" lon="6.06314">
        <ele>344.20001220703</ele>
        <time>2017-05-31T14:47:35Z</time>
      </trkpt>
      <trkpt lat="43.42756" lon="6.06311">
        <ele>343</ele>
        <time>2017-05-31T14:47:40Z</time>
      </trkpt>
      <trkpt lat="43.42744" lon="6.06315">
        <ele>341.79998779297</ele>
        <time>2017-05-31T14:47:43Z</time>
      </trkpt>
      <trkpt lat="43.42735" lon="6.06317">
        <ele>341.60000610352</ele>
        <time>2017-05-31T14:47:45Z</time>
      </trkpt>
      <trkpt lat="43.4273" lon="6.06319">
        <ele>341.20001220703</ele>
        <time>2017-05-31T14:47:46Z</time>
      </trkpt>
      <trkpt lat="43.42721" lon="6.06322">
        <ele>340.79998779297</ele>
        <time>2017-05-31T14:47:48Z</time>
      </trkpt>
      <trkpt lat="43.42717" lon="6.06325">
        <ele>340.60000610352</ele>
        <time>2017-05-31T14:47:49Z</time>
      </trkpt>
      <trkpt lat="43.42702" lon="6.06342">
        <ele>340</ele>
        <time>2017-05-31T14:47:54Z</time>
      </trkpt>
      <trkpt lat="43.42699" lon="6.06341">
        <ele>340</ele>
        <time>2017-05-31T14:47:55Z</time>
      </trkpt>
      <trkpt lat="43.4269" lon="6.06339">
        <ele>339.79998779297</ele>
        <time>2017-05-31T14:47:59Z</time>
      </trkpt>
      <trkpt lat="43.4268" lon="6.06333">
        <ele>340</ele>
        <time>2017-05-31T14:48:05Z</time>
      </trkpt>
      <trkpt lat="43.42674" lon="6.06327">
        <ele>340</ele>
        <time>2017-05-31T14:48:16Z</time>
      </trkpt>
      <trkpt lat="43.42673" lon="6.06326">
        <ele>340</ele>
        <time>2017-05-31T14:48:17Z</time>
      </trkpt>
      <trkpt lat="43.42666" lon="6.06323">
        <ele>339.20001220703</ele>
        <time>2017-05-31T14:48:20Z</time>
      </trkpt>
      <trkpt lat="43.42658" lon="6.06322">
        <ele>338.39999389648</ele>
        <time>2017-05-31T14:48:22Z</time>
      </trkpt>
      <trkpt lat="43.42645" lon="6.06321">
        <ele>337.60000610352</ele>
        <time>2017-05-31T14:48:26Z</time>
      </trkpt>
      <trkpt lat="43.42637" lon="6.0632">
        <ele>337.39999389648</ele>
        <time>2017-05-31T14:48:29Z</time>
      </trkpt>
      <trkpt lat="43.42619" lon="6.06312">
        <ele>336.20001220703</ele>
        <time>2017-05-31T14:48:34Z</time>
      </trkpt>
      <trkpt lat="43.4261" lon="6.06309">
        <ele>336.20001220703</ele>
        <time>2017-05-31T14:48:36Z</time>
      </trkpt>
      <trkpt lat="43.42601" lon="6.06309">
        <ele>335.60000610352</ele>
        <time>2017-05-31T14:48:38Z</time>
      </trkpt>
      <trkpt lat="43.42596" lon="6.0631">
        <ele>335.20001220703</ele>
        <time>2017-05-31T14:48:39Z</time>
      </trkpt>
      <trkpt lat="43.42587" lon="6.06315">
        <ele>334.79998779297</ele>
        <time>2017-05-31T14:48:41Z</time>
      </trkpt>
      <trkpt lat="43.42579" lon="6.06322">
        <ele>334.20001220703</ele>
        <time>2017-05-31T14:48:43Z</time>
      </trkpt>
      <trkpt lat="43.42571" lon="6.06331">
        <ele>332.60000610352</ele>
        <time>2017-05-31T14:48:45Z</time>
      </trkpt>
      <trkpt lat="43.42567" lon="6.06335">
        <ele>332.20001220703</ele>
        <time>2017-05-31T14:48:46Z</time>
      </trkpt>
      <trkpt lat="43.4254" lon="6.06358">
        <ele>332</ele>
        <time>2017-05-31T14:48:52Z</time>
      </trkpt>
      <trkpt lat="43.4253" lon="6.06362">
        <ele>331.20001220703</ele>
        <time>2017-05-31T14:48:54Z</time>
      </trkpt>
      <trkpt lat="43.42519" lon="6.06365">
        <ele>330</ele>
        <time>2017-05-31T14:48:56Z</time>
      </trkpt>
      <trkpt lat="43.42501" lon="6.06371">
        <ele>329.20001220703</ele>
        <time>2017-05-31T14:48:59Z</time>
      </trkpt>
      <trkpt lat="43.42495" lon="6.06375">
        <ele>328.79998779297</ele>
        <time>2017-05-31T14:49:00Z</time>
      </trkpt>
      <trkpt lat="43.42488" lon="6.06377">
        <ele>328.60000610352</ele>
        <time>2017-05-31T14:49:01Z</time>
      </trkpt>
      <trkpt lat="43.42469" lon="6.06378">
        <ele>327.79998779297</ele>
        <time>2017-05-31T14:49:04Z</time>
      </trkpt>
      <trkpt lat="43.42456" lon="6.06381">
        <ele>327.79998779297</ele>
        <time>2017-05-31T14:49:06Z</time>
      </trkpt>
      <trkpt lat="43.42449" lon="6.06383">
        <ele>327.60000610352</ele>
        <time>2017-05-31T14:49:07Z</time>
      </trkpt>
      <trkpt lat="43.42418" lon="6.06406">
        <ele>326.79998779297</ele>
        <time>2017-05-31T14:49:13Z</time>
      </trkpt>
      <trkpt lat="43.4241" lon="6.06407">
        <ele>326.79998779297</ele>
        <time>2017-05-31T14:49:15Z</time>
      </trkpt>
      <trkpt lat="43.42405" lon="6.06407">
        <ele>326.79998779297</ele>
        <time>2017-05-31T14:49:16Z</time>
      </trkpt>
      <trkpt lat="43.42395" lon="6.06404">
        <ele>326.79998779297</ele>
        <time>2017-05-31T14:49:18Z</time>
      </trkpt>
      <trkpt lat="43.42383" lon="6.06401">
        <ele>326.39999389648</ele>
        <time>2017-05-31T14:49:20Z</time>
      </trkpt>
      <trkpt lat="43.4237" lon="6.06405">
        <ele>325.60000610352</ele>
        <time>2017-05-31T14:49:22Z</time>
      </trkpt>
      <trkpt lat="43.42349" lon="6.06428">
        <ele>324.79998779297</ele>
        <time>2017-05-31T14:49:26Z</time>
      </trkpt>
      <trkpt lat="43.42344" lon="6.06433">
        <ele>324.79998779297</ele>
        <time>2017-05-31T14:49:27Z</time>
      </trkpt>
      <trkpt lat="43.42315" lon="6.06454">
        <ele>324.39999389648</ele>
        <time>2017-05-31T14:49:33Z</time>
      </trkpt>
      <trkpt lat="43.42295" lon="6.06477">
        <ele>323.39999389648</ele>
        <time>2017-05-31T14:49:37Z</time>
      </trkpt>
      <trkpt lat="43.42289" lon="6.06484">
        <ele>323.20001220703</ele>
        <time>2017-05-31T14:49:38Z</time>
      </trkpt>
      <trkpt lat="43.42281" lon="6.06499">
        <ele>322.39999389648</ele>
        <time>2017-05-31T14:49:40Z</time>
      </trkpt>
      <trkpt lat="43.4227" lon="6.06511">
        <ele>321.79998779297</ele>
        <time>2017-05-31T14:49:42Z</time>
      </trkpt>
      <trkpt lat="43.42263" lon="6.06516">
        <ele>321.20001220703</ele>
        <time>2017-05-31T14:49:43Z</time>
      </trkpt>
      <trkpt lat="43.42257" lon="6.06519">
        <ele>320.39999389648</ele>
        <time>2017-05-31T14:49:44Z</time>
      </trkpt>
      <trkpt lat="43.42251" lon="6.06521">
        <ele>319.79998779297</ele>
        <time>2017-05-31T14:49:45Z</time>
      </trkpt>
      <trkpt lat="43.42245" lon="6.06522">
        <ele>319.20001220703</ele>
        <time>2017-05-31T14:49:46Z</time>
      </trkpt>
      <trkpt lat="43.42238" lon="6.06522">
        <ele>318.79998779297</ele>
        <time>2017-05-31T14:49:47Z</time>
      </trkpt>
      <trkpt lat="43.42232" lon="6.0652">
        <ele>318.60000610352</ele>
        <time>2017-05-31T14:49:48Z</time>
      </trkpt>
      <trkpt lat="43.42213" lon="6.06515">
        <ele>317</ele>
        <time>2017-05-31T14:49:51Z</time>
      </trkpt>
      <trkpt lat="43.42202" lon="6.06514">
        <ele>315.79998779297</ele>
        <time>2017-05-31T14:49:53Z</time>
      </trkpt>
      <trkpt lat="43.42192" lon="6.06511">
        <ele>315</ele>
        <time>2017-05-31T14:49:56Z</time>
      </trkpt>
      <trkpt lat="43.42192" lon="6.06508">
        <ele>314.79998779297</ele>
        <time>2017-05-31T14:49:57Z</time>
      </trkpt>
      <trkpt lat="43.42185" lon="6.0648">
        <ele>315.20001220703</ele>
        <time>2017-05-31T14:50:07Z</time>
      </trkpt>
      <trkpt lat="43.42183" lon="6.06471">
        <ele>315.20001220703</ele>
        <time>2017-05-31T14:50:12Z</time>
      </trkpt>
      <trkpt lat="43.4218" lon="6.06454">
        <ele>315.20001220703</ele>
        <time>2017-05-31T14:50:17Z</time>
      </trkpt>
      <trkpt lat="43.42172" lon="6.06415">
        <ele>314.79998779297</ele>
        <time>2017-05-31T14:50:27Z</time>
      </trkpt>
      <trkpt lat="43.42167" lon="6.06386">
        <ele>314.60000610352</ele>
        <time>2017-05-31T14:50:33Z</time>
      </trkpt>
      <trkpt lat="43.42163" lon="6.06367">
        <ele>315</ele>
        <time>2017-05-31T14:50:37Z</time>
      </trkpt>
      <trkpt lat="43.42155" lon="6.06329">
        <ele>315.60000610352</ele>
        <time>2017-05-31T14:50:45Z</time>
      </trkpt>
      <trkpt lat="43.42154" lon="6.0632">
        <ele>315.60000610352</ele>
        <time>2017-05-31T14:50:47Z</time>
      </trkpt>
      <trkpt lat="43.42153" lon="6.06307">
        <ele>316</ele>
        <time>2017-05-31T14:50:50Z</time>
      </trkpt>
      <trkpt lat="43.42152" lon="6.06289">
        <ele>317.20001220703</ele>
        <time>2017-05-31T14:50:54Z</time>
      </trkpt>
      <trkpt lat="43.42152" lon="6.06275">
        <ele>318.39999389648</ele>
        <time>2017-05-31T14:50:57Z</time>
      </trkpt>
      <trkpt lat="43.42152" lon="6.06258">
        <ele>319.39999389648</ele>
        <time>2017-05-31T14:51:01Z</time>
      </trkpt>
      <trkpt lat="43.42151" lon="6.06238">
        <ele>320.20001220703</ele>
        <time>2017-05-31T14:51:06Z</time>
      </trkpt>
      <trkpt lat="43.42151" lon="6.06234">
        <ele>320.39999389648</ele>
        <time>2017-05-31T14:51:07Z</time>
      </trkpt>
      <trkpt lat="43.4215" lon="6.0623">
        <ele>320.60000610352</ele>
        <time>2017-05-31T14:51:08Z</time>
      </trkpt>
      <trkpt lat="43.42143" lon="6.06218">
        <ele>321.39999389648</ele>
        <time>2017-05-31T14:51:14Z</time>
      </trkpt>
      <trkpt lat="43.42136" lon="6.06219">
        <ele>321.39999389648</ele>
        <time>2017-05-31T14:51:17Z</time>
      </trkpt>
      <trkpt lat="43.4213" lon="6.06221">
        <ele>321.20001220703</ele>
        <time>2017-05-31T14:51:20Z</time>
      </trkpt>
      <trkpt lat="43.42116" lon="6.06225">
        <ele>320.79998779297</ele>
        <time>2017-05-31T14:51:25Z</time>
      </trkpt>
      <trkpt lat="43.42109" lon="6.06228">
        <ele>320.39999389648</ele>
        <time>2017-05-31T14:51:27Z</time>
      </trkpt>
      <trkpt lat="43.42102" lon="6.0623">
        <ele>319.60000610352</ele>
        <time>2017-05-31T14:51:29Z</time>
      </trkpt>
      <trkpt lat="43.42081" lon="6.06238">
        <ele>318.60000610352</ele>
        <time>2017-05-31T14:51:34Z</time>
      </trkpt>
      <trkpt lat="43.42062" lon="6.06245">
        <ele>317.39999389648</ele>
        <time>2017-05-31T14:51:37Z</time>
      </trkpt>
      <trkpt lat="43.42045" lon="6.06251">
        <ele>316</ele>
        <time>2017-05-31T14:51:39Z</time>
      </trkpt>
      <trkpt lat="43.42026" lon="6.06257">
        <ele>314.79998779297</ele>
        <time>2017-05-31T14:51:41Z</time>
      </trkpt>
      <trkpt lat="43.42005" lon="6.06264">
        <ele>312.79998779297</ele>
        <time>2017-05-31T14:51:43Z</time>
      </trkpt>
      <trkpt lat="43.41993" lon="6.06268">
        <ele>311.60000610352</ele>
        <time>2017-05-31T14:51:44Z</time>
      </trkpt>
      <trkpt lat="43.41969" lon="6.06275">
        <ele>309.79998779297</ele>
        <time>2017-05-31T14:51:46Z</time>
      </trkpt>
      <trkpt lat="43.41957" lon="6.06279">
        <ele>308.60000610352</ele>
        <time>2017-05-31T14:51:47Z</time>
      </trkpt>
      <trkpt lat="43.41946" lon="6.06284">
        <ele>307.39999389648</ele>
        <time>2017-05-31T14:51:48Z</time>
      </trkpt>
      <trkpt lat="43.41934" lon="6.06287">
        <ele>306.39999389648</ele>
        <time>2017-05-31T14:51:49Z</time>
      </trkpt>
      <trkpt lat="43.41912" lon="6.06292">
        <ele>304.39999389648</ele>
        <time>2017-05-31T14:51:51Z</time>
      </trkpt>
      <trkpt lat="43.41891" lon="6.06294">
        <ele>303</ele>
        <time>2017-05-31T14:51:53Z</time>
      </trkpt>
      <trkpt lat="43.41858" lon="6.06292">
        <ele>301.79998779297</ele>
        <time>2017-05-31T14:51:56Z</time>
      </trkpt>
      <trkpt lat="43.41847" lon="6.06291">
        <ele>300.79998779297</ele>
        <time>2017-05-31T14:51:57Z</time>
      </trkpt>
      <trkpt lat="43.41836" lon="6.06291">
        <ele>299.79998779297</ele>
        <time>2017-05-31T14:51:58Z</time>
      </trkpt>
      <trkpt lat="43.41825" lon="6.06291">
        <ele>298.60000610352</ele>
        <time>2017-05-31T14:51:59Z</time>
      </trkpt>
      <trkpt lat="43.41805" lon="6.06289">
        <ele>297</ele>
        <time>2017-05-31T14:52:01Z</time>
      </trkpt>
      <trkpt lat="43.41789" lon="6.06279">
        <ele>295.79998779297</ele>
        <time>2017-05-31T14:52:03Z</time>
      </trkpt>
      <trkpt lat="43.41774" lon="6.06266">
        <ele>294.39999389648</ele>
        <time>2017-05-31T14:52:05Z</time>
      </trkpt>
      <trkpt lat="43.41757" lon="6.06257">
        <ele>293.60000610352</ele>
        <time>2017-05-31T14:52:07Z</time>
      </trkpt>
      <trkpt lat="43.4174" lon="6.06252">
        <ele>293.20001220703</ele>
        <time>2017-05-31T14:52:09Z</time>
      </trkpt>
      <trkpt lat="43.41721" lon="6.0625">
        <ele>292.20001220703</ele>
        <time>2017-05-31T14:52:11Z</time>
      </trkpt>
      <trkpt lat="43.41703" lon="6.0625">
        <ele>290.79998779297</ele>
        <time>2017-05-31T14:52:13Z</time>
      </trkpt>
      <trkpt lat="43.41668" lon="6.06247">
        <ele>290</ele>
        <time>2017-05-31T14:52:17Z</time>
      </trkpt>
      <trkpt lat="43.4166" lon="6.06246">
        <ele>289.79998779297</ele>
        <time>2017-05-31T14:52:18Z</time>
      </trkpt>
      <trkpt lat="43.41646" lon="6.0624">
        <ele>289.79998779297</ele>
        <time>2017-05-31T14:52:20Z</time>
      </trkpt>
      <trkpt lat="43.41624" lon="6.0623">
        <ele>288.79998779297</ele>
        <time>2017-05-31T14:52:25Z</time>
      </trkpt>
      <trkpt lat="43.41621" lon="6.06229">
        <ele>288.39999389648</ele>
        <time>2017-05-31T14:52:27Z</time>
      </trkpt>
      <trkpt lat="43.41619" lon="6.0623">
        <ele>288.39999389648</ele>
        <time>2017-05-31T14:52:28Z</time>
      </trkpt>
      <trkpt lat="43.41605" lon="6.06234">
        <ele>287.60000610352</ele>
        <time>2017-05-31T14:52:35Z</time>
      </trkpt>
      <trkpt lat="43.41603" lon="6.06236">
        <ele>287.39999389648</ele>
        <time>2017-05-31T14:52:37Z</time>
      </trkpt>
      <trkpt lat="43.41602" lon="6.06241">
        <ele>287</ele>
        <time>2017-05-31T14:52:44Z</time>
      </trkpt>
      <trkpt lat="43.416" lon="6.06251">
        <ele>287</ele>
        <time>2017-05-31T14:52:47Z</time>
      </trkpt>
      <trkpt lat="43.416" lon="6.06258">
        <ele>287</ele>
        <time>2017-05-31T14:52:49Z</time>
      </trkpt>
      <trkpt lat="43.41586" lon="6.06274">
        <ele>286.79998779297</ele>
        <time>2017-05-31T14:52:55Z</time>
      </trkpt>
      <trkpt lat="43.41584" lon="6.06295">
        <ele>286</ele>
        <time>2017-05-31T14:52:59Z</time>
      </trkpt>
      <trkpt lat="43.41583" lon="6.06307">
        <ele>285.60000610352</ele>
        <time>2017-05-31T14:53:01Z</time>
      </trkpt>
      <trkpt lat="43.41581" lon="6.06313">
        <ele>285.39999389648</ele>
        <time>2017-05-31T14:53:02Z</time>
      </trkpt>
      <trkpt lat="43.41579" lon="6.06319">
        <ele>285.20001220703</ele>
        <time>2017-05-31T14:53:03Z</time>
      </trkpt>
      <trkpt lat="43.41561" lon="6.0635">
        <ele>284.20001220703</ele>
        <time>2017-05-31T14:53:08Z</time>
      </trkpt>
      <trkpt lat="43.41555" lon="6.06368">
        <ele>283.39999389648</ele>
        <time>2017-05-31T14:53:10Z</time>
      </trkpt>
      <trkpt lat="43.41553" lon="6.06377">
        <ele>282.79998779297</ele>
        <time>2017-05-31T14:53:11Z</time>
      </trkpt>
      <trkpt lat="43.41549" lon="6.06397">
        <ele>281.60000610352</ele>
        <time>2017-05-31T14:53:13Z</time>
      </trkpt>
      <trkpt lat="43.41545" lon="6.06417">
        <ele>280.60000610352</ele>
        <time>2017-05-31T14:53:15Z</time>
      </trkpt>
      <trkpt lat="43.41542" lon="6.06438">
        <ele>279.60000610352</ele>
        <time>2017-05-31T14:53:17Z</time>
      </trkpt>
      <trkpt lat="43.41541" lon="6.06449">
        <ele>279</ele>
        <time>2017-05-31T14:53:18Z</time>
      </trkpt>
      <trkpt lat="43.41543" lon="6.06468">
        <ele>278.20001220703</ele>
        <time>2017-05-31T14:53:20Z</time>
      </trkpt>
      <trkpt lat="43.41544" lon="6.06475">
        <ele>277.79998779297</ele>
        <time>2017-05-31T14:53:21Z</time>
      </trkpt>
      <trkpt lat="43.41539" lon="6.06487">
        <ele>277.39999389648</ele>
        <time>2017-05-31T14:53:23Z</time>
      </trkpt>
      <trkpt lat="43.41529" lon="6.06504">
        <ele>277.20001220703</ele>
        <time>2017-05-31T14:53:26Z</time>
      </trkpt>
      <trkpt lat="43.41526" lon="6.06512">
        <ele>277</ele>
        <time>2017-05-31T14:53:27Z</time>
      </trkpt>
      <trkpt lat="43.41523" lon="6.06519">
        <ele>277</ele>
        <time>2017-05-31T14:53:28Z</time>
      </trkpt>
      <trkpt lat="43.41516" lon="6.0656">
        <ele>276.60000610352</ele>
        <time>2017-05-31T14:53:33Z</time>
      </trkpt>
      <trkpt lat="43.41509" lon="6.066">
        <ele>276.20001220703</ele>
        <time>2017-05-31T14:53:38Z</time>
      </trkpt>
      <trkpt lat="43.41503" lon="6.06639">
        <ele>276.20001220703</ele>
        <time>2017-05-31T14:53:43Z</time>
      </trkpt>
      <trkpt lat="43.41499" lon="6.06662">
        <ele>276</ele>
        <time>2017-05-31T14:53:46Z</time>
      </trkpt>
      <trkpt lat="43.41496" lon="6.06707">
        <ele>275.39999389648</ele>
        <time>2017-05-31T14:53:52Z</time>
      </trkpt>
      <trkpt lat="43.41496" lon="6.06722">
        <ele>275</ele>
        <time>2017-05-31T14:53:54Z</time>
      </trkpt>
      <trkpt lat="43.41493" lon="6.0676">
        <ele>274.20001220703</ele>
        <time>2017-05-31T14:53:59Z</time>
      </trkpt>
      <trkpt lat="43.41492" lon="6.06767">
        <ele>274</ele>
        <time>2017-05-31T14:54:00Z</time>
      </trkpt>
      <trkpt lat="43.41478" lon="6.06826">
        <ele>273</ele>
        <time>2017-05-31T14:54:09Z</time>
      </trkpt>
      <trkpt lat="43.41476" lon="6.06831">
        <ele>273</ele>
        <time>2017-05-31T14:54:10Z</time>
      </trkpt>
      <trkpt lat="43.41475" lon="6.06876">
        <ele>273.60000610352</ele>
        <time>2017-05-31T14:54:20Z</time>
      </trkpt>
      <trkpt lat="43.41473" lon="6.06887">
        <ele>274</ele>
        <time>2017-05-31T14:54:28Z</time>
      </trkpt>
      <trkpt lat="43.41474" lon="6.06893">
        <ele>274</ele>
        <time>2017-05-31T14:54:30Z</time>
      </trkpt>
      <trkpt lat="43.41478" lon="6.06908">
        <ele>273.79998779297</ele>
        <time>2017-05-31T14:54:34Z</time>
      </trkpt>
      <trkpt lat="43.41485" lon="6.06918">
        <ele>273.39999389648</ele>
        <time>2017-05-31T14:54:38Z</time>
      </trkpt>
      <trkpt lat="43.41484" lon="6.06926">
        <ele>273</ele>
        <time>2017-05-31T14:54:40Z</time>
      </trkpt>
      <trkpt lat="43.41484" lon="6.06948">
        <ele>273</ele>
        <time>2017-05-31T14:54:45Z</time>
      </trkpt>
      <trkpt lat="43.41496" lon="6.06965">
        <ele>273.20001220703</ele>
        <time>2017-05-31T14:54:51Z</time>
      </trkpt>
      <trkpt lat="43.41521" lon="6.06975">
        <ele>273</ele>
        <time>2017-05-31T14:55:01Z</time>
      </trkpt>
      <trkpt lat="43.41534" lon="6.06973">
        <ele>273.20001220703</ele>
        <time>2017-05-31T14:55:07Z</time>
      </trkpt>
      <trkpt lat="43.41539" lon="6.07017">
        <ele>273.39999389648</ele>
        <time>2017-05-31T14:55:17Z</time>
      </trkpt>
      <trkpt lat="43.4154" lon="6.07038">
        <ele>273.39999389648</ele>
        <time>2017-05-31T14:55:21Z</time>
      </trkpt>
      <trkpt lat="43.41544" lon="6.07085">
        <ele>273.39999389648</ele>
        <time>2017-05-31T14:55:30Z</time>
      </trkpt>
      <trkpt lat="43.41554" lon="6.07121">
        <ele>273.39999389648</ele>
        <time>2017-05-31T14:55:38Z</time>
      </trkpt>
      <trkpt lat="43.41559" lon="6.07121">
        <ele>273.60000610352</ele>
        <time>2017-05-31T14:55:40Z</time>
      </trkpt>
      <trkpt lat="43.41577" lon="6.07107">
        <ele>273.79998779297</ele>
        <time>2017-05-31T14:55:49Z</time>
      </trkpt>
      <trkpt lat="43.41579" lon="6.07103">
        <ele>273.79998779297</ele>
        <time>2017-05-31T14:55:51Z</time>
      </trkpt>
      <trkpt lat="43.41582" lon="6.07097">
        <ele>274</ele>
        <time>2017-05-31T14:55:54Z</time>
      </trkpt>
      <trkpt lat="43.41579" lon="6.07078">
        <ele>274.20001220703</ele>
        <time>2017-05-31T14:56:01Z</time>
      </trkpt>
      <trkpt lat="43.41577" lon="6.07055">
        <ele>274</ele>
        <time>2017-05-31T14:56:11Z</time>
      </trkpt>
      <trkpt lat="43.4158" lon="6.07038">
        <ele>274.20001220703</ele>
        <time>2017-05-31T14:56:18Z</time>
      </trkpt>
      <trkpt lat="43.4158" lon="6.07036">
        <ele>274.39999389648</ele>
        <time>2017-05-31T14:56:22Z</time>
      </trkpt>
      <trkpt lat="43.4158" lon="6.07035">
        <ele>274.60000610352</ele>
        <time>2017-05-31T14:56:33Z</time>
      </trkpt>
      <trkpt lat="43.4158" lon="6.07035">
        <ele>274.39999389648</ele>
        <time>2017-05-31T14:56:44Z</time>
      </trkpt>
    </trkseg>
  </trk>
</gpx>